<?xml version="1.0" encoding="UTF-8" standalone="no" ?>
<gpx xmlns="http://www.topografix.com/GPX/1/1" xmlns:xsi="http://www.w3.org/2001/XMLSchema-instance" xsi:schemaLocation="http://www.topografix.com/GPX/1/1 http://www.topografix.com/GPX/1/1/gpx.xsd" version="1.1" creator="VisuGPX - https://www.visugpx.com">
  <metadata>
    <name>Pic de Bure</name>
    <desc><![CDATA[Rando pic de bure le 22/06/2014]]></desc>
  </metadata>
  <trk>
    <name><![CDATA[22-JUIN-14 16:56:42]]></name>
    <trkseg>
      <trkpt lat="44.60223" lon="5.90468">
        <ele>1355.12</ele>
        <time>2014-06-22T06:23:31Z</time>
      </trkpt>
      <trkpt lat="44.60223" lon="5.90468">
        <ele>1355.12</ele>
        <time>2014-06-22T06:24:00Z</time>
      </trkpt>
      <trkpt lat="44.60223" lon="5.90469">
        <ele>1356.08</ele>
        <time>2014-06-22T06:24:30Z</time>
      </trkpt>
      <trkpt lat="44.60223" lon="5.90469">
        <ele>1356.08</ele>
        <time>2014-06-22T06:25:06Z</time>
      </trkpt>
      <trkpt lat="44.60223" lon="5.90468">
        <ele>1357.04</ele>
        <time>2014-06-22T06:25:32Z</time>
      </trkpt>
      <trkpt lat="44.60223" lon="5.90469">
        <ele>1357.04</ele>
        <time>2014-06-22T06:25:48Z</time>
      </trkpt>
      <trkpt lat="44.60223" lon="5.90469">
        <ele>1357.52</ele>
        <time>2014-06-22T06:26:14Z</time>
      </trkpt>
      <trkpt lat="44.60223" lon="5.90468">
        <ele>1357.52</ele>
        <time>2014-06-22T06:26:31Z</time>
      </trkpt>
      <trkpt lat="44.60225" lon="5.90473">
        <ele>1358</ele>
        <time>2014-06-22T06:26:37Z</time>
      </trkpt>
      <trkpt lat="44.6023" lon="5.90487">
        <ele>1358.96</ele>
        <time>2014-06-22T06:26:51Z</time>
      </trkpt>
      <trkpt lat="44.6023" lon="5.90487">
        <ele>1358</ele>
        <time>2014-06-22T06:27:22Z</time>
      </trkpt>
      <trkpt lat="44.6023" lon="5.90487">
        <ele>1359.44</ele>
        <time>2014-06-22T06:27:46Z</time>
      </trkpt>
      <trkpt lat="44.60231" lon="5.90489">
        <ele>1358.96</ele>
        <time>2014-06-22T06:28:02Z</time>
      </trkpt>
      <trkpt lat="44.60236" lon="5.90501">
        <ele>1359.44</ele>
        <time>2014-06-22T06:28:18Z</time>
      </trkpt>
      <trkpt lat="44.60238" lon="5.90498">
        <ele>1359.44</ele>
        <time>2014-06-22T06:28:31Z</time>
      </trkpt>
      <trkpt lat="44.60239" lon="5.90497">
        <ele>1359.44</ele>
        <time>2014-06-22T06:28:32Z</time>
      </trkpt>
      <trkpt lat="44.60247" lon="5.90503">
        <ele>1360.4</ele>
        <time>2014-06-22T06:28:45Z</time>
      </trkpt>
      <trkpt lat="44.60257" lon="5.90513">
        <ele>1362.33</ele>
        <time>2014-06-22T06:29:01Z</time>
      </trkpt>
      <trkpt lat="44.60264" lon="5.90518">
        <ele>1363.77</ele>
        <time>2014-06-22T06:29:16Z</time>
      </trkpt>
      <trkpt lat="44.60274" lon="5.90517">
        <ele>1365.69</ele>
        <time>2014-06-22T06:29:29Z</time>
      </trkpt>
      <trkpt lat="44.60285" lon="5.90521">
        <ele>1366.65</ele>
        <time>2014-06-22T06:29:43Z</time>
      </trkpt>
      <trkpt lat="44.60294" lon="5.90529">
        <ele>1370.02</ele>
        <time>2014-06-22T06:30:00Z</time>
      </trkpt>
      <trkpt lat="44.60299" lon="5.90541">
        <ele>1371.46</ele>
        <time>2014-06-22T06:30:16Z</time>
      </trkpt>
      <trkpt lat="44.60308" lon="5.90546">
        <ele>1372.9</ele>
        <time>2014-06-22T06:30:32Z</time>
      </trkpt>
      <trkpt lat="44.60317" lon="5.90553">
        <ele>1375.78</ele>
        <time>2014-06-22T06:30:48Z</time>
      </trkpt>
      <trkpt lat="44.60325" lon="5.90557">
        <ele>1378.67</ele>
        <time>2014-06-22T06:31:03Z</time>
      </trkpt>
      <trkpt lat="44.60331" lon="5.90562">
        <ele>1380.59</ele>
        <time>2014-06-22T06:31:19Z</time>
      </trkpt>
      <trkpt lat="44.60339" lon="5.90571">
        <ele>1382.99</ele>
        <time>2014-06-22T06:31:35Z</time>
      </trkpt>
      <trkpt lat="44.60344" lon="5.90577">
        <ele>1384.92</ele>
        <time>2014-06-22T06:31:49Z</time>
      </trkpt>
      <trkpt lat="44.60352" lon="5.90583">
        <ele>1387.8</ele>
        <time>2014-06-22T06:32:05Z</time>
      </trkpt>
      <trkpt lat="44.60359" lon="5.90586">
        <ele>1389.72</ele>
        <time>2014-06-22T06:32:21Z</time>
      </trkpt>
      <trkpt lat="44.60364" lon="5.90592">
        <ele>1391.65</ele>
        <time>2014-06-22T06:32:36Z</time>
      </trkpt>
      <trkpt lat="44.60371" lon="5.90595">
        <ele>1395.01</ele>
        <time>2014-06-22T06:32:55Z</time>
      </trkpt>
      <trkpt lat="44.60372" lon="5.90595">
        <ele>1394.53</ele>
        <time>2014-06-22T06:32:56Z</time>
      </trkpt>
      <trkpt lat="44.60373" lon="5.90596">
        <ele>1395.01</ele>
        <time>2014-06-22T06:32:57Z</time>
      </trkpt>
      <trkpt lat="44.60383" lon="5.90599">
        <ele>1396.45</ele>
        <time>2014-06-22T06:33:11Z</time>
      </trkpt>
      <trkpt lat="44.60388" lon="5.90601">
        <ele>1398.86</ele>
        <time>2014-06-22T06:33:26Z</time>
      </trkpt>
      <trkpt lat="44.60394" lon="5.90604">
        <ele>1401.26</ele>
        <time>2014-06-22T06:33:42Z</time>
      </trkpt>
      <trkpt lat="44.60398" lon="5.90605">
        <ele>1401.26</ele>
        <time>2014-06-22T06:33:48Z</time>
      </trkpt>
      <trkpt lat="44.60405" lon="5.90607">
        <ele>1403.18</ele>
        <time>2014-06-22T06:34:02Z</time>
      </trkpt>
      <trkpt lat="44.60412" lon="5.90609">
        <ele>1404.62</ele>
        <time>2014-06-22T06:34:17Z</time>
      </trkpt>
      <trkpt lat="44.60418" lon="5.90614">
        <ele>1407.03</ele>
        <time>2014-06-22T06:34:30Z</time>
      </trkpt>
      <trkpt lat="44.60426" lon="5.90623">
        <ele>1408.47</ele>
        <time>2014-06-22T06:34:43Z</time>
      </trkpt>
      <trkpt lat="44.60435" lon="5.90629">
        <ele>1409.91</ele>
        <time>2014-06-22T06:35:00Z</time>
      </trkpt>
      <trkpt lat="44.60442" lon="5.90632">
        <ele>1411.83</ele>
        <time>2014-06-22T06:35:15Z</time>
      </trkpt>
      <trkpt lat="44.60449" lon="5.90635">
        <ele>1414.24</ele>
        <time>2014-06-22T06:35:31Z</time>
      </trkpt>
      <trkpt lat="44.6046" lon="5.9064">
        <ele>1415.68</ele>
        <time>2014-06-22T06:35:46Z</time>
      </trkpt>
      <trkpt lat="44.60463" lon="5.90642">
        <ele>1416.16</ele>
        <time>2014-06-22T06:35:52Z</time>
      </trkpt>
      <trkpt lat="44.60472" lon="5.90648">
        <ele>1417.6</ele>
        <time>2014-06-22T06:36:08Z</time>
      </trkpt>
      <trkpt lat="44.60481" lon="5.90648">
        <ele>1420.49</ele>
        <time>2014-06-22T06:36:24Z</time>
      </trkpt>
      <trkpt lat="44.60488" lon="5.9065">
        <ele>1422.41</ele>
        <time>2014-06-22T06:36:40Z</time>
      </trkpt>
      <trkpt lat="44.60496" lon="5.90651">
        <ele>1424.81</ele>
        <time>2014-06-22T06:36:56Z</time>
      </trkpt>
      <trkpt lat="44.60508" lon="5.90661">
        <ele>1426.25</ele>
        <time>2014-06-22T06:37:12Z</time>
      </trkpt>
      <trkpt lat="44.60514" lon="5.90661">
        <ele>1428.66</ele>
        <time>2014-06-22T06:37:29Z</time>
      </trkpt>
      <trkpt lat="44.60524" lon="5.90669">
        <ele>1430.58</ele>
        <time>2014-06-22T06:37:45Z</time>
      </trkpt>
      <trkpt lat="44.60532" lon="5.90676">
        <ele>1432.5</ele>
        <time>2014-06-22T06:38:01Z</time>
      </trkpt>
      <trkpt lat="44.60536" lon="5.90683">
        <ele>1433.46</ele>
        <time>2014-06-22T06:38:11Z</time>
      </trkpt>
      <trkpt lat="44.60542" lon="5.90689">
        <ele>1434.91</ele>
        <time>2014-06-22T06:38:26Z</time>
      </trkpt>
      <trkpt lat="44.60547" lon="5.90695">
        <ele>1435.87</ele>
        <time>2014-06-22T06:38:33Z</time>
      </trkpt>
      <trkpt lat="44.6055" lon="5.90698">
        <ele>1437.31</ele>
        <time>2014-06-22T06:38:36Z</time>
      </trkpt>
      <trkpt lat="44.60561" lon="5.90708">
        <ele>1438.27</ele>
        <time>2014-06-22T06:38:52Z</time>
      </trkpt>
      <trkpt lat="44.60568" lon="5.90715">
        <ele>1440.67</ele>
        <time>2014-06-22T06:39:11Z</time>
      </trkpt>
      <trkpt lat="44.60578" lon="5.90721">
        <ele>1442.11</ele>
        <time>2014-06-22T06:39:30Z</time>
      </trkpt>
      <trkpt lat="44.60587" lon="5.90732">
        <ele>1444.52</ele>
        <time>2014-06-22T06:39:47Z</time>
      </trkpt>
      <trkpt lat="44.60594" lon="5.90738">
        <ele>1445.96</ele>
        <time>2014-06-22T06:40:01Z</time>
      </trkpt>
      <trkpt lat="44.60601" lon="5.90746">
        <ele>1448.36</ele>
        <time>2014-06-22T06:40:16Z</time>
      </trkpt>
      <trkpt lat="44.60613" lon="5.90753">
        <ele>1450.29</ele>
        <time>2014-06-22T06:40:33Z</time>
      </trkpt>
      <trkpt lat="44.60621" lon="5.90764">
        <ele>1451.73</ele>
        <time>2014-06-22T06:40:49Z</time>
      </trkpt>
      <trkpt lat="44.60633" lon="5.90773">
        <ele>1452.69</ele>
        <time>2014-06-22T06:41:06Z</time>
      </trkpt>
      <trkpt lat="44.60638" lon="5.90777">
        <ele>1453.65</ele>
        <time>2014-06-22T06:41:13Z</time>
      </trkpt>
      <trkpt lat="44.60646" lon="5.90786">
        <ele>1455.09</ele>
        <time>2014-06-22T06:41:29Z</time>
      </trkpt>
      <trkpt lat="44.60658" lon="5.90796">
        <ele>1457.02</ele>
        <time>2014-06-22T06:41:46Z</time>
      </trkpt>
      <trkpt lat="44.60662" lon="5.908">
        <ele>1457.98</ele>
        <time>2014-06-22T06:41:52Z</time>
      </trkpt>
      <trkpt lat="44.60667" lon="5.90805">
        <ele>1458.46</ele>
        <time>2014-06-22T06:42:01Z</time>
      </trkpt>
      <trkpt lat="44.60671" lon="5.90807">
        <ele>1458.46</ele>
        <time>2014-06-22T06:42:04Z</time>
      </trkpt>
      <trkpt lat="44.60677" lon="5.90812">
        <ele>1459.9</ele>
        <time>2014-06-22T06:42:17Z</time>
      </trkpt>
      <trkpt lat="44.60679" lon="5.90813">
        <ele>1460.86</ele>
        <time>2014-06-22T06:42:20Z</time>
      </trkpt>
      <trkpt lat="44.60689" lon="5.90823">
        <ele>1461.82</ele>
        <time>2014-06-22T06:42:36Z</time>
      </trkpt>
      <trkpt lat="44.607" lon="5.90829">
        <ele>1464.23</ele>
        <time>2014-06-22T06:42:54Z</time>
      </trkpt>
      <trkpt lat="44.60708" lon="5.90836">
        <ele>1464.71</ele>
        <time>2014-06-22T06:43:05Z</time>
      </trkpt>
      <trkpt lat="44.60718" lon="5.90849">
        <ele>1466.15</ele>
        <time>2014-06-22T06:43:21Z</time>
      </trkpt>
      <trkpt lat="44.60727" lon="5.90854">
        <ele>1467.59</ele>
        <time>2014-06-22T06:43:36Z</time>
      </trkpt>
      <trkpt lat="44.60737" lon="5.90851">
        <ele>1469.03</ele>
        <time>2014-06-22T06:43:49Z</time>
      </trkpt>
      <trkpt lat="44.60749" lon="5.90852">
        <ele>1471.44</ele>
        <time>2014-06-22T06:44:07Z</time>
      </trkpt>
      <trkpt lat="44.60754" lon="5.90854">
        <ele>1475.28</ele>
        <time>2014-06-22T06:44:14Z</time>
      </trkpt>
      <trkpt lat="44.60755" lon="5.90853">
        <ele>1471.92</ele>
        <time>2014-06-22T06:44:15Z</time>
      </trkpt>
      <trkpt lat="44.60756" lon="5.90853">
        <ele>1471.44</ele>
        <time>2014-06-22T06:44:16Z</time>
      </trkpt>
      <trkpt lat="44.60768" lon="5.90857">
        <ele>1473.36</ele>
        <time>2014-06-22T06:44:34Z</time>
      </trkpt>
      <trkpt lat="44.60772" lon="5.90861">
        <ele>1473.36</ele>
        <time>2014-06-22T06:44:41Z</time>
      </trkpt>
      <trkpt lat="44.60775" lon="5.90863">
        <ele>1467.59</ele>
        <time>2014-06-22T06:44:45Z</time>
      </trkpt>
      <trkpt lat="44.60776" lon="5.90863">
        <ele>1473.84</ele>
        <time>2014-06-22T06:44:46Z</time>
      </trkpt>
      <trkpt lat="44.60776" lon="5.90862">
        <ele>1472.4</ele>
        <time>2014-06-22T06:44:47Z</time>
      </trkpt>
      <trkpt lat="44.60777" lon="5.90862">
        <ele>1474.8</ele>
        <time>2014-06-22T06:44:48Z</time>
      </trkpt>
      <trkpt lat="44.60788" lon="5.90859">
        <ele>1473.84</ele>
        <time>2014-06-22T06:45:04Z</time>
      </trkpt>
      <trkpt lat="44.60799" lon="5.90857">
        <ele>1478.65</ele>
        <time>2014-06-22T06:45:19Z</time>
      </trkpt>
      <trkpt lat="44.60809" lon="5.90854">
        <ele>1477.2</ele>
        <time>2014-06-22T06:45:36Z</time>
      </trkpt>
      <trkpt lat="44.6082" lon="5.90847">
        <ele>1479.13</ele>
        <time>2014-06-22T06:45:50Z</time>
      </trkpt>
      <trkpt lat="44.60829" lon="5.90842">
        <ele>1480.09</ele>
        <time>2014-06-22T06:46:08Z</time>
      </trkpt>
      <trkpt lat="44.60829" lon="5.90842">
        <ele>1478.16</ele>
        <time>2014-06-22T06:46:09Z</time>
      </trkpt>
      <trkpt lat="44.60829" lon="5.90842">
        <ele>1480.57</ele>
        <time>2014-06-22T06:46:10Z</time>
      </trkpt>
      <trkpt lat="44.60829" lon="5.90842">
        <ele>1476.72</ele>
        <time>2014-06-22T06:46:11Z</time>
      </trkpt>
      <trkpt lat="44.60829" lon="5.90842">
        <ele>1480.09</ele>
        <time>2014-06-22T06:46:12Z</time>
      </trkpt>
      <trkpt lat="44.6083" lon="5.90841">
        <ele>1478.16</ele>
        <time>2014-06-22T06:46:18Z</time>
      </trkpt>
      <trkpt lat="44.6083" lon="5.90842">
        <ele>1480.57</ele>
        <time>2014-06-22T06:46:19Z</time>
      </trkpt>
      <trkpt lat="44.60838" lon="5.90835">
        <ele>1481.05</ele>
        <time>2014-06-22T06:46:32Z</time>
      </trkpt>
      <trkpt lat="44.6084" lon="5.90834">
        <ele>1477.2</ele>
        <time>2014-06-22T06:46:34Z</time>
      </trkpt>
      <trkpt lat="44.60841" lon="5.90833">
        <ele>1482.97</ele>
        <time>2014-06-22T06:46:41Z</time>
      </trkpt>
      <trkpt lat="44.60841" lon="5.90833">
        <ele>1480.57</ele>
        <time>2014-06-22T06:46:42Z</time>
      </trkpt>
      <trkpt lat="44.60843" lon="5.90831">
        <ele>1481.05</ele>
        <time>2014-06-22T06:46:46Z</time>
      </trkpt>
      <trkpt lat="44.60852" lon="5.9082">
        <ele>1480.57</ele>
        <time>2014-06-22T06:46:52Z</time>
      </trkpt>
      <trkpt lat="44.60852" lon="5.90819">
        <ele>1482.49</ele>
        <time>2014-06-22T06:46:54Z</time>
      </trkpt>
      <trkpt lat="44.60854" lon="5.90817">
        <ele>1480.57</ele>
        <time>2014-06-22T06:46:55Z</time>
      </trkpt>
      <trkpt lat="44.60854" lon="5.90816">
        <ele>1482.49</ele>
        <time>2014-06-22T06:46:56Z</time>
      </trkpt>
      <trkpt lat="44.6086" lon="5.90811">
        <ele>1484.41</ele>
        <time>2014-06-22T06:47:02Z</time>
      </trkpt>
      <trkpt lat="44.6086" lon="5.90811">
        <ele>1480.57</ele>
        <time>2014-06-22T06:47:03Z</time>
      </trkpt>
      <trkpt lat="44.6086" lon="5.90811">
        <ele>1482.97</ele>
        <time>2014-06-22T06:47:04Z</time>
      </trkpt>
      <trkpt lat="44.6086" lon="5.90811">
        <ele>1481.53</ele>
        <time>2014-06-22T06:47:05Z</time>
      </trkpt>
      <trkpt lat="44.60861" lon="5.9081">
        <ele>1483.45</ele>
        <time>2014-06-22T06:47:07Z</time>
      </trkpt>
      <trkpt lat="44.60863" lon="5.90803">
        <ele>1482.97</ele>
        <time>2014-06-22T06:47:11Z</time>
      </trkpt>
      <trkpt lat="44.60865" lon="5.90798">
        <ele>1483.93</ele>
        <time>2014-06-22T06:47:15Z</time>
      </trkpt>
      <trkpt lat="44.60866" lon="5.90793">
        <ele>1482.97</ele>
        <time>2014-06-22T06:47:19Z</time>
      </trkpt>
      <trkpt lat="44.6087" lon="5.90784">
        <ele>1482.97</ele>
        <time>2014-06-22T06:47:29Z</time>
      </trkpt>
      <trkpt lat="44.60871" lon="5.90779">
        <ele>1484.89</ele>
        <time>2014-06-22T06:47:34Z</time>
      </trkpt>
      <trkpt lat="44.60879" lon="5.90769">
        <ele>1487.3</ele>
        <time>2014-06-22T06:47:48Z</time>
      </trkpt>
      <trkpt lat="44.60882" lon="5.90764">
        <ele>1487.3</ele>
        <time>2014-06-22T06:47:54Z</time>
      </trkpt>
      <trkpt lat="44.60886" lon="5.90754">
        <ele>1488.26</ele>
        <time>2014-06-22T06:48:07Z</time>
      </trkpt>
      <trkpt lat="44.60888" lon="5.90752">
        <ele>1486.82</ele>
        <time>2014-06-22T06:48:11Z</time>
      </trkpt>
      <trkpt lat="44.60888" lon="5.90752">
        <ele>1488.74</ele>
        <time>2014-06-22T06:48:12Z</time>
      </trkpt>
      <trkpt lat="44.60888" lon="5.90751">
        <ele>1483.93</ele>
        <time>2014-06-22T06:48:13Z</time>
      </trkpt>
      <trkpt lat="44.60889" lon="5.9075">
        <ele>1491.62</ele>
        <time>2014-06-22T06:48:14Z</time>
      </trkpt>
      <trkpt lat="44.60889" lon="5.90748">
        <ele>1489.22</ele>
        <time>2014-06-22T06:48:15Z</time>
      </trkpt>
      <trkpt lat="44.6089" lon="5.90745">
        <ele>1490.18</ele>
        <time>2014-06-22T06:48:20Z</time>
      </trkpt>
      <trkpt lat="44.60889" lon="5.90741">
        <ele>1489.7</ele>
        <time>2014-06-22T06:48:28Z</time>
      </trkpt>
      <trkpt lat="44.60894" lon="5.90744">
        <ele>1491.14</ele>
        <time>2014-06-22T06:48:42Z</time>
      </trkpt>
      <trkpt lat="44.60896" lon="5.90745">
        <ele>1491.62</ele>
        <time>2014-06-22T06:48:43Z</time>
      </trkpt>
      <trkpt lat="44.60897" lon="5.90746">
        <ele>1491.62</ele>
        <time>2014-06-22T06:48:45Z</time>
      </trkpt>
      <trkpt lat="44.60899" lon="5.9075">
        <ele>1492.1</ele>
        <time>2014-06-22T06:48:48Z</time>
      </trkpt>
      <trkpt lat="44.60912" lon="5.90761">
        <ele>1493.06</ele>
        <time>2014-06-22T06:49:05Z</time>
      </trkpt>
      <trkpt lat="44.60915" lon="5.90762">
        <ele>1493.06</ele>
        <time>2014-06-22T06:49:08Z</time>
      </trkpt>
      <trkpt lat="44.60918" lon="5.90761">
        <ele>1493.06</ele>
        <time>2014-06-22T06:49:11Z</time>
      </trkpt>
      <trkpt lat="44.60928" lon="5.90777">
        <ele>1494.99</ele>
        <time>2014-06-22T06:49:27Z</time>
      </trkpt>
      <trkpt lat="44.60933" lon="5.90777">
        <ele>1494.99</ele>
        <time>2014-06-22T06:49:35Z</time>
      </trkpt>
      <trkpt lat="44.60946" lon="5.90774">
        <ele>1496.91</ele>
        <time>2014-06-22T06:49:53Z</time>
      </trkpt>
      <trkpt lat="44.60952" lon="5.90773">
        <ele>1497.87</ele>
        <time>2014-06-22T06:50:00Z</time>
      </trkpt>
      <trkpt lat="44.60962" lon="5.90776">
        <ele>1499.79</ele>
        <time>2014-06-22T06:50:16Z</time>
      </trkpt>
      <trkpt lat="44.6097" lon="5.90771">
        <ele>1500.76</ele>
        <time>2014-06-22T06:50:29Z</time>
      </trkpt>
      <trkpt lat="44.60972" lon="5.9077">
        <ele>1501.24</ele>
        <time>2014-06-22T06:50:33Z</time>
      </trkpt>
      <trkpt lat="44.60976" lon="5.90769">
        <ele>1501.24</ele>
        <time>2014-06-22T06:50:37Z</time>
      </trkpt>
      <trkpt lat="44.60982" lon="5.90775">
        <ele>1502.68</ele>
        <time>2014-06-22T06:50:47Z</time>
      </trkpt>
      <trkpt lat="44.60988" lon="5.90777">
        <ele>1504.12</ele>
        <time>2014-06-22T06:51:05Z</time>
      </trkpt>
      <trkpt lat="44.60994" lon="5.9078">
        <ele>1506.04</ele>
        <time>2014-06-22T06:51:19Z</time>
      </trkpt>
      <trkpt lat="44.61004" lon="5.90786">
        <ele>1507.48</ele>
        <time>2014-06-22T06:51:36Z</time>
      </trkpt>
      <trkpt lat="44.61007" lon="5.90785">
        <ele>1508.93</ele>
        <time>2014-06-22T06:51:42Z</time>
      </trkpt>
      <trkpt lat="44.61017" lon="5.90786">
        <ele>1510.85</ele>
        <time>2014-06-22T06:51:59Z</time>
      </trkpt>
      <trkpt lat="44.61024" lon="5.90788">
        <ele>1513.25</ele>
        <time>2014-06-22T06:52:15Z</time>
      </trkpt>
      <trkpt lat="44.61029" lon="5.90789">
        <ele>1514.21</ele>
        <time>2014-06-22T06:52:24Z</time>
      </trkpt>
      <trkpt lat="44.61039" lon="5.90787">
        <ele>1516.62</ele>
        <time>2014-06-22T06:52:44Z</time>
      </trkpt>
      <trkpt lat="44.61046" lon="5.90787">
        <ele>1517.58</ele>
        <time>2014-06-22T06:52:57Z</time>
      </trkpt>
      <trkpt lat="44.61056" lon="5.90786">
        <ele>1519.5</ele>
        <time>2014-06-22T06:53:15Z</time>
      </trkpt>
      <trkpt lat="44.61066" lon="5.90793">
        <ele>1521.9</ele>
        <time>2014-06-22T06:53:31Z</time>
      </trkpt>
      <trkpt lat="44.61066" lon="5.90793">
        <ele>1521.9</ele>
        <time>2014-06-22T06:53:35Z</time>
      </trkpt>
      <trkpt lat="44.61072" lon="5.90794">
        <ele>1523.83</ele>
        <time>2014-06-22T06:53:50Z</time>
      </trkpt>
      <trkpt lat="44.61083" lon="5.9079">
        <ele>1525.75</ele>
        <time>2014-06-22T06:54:07Z</time>
      </trkpt>
      <trkpt lat="44.61091" lon="5.90789">
        <ele>1527.19</ele>
        <time>2014-06-22T06:54:24Z</time>
      </trkpt>
      <trkpt lat="44.61099" lon="5.90786">
        <ele>1529.59</ele>
        <time>2014-06-22T06:54:40Z</time>
      </trkpt>
      <trkpt lat="44.61111" lon="5.9079">
        <ele>1531.52</ele>
        <time>2014-06-22T06:54:57Z</time>
      </trkpt>
      <trkpt lat="44.61118" lon="5.90787">
        <ele>1532.96</ele>
        <time>2014-06-22T06:55:13Z</time>
      </trkpt>
      <trkpt lat="44.61127" lon="5.90786">
        <ele>1534.88</ele>
        <time>2014-06-22T06:55:30Z</time>
      </trkpt>
      <trkpt lat="44.61136" lon="5.90784">
        <ele>1536.8</ele>
        <time>2014-06-22T06:55:46Z</time>
      </trkpt>
      <trkpt lat="44.61146" lon="5.90781">
        <ele>1539.21</ele>
        <time>2014-06-22T06:56:04Z</time>
      </trkpt>
      <trkpt lat="44.61154" lon="5.90774">
        <ele>1541.13</ele>
        <time>2014-06-22T06:56:21Z</time>
      </trkpt>
      <trkpt lat="44.61161" lon="5.90767">
        <ele>1543.05</ele>
        <time>2014-06-22T06:56:35Z</time>
      </trkpt>
      <trkpt lat="44.61175" lon="5.90766">
        <ele>1543.53</ele>
        <time>2014-06-22T06:56:52Z</time>
      </trkpt>
      <trkpt lat="44.61184" lon="5.9078">
        <ele>1544.98</ele>
        <time>2014-06-22T06:57:07Z</time>
      </trkpt>
      <trkpt lat="44.61195" lon="5.90783">
        <ele>1546.9</ele>
        <time>2014-06-22T06:57:24Z</time>
      </trkpt>
      <trkpt lat="44.61204" lon="5.90782">
        <ele>1548.82</ele>
        <time>2014-06-22T06:57:39Z</time>
      </trkpt>
      <trkpt lat="44.61211" lon="5.90777">
        <ele>1550.74</ele>
        <time>2014-06-22T06:57:54Z</time>
      </trkpt>
      <trkpt lat="44.61222" lon="5.90773">
        <ele>1552.67</ele>
        <time>2014-06-22T06:58:11Z</time>
      </trkpt>
      <trkpt lat="44.6123" lon="5.90769">
        <ele>1554.11</ele>
        <time>2014-06-22T06:58:25Z</time>
      </trkpt>
      <trkpt lat="44.61235" lon="5.90763">
        <ele>1556.51</ele>
        <time>2014-06-22T06:58:41Z</time>
      </trkpt>
      <trkpt lat="44.61242" lon="5.90757">
        <ele>1558.43</ele>
        <time>2014-06-22T06:58:57Z</time>
      </trkpt>
      <trkpt lat="44.61248" lon="5.90752">
        <ele>1560.84</ele>
        <time>2014-06-22T06:59:11Z</time>
      </trkpt>
      <trkpt lat="44.61254" lon="5.90748">
        <ele>1562.28</ele>
        <time>2014-06-22T06:59:28Z</time>
      </trkpt>
      <trkpt lat="44.61259" lon="5.90744">
        <ele>1564.2</ele>
        <time>2014-06-22T06:59:43Z</time>
      </trkpt>
      <trkpt lat="44.61265" lon="5.90737">
        <ele>1566.12</ele>
        <time>2014-06-22T06:59:57Z</time>
      </trkpt>
      <trkpt lat="44.61274" lon="5.90729">
        <ele>1567.57</ele>
        <time>2014-06-22T07:00:14Z</time>
      </trkpt>
      <trkpt lat="44.61277" lon="5.90726">
        <ele>1568.53</ele>
        <time>2014-06-22T07:00:21Z</time>
      </trkpt>
      <trkpt lat="44.61289" lon="5.90725">
        <ele>1569.97</ele>
        <time>2014-06-22T07:00:36Z</time>
      </trkpt>
      <trkpt lat="44.61293" lon="5.90737">
        <ele>1570.45</ele>
        <time>2014-06-22T07:00:46Z</time>
      </trkpt>
      <trkpt lat="44.61296" lon="5.90755">
        <ele>1572.37</ele>
        <time>2014-06-22T07:01:01Z</time>
      </trkpt>
      <trkpt lat="44.613" lon="5.90769">
        <ele>1574.3</ele>
        <time>2014-06-22T07:01:17Z</time>
      </trkpt>
      <trkpt lat="44.613" lon="5.9078">
        <ele>1576.22</ele>
        <time>2014-06-22T07:01:31Z</time>
      </trkpt>
      <trkpt lat="44.61305" lon="5.9079">
        <ele>1577.18</ele>
        <time>2014-06-22T07:01:46Z</time>
      </trkpt>
      <trkpt lat="44.61312" lon="5.90783">
        <ele>1578.62</ele>
        <time>2014-06-22T07:02:00Z</time>
      </trkpt>
      <trkpt lat="44.6132" lon="5.90777">
        <ele>1581.03</ele>
        <time>2014-06-22T07:02:17Z</time>
      </trkpt>
      <trkpt lat="44.61326" lon="5.90772">
        <ele>1583.91</ele>
        <time>2014-06-22T07:02:35Z</time>
      </trkpt>
      <trkpt lat="44.61334" lon="5.9077">
        <ele>1585.35</ele>
        <time>2014-06-22T07:02:48Z</time>
      </trkpt>
      <trkpt lat="44.6134" lon="5.9077">
        <ele>1586.31</ele>
        <time>2014-06-22T07:02:54Z</time>
      </trkpt>
      <trkpt lat="44.61347" lon="5.90771">
        <ele>1587.75</ele>
        <time>2014-06-22T07:03:09Z</time>
      </trkpt>
      <trkpt lat="44.61356" lon="5.90773">
        <ele>1590.16</ele>
        <time>2014-06-22T07:03:25Z</time>
      </trkpt>
      <trkpt lat="44.61359" lon="5.90772">
        <ele>1591.6</ele>
        <time>2014-06-22T07:03:38Z</time>
      </trkpt>
      <trkpt lat="44.61363" lon="5.90772">
        <ele>1592.56</ele>
        <time>2014-06-22T07:03:48Z</time>
      </trkpt>
      <trkpt lat="44.61372" lon="5.9078">
        <ele>1595.45</ele>
        <time>2014-06-22T07:04:06Z</time>
      </trkpt>
      <trkpt lat="44.61373" lon="5.9078">
        <ele>1596.41</ele>
        <time>2014-06-22T07:04:11Z</time>
      </trkpt>
      <trkpt lat="44.61383" lon="5.90776">
        <ele>1598.81</ele>
        <time>2014-06-22T07:04:29Z</time>
      </trkpt>
      <trkpt lat="44.61389" lon="5.90775">
        <ele>1599.77</ele>
        <time>2014-06-22T07:04:37Z</time>
      </trkpt>
      <trkpt lat="44.61398" lon="5.90783">
        <ele>1601.21</ele>
        <time>2014-06-22T07:04:53Z</time>
      </trkpt>
      <trkpt lat="44.61409" lon="5.90793">
        <ele>1602.66</ele>
        <time>2014-06-22T07:05:07Z</time>
      </trkpt>
      <trkpt lat="44.61416" lon="5.90803">
        <ele>1604.58</ele>
        <time>2014-06-22T07:05:22Z</time>
      </trkpt>
      <trkpt lat="44.61424" lon="5.90807">
        <ele>1605.54</ele>
        <time>2014-06-22T07:05:38Z</time>
      </trkpt>
      <trkpt lat="44.61429" lon="5.90807">
        <ele>1605.06</ele>
        <time>2014-06-22T07:05:46Z</time>
      </trkpt>
      <trkpt lat="44.61437" lon="5.90811">
        <ele>1606.02</ele>
        <time>2014-06-22T07:05:53Z</time>
      </trkpt>
      <trkpt lat="44.6145" lon="5.90816">
        <ele>1605.06</ele>
        <time>2014-06-22T07:06:08Z</time>
      </trkpt>
      <trkpt lat="44.61454" lon="5.90818">
        <ele>1605.06</ele>
        <time>2014-06-22T07:06:12Z</time>
      </trkpt>
      <trkpt lat="44.61467" lon="5.90833">
        <ele>1605.06</ele>
        <time>2014-06-22T07:06:31Z</time>
      </trkpt>
      <trkpt lat="44.61472" lon="5.90841">
        <ele>1605.06</ele>
        <time>2014-06-22T07:06:46Z</time>
      </trkpt>
      <trkpt lat="44.61472" lon="5.90841">
        <ele>1604.58</ele>
        <time>2014-06-22T07:07:13Z</time>
      </trkpt>
      <trkpt lat="44.61472" lon="5.90841">
        <ele>1604.58</ele>
        <time>2014-06-22T07:07:34Z</time>
      </trkpt>
      <trkpt lat="44.61472" lon="5.90841">
        <ele>1604.58</ele>
        <time>2014-06-22T07:07:57Z</time>
      </trkpt>
      <trkpt lat="44.61471" lon="5.90841">
        <ele>1605.06</ele>
        <time>2014-06-22T07:08:28Z</time>
      </trkpt>
      <trkpt lat="44.61471" lon="5.90841">
        <ele>1604.58</ele>
        <time>2014-06-22T07:08:55Z</time>
      </trkpt>
      <trkpt lat="44.61471" lon="5.90841">
        <ele>1605.06</ele>
        <time>2014-06-22T07:09:14Z</time>
      </trkpt>
      <trkpt lat="44.61471" lon="5.90841">
        <ele>1605.06</ele>
        <time>2014-06-22T07:09:38Z</time>
      </trkpt>
      <trkpt lat="44.61475" lon="5.90842">
        <ele>1605.54</ele>
        <time>2014-06-22T07:09:58Z</time>
      </trkpt>
      <trkpt lat="44.61479" lon="5.90843">
        <ele>1606.5</ele>
        <time>2014-06-22T07:10:02Z</time>
      </trkpt>
      <trkpt lat="44.61487" lon="5.90854">
        <ele>1605.54</ele>
        <time>2014-06-22T07:10:17Z</time>
      </trkpt>
      <trkpt lat="44.61482" lon="5.90863">
        <ele>1605.54</ele>
        <time>2014-06-22T07:10:27Z</time>
      </trkpt>
      <trkpt lat="44.61486" lon="5.90875">
        <ele>1605.54</ele>
        <time>2014-06-22T07:10:40Z</time>
      </trkpt>
      <trkpt lat="44.61493" lon="5.90891">
        <ele>1606.02</ele>
        <time>2014-06-22T07:10:57Z</time>
      </trkpt>
      <trkpt lat="44.61498" lon="5.90893">
        <ele>1606.98</ele>
        <time>2014-06-22T07:11:17Z</time>
      </trkpt>
      <trkpt lat="44.61507" lon="5.90894">
        <ele>1607.46</ele>
        <time>2014-06-22T07:11:33Z</time>
      </trkpt>
      <trkpt lat="44.61514" lon="5.90893">
        <ele>1607.46</ele>
        <time>2014-06-22T07:11:44Z</time>
      </trkpt>
      <trkpt lat="44.6153" lon="5.90902">
        <ele>1606.98</ele>
        <time>2014-06-22T07:12:00Z</time>
      </trkpt>
      <trkpt lat="44.61533" lon="5.90907">
        <ele>1606.5</ele>
        <time>2014-06-22T07:12:05Z</time>
      </trkpt>
      <trkpt lat="44.61544" lon="5.90927">
        <ele>1606.98</ele>
        <time>2014-06-22T07:12:22Z</time>
      </trkpt>
      <trkpt lat="44.61546" lon="5.9093">
        <ele>1607.46</ele>
        <time>2014-06-22T07:12:26Z</time>
      </trkpt>
      <trkpt lat="44.61553" lon="5.90936">
        <ele>1607.94</ele>
        <time>2014-06-22T07:12:33Z</time>
      </trkpt>
      <trkpt lat="44.61564" lon="5.90946">
        <ele>1607.94</ele>
        <time>2014-06-22T07:12:47Z</time>
      </trkpt>
      <trkpt lat="44.61569" lon="5.90952">
        <ele>1607.46</ele>
        <time>2014-06-22T07:12:53Z</time>
      </trkpt>
      <trkpt lat="44.61575" lon="5.90954">
        <ele>1608.42</ele>
        <time>2014-06-22T07:12:59Z</time>
      </trkpt>
      <trkpt lat="44.61579" lon="5.90959">
        <ele>1607.94</ele>
        <time>2014-06-22T07:13:04Z</time>
      </trkpt>
      <trkpt lat="44.61587" lon="5.90976">
        <ele>1606.02</ele>
        <time>2014-06-22T07:13:21Z</time>
      </trkpt>
      <trkpt lat="44.61592" lon="5.90977">
        <ele>1606.98</ele>
        <time>2014-06-22T07:13:35Z</time>
      </trkpt>
      <trkpt lat="44.61596" lon="5.90983">
        <ele>1607.94</ele>
        <time>2014-06-22T07:13:51Z</time>
      </trkpt>
      <trkpt lat="44.61597" lon="5.90983">
        <ele>1607.46</ele>
        <time>2014-06-22T07:14:09Z</time>
      </trkpt>
      <trkpt lat="44.61597" lon="5.90983">
        <ele>1606.98</ele>
        <time>2014-06-22T07:14:27Z</time>
      </trkpt>
      <trkpt lat="44.61597" lon="5.90983">
        <ele>1606.98</ele>
        <time>2014-06-22T07:14:58Z</time>
      </trkpt>
      <trkpt lat="44.61597" lon="5.90983">
        <ele>1606.98</ele>
        <time>2014-06-22T07:15:20Z</time>
      </trkpt>
      <trkpt lat="44.61596" lon="5.90986">
        <ele>1607.46</ele>
        <time>2014-06-22T07:15:39Z</time>
      </trkpt>
      <trkpt lat="44.61597" lon="5.90992">
        <ele>1607.94</ele>
        <time>2014-06-22T07:15:44Z</time>
      </trkpt>
      <trkpt lat="44.61595" lon="5.91016">
        <ele>1606.98</ele>
        <time>2014-06-22T07:15:59Z</time>
      </trkpt>
      <trkpt lat="44.61589" lon="5.9103">
        <ele>1607.46</ele>
        <time>2014-06-22T07:16:13Z</time>
      </trkpt>
      <trkpt lat="44.61587" lon="5.91036">
        <ele>1606.5</ele>
        <time>2014-06-22T07:16:19Z</time>
      </trkpt>
      <trkpt lat="44.61583" lon="5.91052">
        <ele>1606.02</ele>
        <time>2014-06-22T07:16:31Z</time>
      </trkpt>
      <trkpt lat="44.61583" lon="5.91056">
        <ele>1606.98</ele>
        <time>2014-06-22T07:16:35Z</time>
      </trkpt>
      <trkpt lat="44.61585" lon="5.91076">
        <ele>1606.5</ele>
        <time>2014-06-22T07:16:49Z</time>
      </trkpt>
      <trkpt lat="44.61586" lon="5.91097">
        <ele>1606.02</ele>
        <time>2014-06-22T07:17:05Z</time>
      </trkpt>
      <trkpt lat="44.6159" lon="5.91119">
        <ele>1604.58</ele>
        <time>2014-06-22T07:17:23Z</time>
      </trkpt>
      <trkpt lat="44.6159" lon="5.91123">
        <ele>1604.58</ele>
        <time>2014-06-22T07:17:26Z</time>
      </trkpt>
      <trkpt lat="44.61599" lon="5.91144">
        <ele>1605.54</ele>
        <time>2014-06-22T07:17:41Z</time>
      </trkpt>
      <trkpt lat="44.61597" lon="5.91159">
        <ele>1606.5</ele>
        <time>2014-06-22T07:17:57Z</time>
      </trkpt>
      <trkpt lat="44.61601" lon="5.91162">
        <ele>1608.42</ele>
        <time>2014-06-22T07:18:13Z</time>
      </trkpt>
      <trkpt lat="44.61602" lon="5.91162">
        <ele>1609.86</ele>
        <time>2014-06-22T07:18:20Z</time>
      </trkpt>
      <trkpt lat="44.61601" lon="5.91168">
        <ele>1610.35</ele>
        <time>2014-06-22T07:18:25Z</time>
      </trkpt>
      <trkpt lat="44.61601" lon="5.91174">
        <ele>1611.31</ele>
        <time>2014-06-22T07:18:33Z</time>
      </trkpt>
      <trkpt lat="44.616" lon="5.91188">
        <ele>1613.23</ele>
        <time>2014-06-22T07:18:50Z</time>
      </trkpt>
      <trkpt lat="44.616" lon="5.91191">
        <ele>1614.19</ele>
        <time>2014-06-22T07:18:57Z</time>
      </trkpt>
      <trkpt lat="44.61599" lon="5.91201">
        <ele>1616.59</ele>
        <time>2014-06-22T07:19:13Z</time>
      </trkpt>
      <trkpt lat="44.61604" lon="5.91203">
        <ele>1618.04</ele>
        <time>2014-06-22T07:19:28Z</time>
      </trkpt>
      <trkpt lat="44.61602" lon="5.91214">
        <ele>1619.96</ele>
        <time>2014-06-22T07:19:44Z</time>
      </trkpt>
      <trkpt lat="44.61606" lon="5.91227">
        <ele>1622.36</ele>
        <time>2014-06-22T07:20:00Z</time>
      </trkpt>
      <trkpt lat="44.61606" lon="5.9124">
        <ele>1623.8</ele>
        <time>2014-06-22T07:20:16Z</time>
      </trkpt>
      <trkpt lat="44.61608" lon="5.91245">
        <ele>1625.73</ele>
        <time>2014-06-22T07:20:29Z</time>
      </trkpt>
      <trkpt lat="44.61605" lon="5.9125">
        <ele>1627.17</ele>
        <time>2014-06-22T07:20:45Z</time>
      </trkpt>
      <trkpt lat="44.61607" lon="5.91261">
        <ele>1629.09</ele>
        <time>2014-06-22T07:21:04Z</time>
      </trkpt>
      <trkpt lat="44.61608" lon="5.91274">
        <ele>1631.49</ele>
        <time>2014-06-22T07:21:20Z</time>
      </trkpt>
      <trkpt lat="44.61608" lon="5.91273">
        <ele>1632.46</ele>
        <time>2014-06-22T07:21:28Z</time>
      </trkpt>
      <trkpt lat="44.61613" lon="5.91262">
        <ele>1634.38</ele>
        <time>2014-06-22T07:21:45Z</time>
      </trkpt>
      <trkpt lat="44.61615" lon="5.91261">
        <ele>1635.82</ele>
        <time>2014-06-22T07:22:02Z</time>
      </trkpt>
      <trkpt lat="44.61618" lon="5.91259">
        <ele>1636.78</ele>
        <time>2014-06-22T07:22:06Z</time>
      </trkpt>
      <trkpt lat="44.6162" lon="5.91258">
        <ele>1637.74</ele>
        <time>2014-06-22T07:22:21Z</time>
      </trkpt>
      <trkpt lat="44.61627" lon="5.9125">
        <ele>1639.19</ele>
        <time>2014-06-22T07:22:34Z</time>
      </trkpt>
      <trkpt lat="44.61634" lon="5.91242">
        <ele>1641.11</ele>
        <time>2014-06-22T07:22:50Z</time>
      </trkpt>
      <trkpt lat="44.61639" lon="5.91247">
        <ele>1642.55</ele>
        <time>2014-06-22T07:23:04Z</time>
      </trkpt>
      <trkpt lat="44.61637" lon="5.91261">
        <ele>1644.47</ele>
        <time>2014-06-22T07:23:21Z</time>
      </trkpt>
      <trkpt lat="44.61638" lon="5.91273">
        <ele>1645.91</ele>
        <time>2014-06-22T07:23:36Z</time>
      </trkpt>
      <trkpt lat="44.61638" lon="5.91283">
        <ele>1647.84</ele>
        <time>2014-06-22T07:23:51Z</time>
      </trkpt>
      <trkpt lat="44.61638" lon="5.91284">
        <ele>1649.76</ele>
        <time>2014-06-22T07:24:06Z</time>
      </trkpt>
      <trkpt lat="44.61638" lon="5.91284">
        <ele>1650.24</ele>
        <time>2014-06-22T07:24:25Z</time>
      </trkpt>
      <trkpt lat="44.61647" lon="5.9127">
        <ele>1651.68</ele>
        <time>2014-06-22T07:24:41Z</time>
      </trkpt>
      <trkpt lat="44.61654" lon="5.91266">
        <ele>1653.6</ele>
        <time>2014-06-22T07:24:57Z</time>
      </trkpt>
      <trkpt lat="44.6166" lon="5.91256">
        <ele>1655.53</ele>
        <time>2014-06-22T07:25:11Z</time>
      </trkpt>
      <trkpt lat="44.61662" lon="5.91244">
        <ele>1656.97</ele>
        <time>2014-06-22T07:25:25Z</time>
      </trkpt>
      <trkpt lat="44.61665" lon="5.91232">
        <ele>1658.41</ele>
        <time>2014-06-22T07:25:39Z</time>
      </trkpt>
      <trkpt lat="44.61667" lon="5.91223">
        <ele>1660.33</ele>
        <time>2014-06-22T07:25:55Z</time>
      </trkpt>
      <trkpt lat="44.6167" lon="5.91209">
        <ele>1662.26</ele>
        <time>2014-06-22T07:26:12Z</time>
      </trkpt>
      <trkpt lat="44.61671" lon="5.91202">
        <ele>1663.7</ele>
        <time>2014-06-22T07:26:27Z</time>
      </trkpt>
      <trkpt lat="44.61673" lon="5.91192">
        <ele>1666.58</ele>
        <time>2014-06-22T07:26:43Z</time>
      </trkpt>
      <trkpt lat="44.61677" lon="5.91192">
        <ele>1667.54</ele>
        <time>2014-06-22T07:26:58Z</time>
      </trkpt>
      <trkpt lat="44.61679" lon="5.91194">
        <ele>1669.95</ele>
        <time>2014-06-22T07:27:13Z</time>
      </trkpt>
      <trkpt lat="44.61686" lon="5.912">
        <ele>1670.91</ele>
        <time>2014-06-22T07:27:27Z</time>
      </trkpt>
      <trkpt lat="44.61692" lon="5.91206">
        <ele>1673.79</ele>
        <time>2014-06-22T07:27:44Z</time>
      </trkpt>
      <trkpt lat="44.61697" lon="5.91215">
        <ele>1676.2</ele>
        <time>2014-06-22T07:28:02Z</time>
      </trkpt>
      <trkpt lat="44.617" lon="5.91221">
        <ele>1678.6</ele>
        <time>2014-06-22T07:28:19Z</time>
      </trkpt>
      <trkpt lat="44.61704" lon="5.91227">
        <ele>1681</ele>
        <time>2014-06-22T07:28:38Z</time>
      </trkpt>
      <trkpt lat="44.6171" lon="5.91235">
        <ele>1681.96</ele>
        <time>2014-06-22T07:28:54Z</time>
      </trkpt>
      <trkpt lat="44.61713" lon="5.91242">
        <ele>1684.37</ele>
        <time>2014-06-22T07:29:08Z</time>
      </trkpt>
      <trkpt lat="44.61717" lon="5.91249">
        <ele>1685.81</ele>
        <time>2014-06-22T07:29:24Z</time>
      </trkpt>
      <trkpt lat="44.61721" lon="5.91256">
        <ele>1687.73</ele>
        <time>2014-06-22T07:29:38Z</time>
      </trkpt>
      <trkpt lat="44.61727" lon="5.91264">
        <ele>1689.65</ele>
        <time>2014-06-22T07:29:56Z</time>
      </trkpt>
      <trkpt lat="44.61731" lon="5.91275">
        <ele>1691.1</ele>
        <time>2014-06-22T07:30:12Z</time>
      </trkpt>
      <trkpt lat="44.61734" lon="5.91277">
        <ele>1693.5</ele>
        <time>2014-06-22T07:30:27Z</time>
      </trkpt>
      <trkpt lat="44.61737" lon="5.91266">
        <ele>1695.9</ele>
        <time>2014-06-22T07:30:42Z</time>
      </trkpt>
      <trkpt lat="44.61736" lon="5.91263">
        <ele>1695.42</ele>
        <time>2014-06-22T07:30:45Z</time>
      </trkpt>
      <trkpt lat="44.61738" lon="5.91248">
        <ele>1696.38</ele>
        <time>2014-06-22T07:30:59Z</time>
      </trkpt>
      <trkpt lat="44.61739" lon="5.91236">
        <ele>1699.27</ele>
        <time>2014-06-22T07:31:13Z</time>
      </trkpt>
      <trkpt lat="44.61739" lon="5.91223">
        <ele>1701.19</ele>
        <time>2014-06-22T07:31:29Z</time>
      </trkpt>
      <trkpt lat="44.61739" lon="5.9122">
        <ele>1701.67</ele>
        <time>2014-06-22T07:31:31Z</time>
      </trkpt>
      <trkpt lat="44.61738" lon="5.9121">
        <ele>1703.59</ele>
        <time>2014-06-22T07:31:48Z</time>
      </trkpt>
      <trkpt lat="44.61737" lon="5.91205">
        <ele>1704.55</ele>
        <time>2014-06-22T07:32:03Z</time>
      </trkpt>
      <trkpt lat="44.61737" lon="5.91199">
        <ele>1707.44</ele>
        <time>2014-06-22T07:32:17Z</time>
      </trkpt>
      <trkpt lat="44.61738" lon="5.91189">
        <ele>1709.36</ele>
        <time>2014-06-22T07:32:31Z</time>
      </trkpt>
      <trkpt lat="44.61739" lon="5.91172">
        <ele>1711.28</ele>
        <time>2014-06-22T07:32:47Z</time>
      </trkpt>
      <trkpt lat="44.61739" lon="5.9117">
        <ele>1712.25</ele>
        <time>2014-06-22T07:32:49Z</time>
      </trkpt>
      <trkpt lat="44.61744" lon="5.91166">
        <ele>1713.69</ele>
        <time>2014-06-22T07:33:03Z</time>
      </trkpt>
      <trkpt lat="44.61747" lon="5.91165">
        <ele>1715.13</ele>
        <time>2014-06-22T07:33:17Z</time>
      </trkpt>
      <trkpt lat="44.6175" lon="5.91168">
        <ele>1716.57</ele>
        <time>2014-06-22T07:33:26Z</time>
      </trkpt>
      <trkpt lat="44.61755" lon="5.91171">
        <ele>1718.49</ele>
        <time>2014-06-22T07:33:41Z</time>
      </trkpt>
      <trkpt lat="44.61759" lon="5.91175">
        <ele>1719.46</ele>
        <time>2014-06-22T07:34:00Z</time>
      </trkpt>
      <trkpt lat="44.61763" lon="5.9118">
        <ele>1721.38</ele>
        <time>2014-06-22T07:34:15Z</time>
      </trkpt>
      <trkpt lat="44.61766" lon="5.91182">
        <ele>1723.78</ele>
        <time>2014-06-22T07:34:28Z</time>
      </trkpt>
      <trkpt lat="44.61771" lon="5.91186">
        <ele>1724.74</ele>
        <time>2014-06-22T07:34:41Z</time>
      </trkpt>
      <trkpt lat="44.61776" lon="5.91191">
        <ele>1727.63</ele>
        <time>2014-06-22T07:34:57Z</time>
      </trkpt>
      <trkpt lat="44.61778" lon="5.91193">
        <ele>1728.59</ele>
        <time>2014-06-22T07:35:02Z</time>
      </trkpt>
      <trkpt lat="44.61783" lon="5.912">
        <ele>1730.51</ele>
        <time>2014-06-22T07:35:18Z</time>
      </trkpt>
      <trkpt lat="44.61787" lon="5.91204">
        <ele>1732.43</ele>
        <time>2014-06-22T07:35:33Z</time>
      </trkpt>
      <trkpt lat="44.61789" lon="5.91206">
        <ele>1734.36</ele>
        <time>2014-06-22T07:35:48Z</time>
      </trkpt>
      <trkpt lat="44.61789" lon="5.91191">
        <ele>1735.8</ele>
        <time>2014-06-22T07:36:03Z</time>
      </trkpt>
      <trkpt lat="44.61791" lon="5.91182">
        <ele>1737.24</ele>
        <time>2014-06-22T07:36:17Z</time>
      </trkpt>
      <trkpt lat="44.61791" lon="5.91173">
        <ele>1738.68</ele>
        <time>2014-06-22T07:36:31Z</time>
      </trkpt>
      <trkpt lat="44.61795" lon="5.91172">
        <ele>1740.6</ele>
        <time>2014-06-22T07:36:47Z</time>
      </trkpt>
      <trkpt lat="44.61799" lon="5.91177">
        <ele>1743.01</ele>
        <time>2014-06-22T07:37:03Z</time>
      </trkpt>
      <trkpt lat="44.61804" lon="5.91182">
        <ele>1744.93</ele>
        <time>2014-06-22T07:37:18Z</time>
      </trkpt>
      <trkpt lat="44.61809" lon="5.91188">
        <ele>1746.37</ele>
        <time>2014-06-22T07:37:33Z</time>
      </trkpt>
      <trkpt lat="44.61815" lon="5.91194">
        <ele>1748.29</ele>
        <time>2014-06-22T07:37:51Z</time>
      </trkpt>
      <trkpt lat="44.61819" lon="5.91201">
        <ele>1750.7</ele>
        <time>2014-06-22T07:38:06Z</time>
      </trkpt>
      <trkpt lat="44.61825" lon="5.91208">
        <ele>1752.62</ele>
        <time>2014-06-22T07:38:23Z</time>
      </trkpt>
      <trkpt lat="44.6183" lon="5.91217">
        <ele>1754.54</ele>
        <time>2014-06-22T07:38:39Z</time>
      </trkpt>
      <trkpt lat="44.61831" lon="5.91217">
        <ele>1757.43</ele>
        <time>2014-06-22T07:38:55Z</time>
      </trkpt>
      <trkpt lat="44.61832" lon="5.91202">
        <ele>1758.39</ele>
        <time>2014-06-22T07:39:11Z</time>
      </trkpt>
      <trkpt lat="44.61832" lon="5.91187">
        <ele>1760.79</ele>
        <time>2014-06-22T07:39:28Z</time>
      </trkpt>
      <trkpt lat="44.61831" lon="5.91172">
        <ele>1762.23</ele>
        <time>2014-06-22T07:39:44Z</time>
      </trkpt>
      <trkpt lat="44.61831" lon="5.9116">
        <ele>1764.16</ele>
        <time>2014-06-22T07:39:59Z</time>
      </trkpt>
      <trkpt lat="44.61831" lon="5.91154">
        <ele>1765.12</ele>
        <time>2014-06-22T07:40:15Z</time>
      </trkpt>
      <trkpt lat="44.61831" lon="5.91145">
        <ele>1766.56</ele>
        <time>2014-06-22T07:40:29Z</time>
      </trkpt>
      <trkpt lat="44.61829" lon="5.91135">
        <ele>1768</ele>
        <time>2014-06-22T07:40:42Z</time>
      </trkpt>
      <trkpt lat="44.61826" lon="5.91124">
        <ele>1769.44</ele>
        <time>2014-06-22T07:40:57Z</time>
      </trkpt>
      <trkpt lat="44.61824" lon="5.91113">
        <ele>1770.89</ele>
        <time>2014-06-22T07:41:11Z</time>
      </trkpt>
      <trkpt lat="44.61824" lon="5.91113">
        <ele>1771.37</ele>
        <time>2014-06-22T07:41:12Z</time>
      </trkpt>
      <trkpt lat="44.6182" lon="5.91101">
        <ele>1772.81</ele>
        <time>2014-06-22T07:41:26Z</time>
      </trkpt>
      <trkpt lat="44.6182" lon="5.91091">
        <ele>1774.25</ele>
        <time>2014-06-22T07:41:42Z</time>
      </trkpt>
      <trkpt lat="44.61819" lon="5.91077">
        <ele>1776.17</ele>
        <time>2014-06-22T07:41:57Z</time>
      </trkpt>
      <trkpt lat="44.61822" lon="5.91067">
        <ele>1778.1</ele>
        <time>2014-06-22T07:42:12Z</time>
      </trkpt>
      <trkpt lat="44.61825" lon="5.91058">
        <ele>1780.5</ele>
        <time>2014-06-22T07:42:27Z</time>
      </trkpt>
      <trkpt lat="44.61825" lon="5.91043">
        <ele>1782.42</ele>
        <time>2014-06-22T07:42:44Z</time>
      </trkpt>
      <trkpt lat="44.61826" lon="5.91034">
        <ele>1784.82</ele>
        <time>2014-06-22T07:43:01Z</time>
      </trkpt>
      <trkpt lat="44.61828" lon="5.91025">
        <ele>1786.27</ele>
        <time>2014-06-22T07:43:17Z</time>
      </trkpt>
      <trkpt lat="44.61828" lon="5.91014">
        <ele>1788.67</ele>
        <time>2014-06-22T07:43:33Z</time>
      </trkpt>
      <trkpt lat="44.61826" lon="5.91001">
        <ele>1790.59</ele>
        <time>2014-06-22T07:43:49Z</time>
      </trkpt>
      <trkpt lat="44.61825" lon="5.9099">
        <ele>1792.03</ele>
        <time>2014-06-22T07:44:05Z</time>
      </trkpt>
      <trkpt lat="44.61826" lon="5.90981">
        <ele>1793.96</ele>
        <time>2014-06-22T07:44:20Z</time>
      </trkpt>
      <trkpt lat="44.61825" lon="5.9097">
        <ele>1795.4</ele>
        <time>2014-06-22T07:44:36Z</time>
      </trkpt>
      <trkpt lat="44.61825" lon="5.90961">
        <ele>1797.8</ele>
        <time>2014-06-22T07:44:53Z</time>
      </trkpt>
      <trkpt lat="44.61829" lon="5.90952">
        <ele>1799.73</ele>
        <time>2014-06-22T07:45:09Z</time>
      </trkpt>
      <trkpt lat="44.61833" lon="5.9094">
        <ele>1800.69</ele>
        <time>2014-06-22T07:45:24Z</time>
      </trkpt>
      <trkpt lat="44.61836" lon="5.90934">
        <ele>1802.61</ele>
        <time>2014-06-22T07:45:39Z</time>
      </trkpt>
      <trkpt lat="44.61836" lon="5.90934">
        <ele>1802.13</ele>
        <time>2014-06-22T07:45:40Z</time>
      </trkpt>
      <trkpt lat="44.61842" lon="5.90931">
        <ele>1803.57</ele>
        <time>2014-06-22T07:45:58Z</time>
      </trkpt>
      <trkpt lat="44.61842" lon="5.90931">
        <ele>1803.57</ele>
        <time>2014-06-22T07:46:18Z</time>
      </trkpt>
      <trkpt lat="44.61845" lon="5.90935">
        <ele>1805.01</ele>
        <time>2014-06-22T07:46:33Z</time>
      </trkpt>
      <trkpt lat="44.61847" lon="5.90941">
        <ele>1805.97</ele>
        <time>2014-06-22T07:46:49Z</time>
      </trkpt>
      <trkpt lat="44.61848" lon="5.90942">
        <ele>1807.42</ele>
        <time>2014-06-22T07:46:54Z</time>
      </trkpt>
      <trkpt lat="44.61852" lon="5.90945">
        <ele>1807.42</ele>
        <time>2014-06-22T07:46:59Z</time>
      </trkpt>
      <trkpt lat="44.61858" lon="5.90948">
        <ele>1808.38</ele>
        <time>2014-06-22T07:47:09Z</time>
      </trkpt>
      <trkpt lat="44.61869" lon="5.90953">
        <ele>1810.78</ele>
        <time>2014-06-22T07:47:25Z</time>
      </trkpt>
      <trkpt lat="44.61876" lon="5.90963">
        <ele>1812.22</ele>
        <time>2014-06-22T07:47:41Z</time>
      </trkpt>
      <trkpt lat="44.61884" lon="5.90974">
        <ele>1814.63</ele>
        <time>2014-06-22T07:47:58Z</time>
      </trkpt>
      <trkpt lat="44.61887" lon="5.9098">
        <ele>1816.07</ele>
        <time>2014-06-22T07:48:13Z</time>
      </trkpt>
      <trkpt lat="44.61896" lon="5.90986">
        <ele>1817.51</ele>
        <time>2014-06-22T07:48:30Z</time>
      </trkpt>
      <trkpt lat="44.61903" lon="5.90987">
        <ele>1818.95</ele>
        <time>2014-06-22T07:48:47Z</time>
      </trkpt>
      <trkpt lat="44.61906" lon="5.90989">
        <ele>1819.91</ele>
        <time>2014-06-22T07:49:02Z</time>
      </trkpt>
      <trkpt lat="44.61905" lon="5.90989">
        <ele>1820.39</ele>
        <time>2014-06-22T07:49:25Z</time>
      </trkpt>
      <trkpt lat="44.61908" lon="5.90995">
        <ele>1822.8</ele>
        <time>2014-06-22T07:49:42Z</time>
      </trkpt>
      <trkpt lat="44.6191" lon="5.91">
        <ele>1824.72</ele>
        <time>2014-06-22T07:49:59Z</time>
      </trkpt>
      <trkpt lat="44.61912" lon="5.91001">
        <ele>1825.2</ele>
        <time>2014-06-22T07:50:05Z</time>
      </trkpt>
      <trkpt lat="44.61923" lon="5.91003">
        <ele>1827.12</ele>
        <time>2014-06-22T07:50:20Z</time>
      </trkpt>
      <trkpt lat="44.61929" lon="5.91006">
        <ele>1827.6</ele>
        <time>2014-06-22T07:50:28Z</time>
      </trkpt>
      <trkpt lat="44.61939" lon="5.91018">
        <ele>1830.01</ele>
        <time>2014-06-22T07:50:46Z</time>
      </trkpt>
      <trkpt lat="44.61944" lon="5.91026">
        <ele>1830.97</ele>
        <time>2014-06-22T07:50:57Z</time>
      </trkpt>
      <trkpt lat="44.61947" lon="5.91033">
        <ele>1832.41</ele>
        <time>2014-06-22T07:51:07Z</time>
      </trkpt>
      <trkpt lat="44.61956" lon="5.91042">
        <ele>1834.81</ele>
        <time>2014-06-22T07:51:23Z</time>
      </trkpt>
      <trkpt lat="44.61959" lon="5.91048">
        <ele>1835.77</ele>
        <time>2014-06-22T07:51:33Z</time>
      </trkpt>
      <trkpt lat="44.6196" lon="5.91052">
        <ele>1835.29</ele>
        <time>2014-06-22T07:51:36Z</time>
      </trkpt>
      <trkpt lat="44.61961" lon="5.91067">
        <ele>1838.18</ele>
        <time>2014-06-22T07:51:54Z</time>
      </trkpt>
      <trkpt lat="44.61961" lon="5.91079">
        <ele>1839.14</ele>
        <time>2014-06-22T07:52:09Z</time>
      </trkpt>
      <trkpt lat="44.61962" lon="5.91089">
        <ele>1840.1</ele>
        <time>2014-06-22T07:52:24Z</time>
      </trkpt>
      <trkpt lat="44.61965" lon="5.911">
        <ele>1841.54</ele>
        <time>2014-06-22T07:52:39Z</time>
      </trkpt>
      <trkpt lat="44.61971" lon="5.91107">
        <ele>1842.98</ele>
        <time>2014-06-22T07:52:54Z</time>
      </trkpt>
      <trkpt lat="44.61973" lon="5.91116">
        <ele>1844.91</ele>
        <time>2014-06-22T07:53:10Z</time>
      </trkpt>
      <trkpt lat="44.61975" lon="5.91127">
        <ele>1846.35</ele>
        <time>2014-06-22T07:53:25Z</time>
      </trkpt>
      <trkpt lat="44.61976" lon="5.91131">
        <ele>1847.79</ele>
        <time>2014-06-22T07:53:38Z</time>
      </trkpt>
      <trkpt lat="44.61976" lon="5.91133">
        <ele>1847.79</ele>
        <time>2014-06-22T07:53:42Z</time>
      </trkpt>
      <trkpt lat="44.61979" lon="5.91145">
        <ele>1849.23</ele>
        <time>2014-06-22T07:53:58Z</time>
      </trkpt>
      <trkpt lat="44.61983" lon="5.91157">
        <ele>1850.68</ele>
        <time>2014-06-22T07:54:14Z</time>
      </trkpt>
      <trkpt lat="44.61986" lon="5.91168">
        <ele>1852.6</ele>
        <time>2014-06-22T07:54:29Z</time>
      </trkpt>
      <trkpt lat="44.6199" lon="5.9118">
        <ele>1854.04</ele>
        <time>2014-06-22T07:54:44Z</time>
      </trkpt>
      <trkpt lat="44.61996" lon="5.9119">
        <ele>1855.48</ele>
        <time>2014-06-22T07:55:01Z</time>
      </trkpt>
      <trkpt lat="44.62" lon="5.91197">
        <ele>1856.92</ele>
        <time>2014-06-22T07:55:15Z</time>
      </trkpt>
      <trkpt lat="44.62001" lon="5.91211">
        <ele>1857.4</ele>
        <time>2014-06-22T07:55:30Z</time>
      </trkpt>
      <trkpt lat="44.62004" lon="5.91221">
        <ele>1858.85</ele>
        <time>2014-06-22T07:55:44Z</time>
      </trkpt>
      <trkpt lat="44.62008" lon="5.91233">
        <ele>1859.81</ele>
        <time>2014-06-22T07:55:59Z</time>
      </trkpt>
      <trkpt lat="44.62009" lon="5.91243">
        <ele>1861.73</ele>
        <time>2014-06-22T07:56:14Z</time>
      </trkpt>
      <trkpt lat="44.6201" lon="5.91253">
        <ele>1863.17</ele>
        <time>2014-06-22T07:56:30Z</time>
      </trkpt>
      <trkpt lat="44.6201" lon="5.91266">
        <ele>1863.65</ele>
        <time>2014-06-22T07:56:45Z</time>
      </trkpt>
      <trkpt lat="44.62013" lon="5.91277">
        <ele>1865.09</ele>
        <time>2014-06-22T07:57:00Z</time>
      </trkpt>
      <trkpt lat="44.62014" lon="5.91286">
        <ele>1867.02</ele>
        <time>2014-06-22T07:57:14Z</time>
      </trkpt>
      <trkpt lat="44.62014" lon="5.91296">
        <ele>1868.46</ele>
        <time>2014-06-22T07:57:29Z</time>
      </trkpt>
      <trkpt lat="44.62015" lon="5.91298">
        <ele>1869.42</ele>
        <time>2014-06-22T07:57:34Z</time>
      </trkpt>
      <trkpt lat="44.62015" lon="5.91305">
        <ele>1871.34</ele>
        <time>2014-06-22T07:57:51Z</time>
      </trkpt>
      <trkpt lat="44.62016" lon="5.91309">
        <ele>1873.27</ele>
        <time>2014-06-22T07:58:06Z</time>
      </trkpt>
      <trkpt lat="44.62017" lon="5.91312">
        <ele>1875.67</ele>
        <time>2014-06-22T07:58:24Z</time>
      </trkpt>
      <trkpt lat="44.62019" lon="5.91315">
        <ele>1877.59</ele>
        <time>2014-06-22T07:58:36Z</time>
      </trkpt>
      <trkpt lat="44.6202" lon="5.91317">
        <ele>1878.07</ele>
        <time>2014-06-22T07:58:56Z</time>
      </trkpt>
      <trkpt lat="44.62021" lon="5.91323">
        <ele>1879.51</ele>
        <time>2014-06-22T07:59:12Z</time>
      </trkpt>
      <trkpt lat="44.62021" lon="5.91325">
        <ele>1880.96</ele>
        <time>2014-06-22T07:59:32Z</time>
      </trkpt>
      <trkpt lat="44.62022" lon="5.91333">
        <ele>1883.36</ele>
        <time>2014-06-22T07:59:49Z</time>
      </trkpt>
      <trkpt lat="44.62027" lon="5.91345">
        <ele>1884.8</ele>
        <time>2014-06-22T08:00:03Z</time>
      </trkpt>
      <trkpt lat="44.62029" lon="5.91353">
        <ele>1886.24</ele>
        <time>2014-06-22T08:00:17Z</time>
      </trkpt>
      <trkpt lat="44.6203" lon="5.91356">
        <ele>1887.21</ele>
        <time>2014-06-22T08:00:33Z</time>
      </trkpt>
      <trkpt lat="44.62032" lon="5.91361">
        <ele>1889.61</ele>
        <time>2014-06-22T08:00:51Z</time>
      </trkpt>
      <trkpt lat="44.62034" lon="5.91367">
        <ele>1891.05</ele>
        <time>2014-06-22T08:01:06Z</time>
      </trkpt>
      <trkpt lat="44.62037" lon="5.91375">
        <ele>1892.49</ele>
        <time>2014-06-22T08:01:23Z</time>
      </trkpt>
      <trkpt lat="44.62038" lon="5.91381">
        <ele>1894.42</ele>
        <time>2014-06-22T08:01:39Z</time>
      </trkpt>
      <trkpt lat="44.62039" lon="5.91385">
        <ele>1895.86</ele>
        <time>2014-06-22T08:01:55Z</time>
      </trkpt>
      <trkpt lat="44.6204" lon="5.91387">
        <ele>1895.86</ele>
        <time>2014-06-22T08:01:57Z</time>
      </trkpt>
      <trkpt lat="44.62042" lon="5.91401">
        <ele>1896.34</ele>
        <time>2014-06-22T08:02:12Z</time>
      </trkpt>
      <trkpt lat="44.62042" lon="5.91413">
        <ele>1897.78</ele>
        <time>2014-06-22T08:02:28Z</time>
      </trkpt>
      <trkpt lat="44.62044" lon="5.91423">
        <ele>1899.7</ele>
        <time>2014-06-22T08:02:44Z</time>
      </trkpt>
      <trkpt lat="44.62046" lon="5.91432">
        <ele>1901.14</ele>
        <time>2014-06-22T08:03:01Z</time>
      </trkpt>
      <trkpt lat="44.62047" lon="5.91441">
        <ele>1902.59</ele>
        <time>2014-06-22T08:03:16Z</time>
      </trkpt>
      <trkpt lat="44.6205" lon="5.91446">
        <ele>1904.51</ele>
        <time>2014-06-22T08:03:31Z</time>
      </trkpt>
      <trkpt lat="44.62055" lon="5.91442">
        <ele>1905.95</ele>
        <time>2014-06-22T08:03:46Z</time>
      </trkpt>
      <trkpt lat="44.62058" lon="5.91439">
        <ele>1907.87</ele>
        <time>2014-06-22T08:04:00Z</time>
      </trkpt>
      <trkpt lat="44.6206" lon="5.91437">
        <ele>1909.32</ele>
        <time>2014-06-22T08:04:12Z</time>
      </trkpt>
      <trkpt lat="44.62061" lon="5.9143">
        <ele>1911.24</ele>
        <time>2014-06-22T08:04:25Z</time>
      </trkpt>
      <trkpt lat="44.62062" lon="5.91428">
        <ele>1912.68</ele>
        <time>2014-06-22T08:04:43Z</time>
      </trkpt>
      <trkpt lat="44.62065" lon="5.91431">
        <ele>1914.6</ele>
        <time>2014-06-22T08:04:57Z</time>
      </trkpt>
      <trkpt lat="44.62069" lon="5.91434">
        <ele>1916.53</ele>
        <time>2014-06-22T08:05:11Z</time>
      </trkpt>
      <trkpt lat="44.62072" lon="5.91437">
        <ele>1917.97</ele>
        <time>2014-06-22T08:05:27Z</time>
      </trkpt>
      <trkpt lat="44.62074" lon="5.91442">
        <ele>1920.37</ele>
        <time>2014-06-22T08:05:43Z</time>
      </trkpt>
      <trkpt lat="44.62078" lon="5.91453">
        <ele>1922.29</ele>
        <time>2014-06-22T08:05:59Z</time>
      </trkpt>
      <trkpt lat="44.62082" lon="5.91459">
        <ele>1924.22</ele>
        <time>2014-06-22T08:06:17Z</time>
      </trkpt>
      <trkpt lat="44.62085" lon="5.91461">
        <ele>1926.14</ele>
        <time>2014-06-22T08:06:30Z</time>
      </trkpt>
      <trkpt lat="44.62087" lon="5.91463">
        <ele>1926.62</ele>
        <time>2014-06-22T08:06:51Z</time>
      </trkpt>
      <trkpt lat="44.62086" lon="5.91463">
        <ele>1926.62</ele>
        <time>2014-06-22T08:07:20Z</time>
      </trkpt>
      <trkpt lat="44.62085" lon="5.91465">
        <ele>1927.1</ele>
        <time>2014-06-22T08:07:49Z</time>
      </trkpt>
      <trkpt lat="44.62084" lon="5.91477">
        <ele>1928.54</ele>
        <time>2014-06-22T08:08:02Z</time>
      </trkpt>
      <trkpt lat="44.62086" lon="5.91485">
        <ele>1929.5</ele>
        <time>2014-06-22T08:08:17Z</time>
      </trkpt>
      <trkpt lat="44.62087" lon="5.91491">
        <ele>1930.95</ele>
        <time>2014-06-22T08:08:27Z</time>
      </trkpt>
      <trkpt lat="44.62085" lon="5.91501">
        <ele>1932.87</ele>
        <time>2014-06-22T08:08:42Z</time>
      </trkpt>
      <trkpt lat="44.62085" lon="5.91512">
        <ele>1934.79</ele>
        <time>2014-06-22T08:08:59Z</time>
      </trkpt>
      <trkpt lat="44.62085" lon="5.91518">
        <ele>1936.23</ele>
        <time>2014-06-22T08:09:13Z</time>
      </trkpt>
      <trkpt lat="44.62086" lon="5.91527">
        <ele>1938.64</ele>
        <time>2014-06-22T08:09:30Z</time>
      </trkpt>
      <trkpt lat="44.62088" lon="5.91534">
        <ele>1940.08</ele>
        <time>2014-06-22T08:09:44Z</time>
      </trkpt>
      <trkpt lat="44.62092" lon="5.91539">
        <ele>1941.52</ele>
        <time>2014-06-22T08:09:58Z</time>
      </trkpt>
      <trkpt lat="44.62094" lon="5.91547">
        <ele>1943.44</ele>
        <time>2014-06-22T08:10:14Z</time>
      </trkpt>
      <trkpt lat="44.62093" lon="5.91557">
        <ele>1945.36</ele>
        <time>2014-06-22T08:10:30Z</time>
      </trkpt>
      <trkpt lat="44.62095" lon="5.91564">
        <ele>1946.33</ele>
        <time>2014-06-22T08:10:44Z</time>
      </trkpt>
      <trkpt lat="44.62095" lon="5.91566">
        <ele>1947.77</ele>
        <time>2014-06-22T08:11:01Z</time>
      </trkpt>
      <trkpt lat="44.62098" lon="5.91574">
        <ele>1949.21</ele>
        <time>2014-06-22T08:11:16Z</time>
      </trkpt>
      <trkpt lat="44.62097" lon="5.91582">
        <ele>1950.65</ele>
        <time>2014-06-22T08:11:32Z</time>
      </trkpt>
      <trkpt lat="44.62099" lon="5.91584">
        <ele>1952.57</ele>
        <time>2014-06-22T08:11:41Z</time>
      </trkpt>
      <trkpt lat="44.62103" lon="5.9159">
        <ele>1954.02</ele>
        <time>2014-06-22T08:11:55Z</time>
      </trkpt>
      <trkpt lat="44.62104" lon="5.91596">
        <ele>1954.98</ele>
        <time>2014-06-22T08:12:09Z</time>
      </trkpt>
      <trkpt lat="44.62105" lon="5.91598">
        <ele>1954.98</ele>
        <time>2014-06-22T08:12:31Z</time>
      </trkpt>
      <trkpt lat="44.6211" lon="5.91607">
        <ele>1956.9</ele>
        <time>2014-06-22T08:12:47Z</time>
      </trkpt>
      <trkpt lat="44.62111" lon="5.91614">
        <ele>1958.82</ele>
        <time>2014-06-22T08:13:01Z</time>
      </trkpt>
      <trkpt lat="44.62114" lon="5.91619">
        <ele>1960.75</ele>
        <time>2014-06-22T08:13:16Z</time>
      </trkpt>
      <trkpt lat="44.62118" lon="5.91625">
        <ele>1962.67</ele>
        <time>2014-06-22T08:13:30Z</time>
      </trkpt>
      <trkpt lat="44.62122" lon="5.91629">
        <ele>1964.11</ele>
        <time>2014-06-22T08:13:45Z</time>
      </trkpt>
      <trkpt lat="44.62127" lon="5.91635">
        <ele>1966.03</ele>
        <time>2014-06-22T08:13:58Z</time>
      </trkpt>
      <trkpt lat="44.62127" lon="5.91636">
        <ele>1967.48</ele>
        <time>2014-06-22T08:14:17Z</time>
      </trkpt>
      <trkpt lat="44.62131" lon="5.9164">
        <ele>1968.92</ele>
        <time>2014-06-22T08:14:32Z</time>
      </trkpt>
      <trkpt lat="44.62135" lon="5.91644">
        <ele>1971.8</ele>
        <time>2014-06-22T08:14:48Z</time>
      </trkpt>
      <trkpt lat="44.62137" lon="5.91651">
        <ele>1973.24</ele>
        <time>2014-06-22T08:15:02Z</time>
      </trkpt>
      <trkpt lat="44.62136" lon="5.91657">
        <ele>1974.2</ele>
        <time>2014-06-22T08:15:16Z</time>
      </trkpt>
      <trkpt lat="44.62137" lon="5.9166">
        <ele>1975.65</ele>
        <time>2014-06-22T08:15:33Z</time>
      </trkpt>
      <trkpt lat="44.62138" lon="5.91665">
        <ele>1978.05</ele>
        <time>2014-06-22T08:15:50Z</time>
      </trkpt>
      <trkpt lat="44.62138" lon="5.9167">
        <ele>1980.45</ele>
        <time>2014-06-22T08:16:06Z</time>
      </trkpt>
      <trkpt lat="44.62138" lon="5.91678">
        <ele>1981.9</ele>
        <time>2014-06-22T08:16:22Z</time>
      </trkpt>
      <trkpt lat="44.62137" lon="5.91684">
        <ele>1983.82</ele>
        <time>2014-06-22T08:16:36Z</time>
      </trkpt>
      <trkpt lat="44.62137" lon="5.91686">
        <ele>1984.78</ele>
        <time>2014-06-22T08:16:50Z</time>
      </trkpt>
      <trkpt lat="44.62138" lon="5.91689">
        <ele>1986.22</ele>
        <time>2014-06-22T08:17:08Z</time>
      </trkpt>
      <trkpt lat="44.62138" lon="5.91689">
        <ele>1987.18</ele>
        <time>2014-06-22T08:17:12Z</time>
      </trkpt>
      <trkpt lat="44.62139" lon="5.91697">
        <ele>1988.14</ele>
        <time>2014-06-22T08:17:29Z</time>
      </trkpt>
      <trkpt lat="44.62138" lon="5.91698">
        <ele>1989.59</ele>
        <time>2014-06-22T08:17:49Z</time>
      </trkpt>
      <trkpt lat="44.62138" lon="5.917">
        <ele>1990.55</ele>
        <time>2014-06-22T08:17:55Z</time>
      </trkpt>
      <trkpt lat="44.62138" lon="5.91718">
        <ele>1992.95</ele>
        <time>2014-06-22T08:18:13Z</time>
      </trkpt>
      <trkpt lat="44.62139" lon="5.91722">
        <ele>1995.35</ele>
        <time>2014-06-22T08:18:29Z</time>
      </trkpt>
      <trkpt lat="44.62142" lon="5.91721">
        <ele>1996.8</ele>
        <time>2014-06-22T08:18:45Z</time>
      </trkpt>
      <trkpt lat="44.6215" lon="5.91721">
        <ele>1998.24</ele>
        <time>2014-06-22T08:19:00Z</time>
      </trkpt>
      <trkpt lat="44.62157" lon="5.9172">
        <ele>2000.64</ele>
        <time>2014-06-22T08:19:15Z</time>
      </trkpt>
      <trkpt lat="44.62165" lon="5.91716">
        <ele>2002.08</ele>
        <time>2014-06-22T08:19:28Z</time>
      </trkpt>
      <trkpt lat="44.62171" lon="5.91711">
        <ele>2002.56</ele>
        <time>2014-06-22T08:19:41Z</time>
      </trkpt>
      <trkpt lat="44.62175" lon="5.91708">
        <ele>2004.49</ele>
        <time>2014-06-22T08:19:55Z</time>
      </trkpt>
      <trkpt lat="44.62176" lon="5.91705">
        <ele>2006.41</ele>
        <time>2014-06-22T08:20:08Z</time>
      </trkpt>
      <trkpt lat="44.62178" lon="5.91705">
        <ele>2007.85</ele>
        <time>2014-06-22T08:20:23Z</time>
      </trkpt>
      <trkpt lat="44.62181" lon="5.91705">
        <ele>2009.29</ele>
        <time>2014-06-22T08:20:37Z</time>
      </trkpt>
      <trkpt lat="44.62183" lon="5.91703">
        <ele>2010.73</ele>
        <time>2014-06-22T08:20:53Z</time>
      </trkpt>
      <trkpt lat="44.62186" lon="5.91699">
        <ele>2013.14</ele>
        <time>2014-06-22T08:21:07Z</time>
      </trkpt>
      <trkpt lat="44.62188" lon="5.91697">
        <ele>2014.1</ele>
        <time>2014-06-22T08:21:23Z</time>
      </trkpt>
      <trkpt lat="44.62191" lon="5.91695">
        <ele>2015.54</ele>
        <time>2014-06-22T08:21:36Z</time>
      </trkpt>
      <trkpt lat="44.62194" lon="5.91692">
        <ele>2017.46</ele>
        <time>2014-06-22T08:21:49Z</time>
      </trkpt>
      <trkpt lat="44.62196" lon="5.91684">
        <ele>2017.94</ele>
        <time>2014-06-22T08:22:04Z</time>
      </trkpt>
      <trkpt lat="44.62197" lon="5.91683">
        <ele>2019.39</ele>
        <time>2014-06-22T08:22:14Z</time>
      </trkpt>
      <trkpt lat="44.62197" lon="5.91683">
        <ele>2021.31</ele>
        <time>2014-06-22T08:22:30Z</time>
      </trkpt>
      <trkpt lat="44.62197" lon="5.91682">
        <ele>2022.27</ele>
        <time>2014-06-22T08:22:46Z</time>
      </trkpt>
      <trkpt lat="44.62198" lon="5.91676">
        <ele>2022.27</ele>
        <time>2014-06-22T08:23:10Z</time>
      </trkpt>
      <trkpt lat="44.62198" lon="5.91674">
        <ele>2023.71</ele>
        <time>2014-06-22T08:23:27Z</time>
      </trkpt>
      <trkpt lat="44.62202" lon="5.91669">
        <ele>2025.15</ele>
        <time>2014-06-22T08:23:45Z</time>
      </trkpt>
      <trkpt lat="44.62204" lon="5.91665">
        <ele>2028.04</ele>
        <time>2014-06-22T08:24:02Z</time>
      </trkpt>
      <trkpt lat="44.62208" lon="5.91656">
        <ele>2029.48</ele>
        <time>2014-06-22T08:24:18Z</time>
      </trkpt>
      <trkpt lat="44.62207" lon="5.9165">
        <ele>2031.4</ele>
        <time>2014-06-22T08:24:35Z</time>
      </trkpt>
      <trkpt lat="44.62206" lon="5.91637">
        <ele>2033.33</ele>
        <time>2014-06-22T08:24:52Z</time>
      </trkpt>
      <trkpt lat="44.62206" lon="5.91634">
        <ele>2034.29</ele>
        <time>2014-06-22T08:25:10Z</time>
      </trkpt>
      <trkpt lat="44.62207" lon="5.91624">
        <ele>2035.73</ele>
        <time>2014-06-22T08:25:25Z</time>
      </trkpt>
      <trkpt lat="44.62211" lon="5.91617">
        <ele>2038.13</ele>
        <time>2014-06-22T08:25:40Z</time>
      </trkpt>
      <trkpt lat="44.62211" lon="5.91613">
        <ele>2039.09</ele>
        <time>2014-06-22T08:25:57Z</time>
      </trkpt>
      <trkpt lat="44.62211" lon="5.91605">
        <ele>2040.54</ele>
        <time>2014-06-22T08:26:11Z</time>
      </trkpt>
      <trkpt lat="44.62212" lon="5.91598">
        <ele>2042.46</ele>
        <time>2014-06-22T08:26:27Z</time>
      </trkpt>
      <trkpt lat="44.62214" lon="5.91592">
        <ele>2043.42</ele>
        <time>2014-06-22T08:26:45Z</time>
      </trkpt>
      <trkpt lat="44.62215" lon="5.91582">
        <ele>2045.34</ele>
        <time>2014-06-22T08:27:01Z</time>
      </trkpt>
      <trkpt lat="44.62219" lon="5.91571">
        <ele>2047.75</ele>
        <time>2014-06-22T08:27:18Z</time>
      </trkpt>
      <trkpt lat="44.62221" lon="5.91566">
        <ele>2048.23</ele>
        <time>2014-06-22T08:27:34Z</time>
      </trkpt>
      <trkpt lat="44.62223" lon="5.91557">
        <ele>2050.63</ele>
        <time>2014-06-22T08:27:58Z</time>
      </trkpt>
      <trkpt lat="44.62227" lon="5.91552">
        <ele>2052.55</ele>
        <time>2014-06-22T08:28:11Z</time>
      </trkpt>
      <trkpt lat="44.6223" lon="5.91544">
        <ele>2053.99</ele>
        <time>2014-06-22T08:28:25Z</time>
      </trkpt>
      <trkpt lat="44.62233" lon="5.91536">
        <ele>2055.92</ele>
        <time>2014-06-22T08:28:39Z</time>
      </trkpt>
      <trkpt lat="44.62239" lon="5.91531">
        <ele>2057.84</ele>
        <time>2014-06-22T08:28:56Z</time>
      </trkpt>
      <trkpt lat="44.62243" lon="5.91527">
        <ele>2059.28</ele>
        <time>2014-06-22T08:29:10Z</time>
      </trkpt>
      <trkpt lat="44.62248" lon="5.91518">
        <ele>2061.2</ele>
        <time>2014-06-22T08:29:25Z</time>
      </trkpt>
      <trkpt lat="44.62251" lon="5.91515">
        <ele>2062.17</ele>
        <time>2014-06-22T08:29:43Z</time>
      </trkpt>
      <trkpt lat="44.62255" lon="5.91509">
        <ele>2064.09</ele>
        <time>2014-06-22T08:30:00Z</time>
      </trkpt>
      <trkpt lat="44.6226" lon="5.91505">
        <ele>2066.49</ele>
        <time>2014-06-22T08:30:16Z</time>
      </trkpt>
      <trkpt lat="44.62261" lon="5.91502">
        <ele>2066.97</ele>
        <time>2014-06-22T08:30:34Z</time>
      </trkpt>
      <trkpt lat="44.62263" lon="5.91497">
        <ele>2068.89</ele>
        <time>2014-06-22T08:30:49Z</time>
      </trkpt>
      <trkpt lat="44.62267" lon="5.91501">
        <ele>2070.82</ele>
        <time>2014-06-22T08:31:04Z</time>
      </trkpt>
      <trkpt lat="44.62268" lon="5.91502">
        <ele>2071.3</ele>
        <time>2014-06-22T08:31:06Z</time>
      </trkpt>
      <trkpt lat="44.62269" lon="5.91507">
        <ele>2072.26</ele>
        <time>2014-06-22T08:31:26Z</time>
      </trkpt>
      <trkpt lat="44.6227" lon="5.91508">
        <ele>2072.74</ele>
        <time>2014-06-22T08:31:53Z</time>
      </trkpt>
      <trkpt lat="44.62274" lon="5.91513">
        <ele>2074.18</ele>
        <time>2014-06-22T08:32:08Z</time>
      </trkpt>
      <trkpt lat="44.62276" lon="5.91517">
        <ele>2075.62</ele>
        <time>2014-06-22T08:32:24Z</time>
      </trkpt>
      <trkpt lat="44.6228" lon="5.91524">
        <ele>2077.55</ele>
        <time>2014-06-22T08:32:42Z</time>
      </trkpt>
      <trkpt lat="44.62282" lon="5.91531">
        <ele>2078.99</ele>
        <time>2014-06-22T08:32:57Z</time>
      </trkpt>
      <trkpt lat="44.62286" lon="5.91542">
        <ele>2081.39</ele>
        <time>2014-06-22T08:33:16Z</time>
      </trkpt>
      <trkpt lat="44.62289" lon="5.91547">
        <ele>2083.31</ele>
        <time>2014-06-22T08:33:31Z</time>
      </trkpt>
      <trkpt lat="44.6229" lon="5.91555">
        <ele>2085.72</ele>
        <time>2014-06-22T08:33:49Z</time>
      </trkpt>
      <trkpt lat="44.62293" lon="5.91555">
        <ele>2087.16</ele>
        <time>2014-06-22T08:34:06Z</time>
      </trkpt>
      <trkpt lat="44.62294" lon="5.91552">
        <ele>2088.12</ele>
        <time>2014-06-22T08:34:23Z</time>
      </trkpt>
      <trkpt lat="44.62295" lon="5.91547">
        <ele>2089.08</ele>
        <time>2014-06-22T08:34:42Z</time>
      </trkpt>
      <trkpt lat="44.62299" lon="5.91534">
        <ele>2091.49</ele>
        <time>2014-06-22T08:34:57Z</time>
      </trkpt>
      <trkpt lat="44.62303" lon="5.91529">
        <ele>2093.89</ele>
        <time>2014-06-22T08:35:13Z</time>
      </trkpt>
      <trkpt lat="44.62306" lon="5.91514">
        <ele>2095.33</ele>
        <time>2014-06-22T08:35:29Z</time>
      </trkpt>
      <trkpt lat="44.62309" lon="5.91504">
        <ele>2096.77</ele>
        <time>2014-06-22T08:35:46Z</time>
      </trkpt>
      <trkpt lat="44.62312" lon="5.91499">
        <ele>2099.18</ele>
        <time>2014-06-22T08:36:02Z</time>
      </trkpt>
      <trkpt lat="44.62312" lon="5.91497">
        <ele>2100.62</ele>
        <time>2014-06-22T08:36:07Z</time>
      </trkpt>
      <trkpt lat="44.62314" lon="5.91489">
        <ele>2101.1</ele>
        <time>2014-06-22T08:36:21Z</time>
      </trkpt>
      <trkpt lat="44.62318" lon="5.9148">
        <ele>2103.02</ele>
        <time>2014-06-22T08:36:37Z</time>
      </trkpt>
      <trkpt lat="44.62319" lon="5.91475">
        <ele>2105.91</ele>
        <time>2014-06-22T08:36:52Z</time>
      </trkpt>
      <trkpt lat="44.62322" lon="5.91469">
        <ele>2106.87</ele>
        <time>2014-06-22T08:37:05Z</time>
      </trkpt>
      <trkpt lat="44.62324" lon="5.91462">
        <ele>2107.83</ele>
        <time>2014-06-22T08:37:20Z</time>
      </trkpt>
      <trkpt lat="44.62324" lon="5.91462">
        <ele>2109.75</ele>
        <time>2014-06-22T08:37:41Z</time>
      </trkpt>
      <trkpt lat="44.62327" lon="5.91457">
        <ele>2111.67</ele>
        <time>2014-06-22T08:37:56Z</time>
      </trkpt>
      <trkpt lat="44.62327" lon="5.91456">
        <ele>2111.67</ele>
        <time>2014-06-22T08:37:57Z</time>
      </trkpt>
      <trkpt lat="44.62327" lon="5.91452">
        <ele>2113.12</ele>
        <time>2014-06-22T08:38:12Z</time>
      </trkpt>
      <trkpt lat="44.6233" lon="5.91443">
        <ele>2115.52</ele>
        <time>2014-06-22T08:38:29Z</time>
      </trkpt>
      <trkpt lat="44.62331" lon="5.91437">
        <ele>2116.96</ele>
        <time>2014-06-22T08:38:48Z</time>
      </trkpt>
      <trkpt lat="44.62338" lon="5.9144">
        <ele>2117.92</ele>
        <time>2014-06-22T08:39:02Z</time>
      </trkpt>
      <trkpt lat="44.62342" lon="5.91448">
        <ele>2119.84</ele>
        <time>2014-06-22T08:39:18Z</time>
      </trkpt>
      <trkpt lat="44.62347" lon="5.91456">
        <ele>2122.25</ele>
        <time>2014-06-22T08:39:34Z</time>
      </trkpt>
      <trkpt lat="44.62348" lon="5.91459">
        <ele>2123.21</ele>
        <time>2014-06-22T08:39:58Z</time>
      </trkpt>
      <trkpt lat="44.62355" lon="5.91463">
        <ele>2125.13</ele>
        <time>2014-06-22T08:40:14Z</time>
      </trkpt>
      <trkpt lat="44.62359" lon="5.91469">
        <ele>2127.53</ele>
        <time>2014-06-22T08:40:32Z</time>
      </trkpt>
      <trkpt lat="44.6236" lon="5.91469">
        <ele>2128.5</ele>
        <time>2014-06-22T08:40:50Z</time>
      </trkpt>
      <trkpt lat="44.62365" lon="5.91476">
        <ele>2130.9</ele>
        <time>2014-06-22T08:41:06Z</time>
      </trkpt>
      <trkpt lat="44.62367" lon="5.91479">
        <ele>2131.38</ele>
        <time>2014-06-22T08:41:10Z</time>
      </trkpt>
      <trkpt lat="44.62372" lon="5.91486">
        <ele>2133.3</ele>
        <time>2014-06-22T08:41:26Z</time>
      </trkpt>
      <trkpt lat="44.62376" lon="5.9149">
        <ele>2134.26</ele>
        <time>2014-06-22T08:41:40Z</time>
      </trkpt>
      <trkpt lat="44.62376" lon="5.91491">
        <ele>2135.23</ele>
        <time>2014-06-22T08:41:59Z</time>
      </trkpt>
      <trkpt lat="44.62378" lon="5.91495">
        <ele>2136.19</ele>
        <time>2014-06-22T08:42:21Z</time>
      </trkpt>
      <trkpt lat="44.62382" lon="5.91503">
        <ele>2138.59</ele>
        <time>2014-06-22T08:42:37Z</time>
      </trkpt>
      <trkpt lat="44.62386" lon="5.91505">
        <ele>2140.51</ele>
        <time>2014-06-22T08:42:54Z</time>
      </trkpt>
      <trkpt lat="44.62388" lon="5.91505">
        <ele>2141.95</ele>
        <time>2014-06-22T08:43:11Z</time>
      </trkpt>
      <trkpt lat="44.62388" lon="5.91506">
        <ele>2142.44</ele>
        <time>2014-06-22T08:43:15Z</time>
      </trkpt>
      <trkpt lat="44.62392" lon="5.9151">
        <ele>2143.4</ele>
        <time>2014-06-22T08:43:33Z</time>
      </trkpt>
      <trkpt lat="44.62398" lon="5.91514">
        <ele>2146.76</ele>
        <time>2014-06-22T08:43:49Z</time>
      </trkpt>
      <trkpt lat="44.624" lon="5.91515">
        <ele>2146.76</ele>
        <time>2014-06-22T08:44:11Z</time>
      </trkpt>
      <trkpt lat="44.62404" lon="5.91518">
        <ele>2149.65</ele>
        <time>2014-06-22T08:44:28Z</time>
      </trkpt>
      <trkpt lat="44.62407" lon="5.91515">
        <ele>2152.53</ele>
        <time>2014-06-22T08:44:45Z</time>
      </trkpt>
      <trkpt lat="44.62408" lon="5.91514">
        <ele>2153.49</ele>
        <time>2014-06-22T08:45:02Z</time>
      </trkpt>
      <trkpt lat="44.62408" lon="5.91507">
        <ele>2154.45</ele>
        <time>2014-06-22T08:45:12Z</time>
      </trkpt>
      <trkpt lat="44.62409" lon="5.91496">
        <ele>2155.41</ele>
        <time>2014-06-22T08:45:26Z</time>
      </trkpt>
      <trkpt lat="44.62411" lon="5.91491">
        <ele>2156.86</ele>
        <time>2014-06-22T08:45:40Z</time>
      </trkpt>
      <trkpt lat="44.62412" lon="5.91484">
        <ele>2158.78</ele>
        <time>2014-06-22T08:45:55Z</time>
      </trkpt>
      <trkpt lat="44.62413" lon="5.91479">
        <ele>2159.26</ele>
        <time>2014-06-22T08:46:11Z</time>
      </trkpt>
      <trkpt lat="44.62413" lon="5.91469">
        <ele>2160.7</ele>
        <time>2014-06-22T08:46:26Z</time>
      </trkpt>
      <trkpt lat="44.62413" lon="5.91464">
        <ele>2161.18</ele>
        <time>2014-06-22T08:46:47Z</time>
      </trkpt>
      <trkpt lat="44.62414" lon="5.91457">
        <ele>2163.1</ele>
        <time>2014-06-22T08:47:01Z</time>
      </trkpt>
      <trkpt lat="44.62415" lon="5.91451">
        <ele>2165.51</ele>
        <time>2014-06-22T08:47:12Z</time>
      </trkpt>
      <trkpt lat="44.62416" lon="5.91448">
        <ele>2166.95</ele>
        <time>2014-06-22T08:47:28Z</time>
      </trkpt>
      <trkpt lat="44.62417" lon="5.91439">
        <ele>2168.87</ele>
        <time>2014-06-22T08:47:40Z</time>
      </trkpt>
      <trkpt lat="44.62418" lon="5.91434">
        <ele>2169.83</ele>
        <time>2014-06-22T08:47:54Z</time>
      </trkpt>
      <trkpt lat="44.6242" lon="5.91429">
        <ele>2172.24</ele>
        <time>2014-06-22T08:48:09Z</time>
      </trkpt>
      <trkpt lat="44.62421" lon="5.91421">
        <ele>2173.68</ele>
        <time>2014-06-22T08:48:24Z</time>
      </trkpt>
      <trkpt lat="44.6242" lon="5.91416">
        <ele>2174.64</ele>
        <time>2014-06-22T08:48:44Z</time>
      </trkpt>
      <trkpt lat="44.62421" lon="5.91409">
        <ele>2176.08</ele>
        <time>2014-06-22T08:48:58Z</time>
      </trkpt>
      <trkpt lat="44.62421" lon="5.91401">
        <ele>2178</ele>
        <time>2014-06-22T08:49:11Z</time>
      </trkpt>
      <trkpt lat="44.62425" lon="5.91401">
        <ele>2178.97</ele>
        <time>2014-06-22T08:49:30Z</time>
      </trkpt>
      <trkpt lat="44.62434" lon="5.91409">
        <ele>2179.93</ele>
        <time>2014-06-22T08:49:46Z</time>
      </trkpt>
      <trkpt lat="44.62439" lon="5.91416">
        <ele>2182.33</ele>
        <time>2014-06-22T08:50:03Z</time>
      </trkpt>
      <trkpt lat="44.62442" lon="5.91419">
        <ele>2183.29</ele>
        <time>2014-06-22T08:50:18Z</time>
      </trkpt>
      <trkpt lat="44.62442" lon="5.91421">
        <ele>2183.29</ele>
        <time>2014-06-22T08:50:44Z</time>
      </trkpt>
      <trkpt lat="44.62447" lon="5.91426">
        <ele>2185.69</ele>
        <time>2014-06-22T08:50:59Z</time>
      </trkpt>
      <trkpt lat="44.62447" lon="5.91426">
        <ele>2186.66</ele>
        <time>2014-06-22T08:51:05Z</time>
      </trkpt>
      <trkpt lat="44.62454" lon="5.91432">
        <ele>2188.58</ele>
        <time>2014-06-22T08:51:23Z</time>
      </trkpt>
      <trkpt lat="44.62459" lon="5.91439">
        <ele>2191.46</ele>
        <time>2014-06-22T08:51:39Z</time>
      </trkpt>
      <trkpt lat="44.6246" lon="5.91441">
        <ele>2191.94</ele>
        <time>2014-06-22T08:51:56Z</time>
      </trkpt>
      <trkpt lat="44.62466" lon="5.91445">
        <ele>2193.87</ele>
        <time>2014-06-22T08:52:11Z</time>
      </trkpt>
      <trkpt lat="44.62472" lon="5.91448">
        <ele>2196.75</ele>
        <time>2014-06-22T08:52:28Z</time>
      </trkpt>
      <trkpt lat="44.62476" lon="5.91456">
        <ele>2197.71</ele>
        <time>2014-06-22T08:52:44Z</time>
      </trkpt>
      <trkpt lat="44.62479" lon="5.91457">
        <ele>2200.11</ele>
        <time>2014-06-22T08:53:06Z</time>
      </trkpt>
      <trkpt lat="44.62485" lon="5.91462">
        <ele>2202.52</ele>
        <time>2014-06-22T08:53:23Z</time>
      </trkpt>
      <trkpt lat="44.6249" lon="5.91469">
        <ele>2203.48</ele>
        <time>2014-06-22T08:53:37Z</time>
      </trkpt>
      <trkpt lat="44.62493" lon="5.9148">
        <ele>2206.36</ele>
        <time>2014-06-22T08:53:55Z</time>
      </trkpt>
      <trkpt lat="44.62494" lon="5.91483">
        <ele>2207.32</ele>
        <time>2014-06-22T08:54:11Z</time>
      </trkpt>
      <trkpt lat="44.62499" lon="5.9149">
        <ele>2209.25</ele>
        <time>2014-06-22T08:54:27Z</time>
      </trkpt>
      <trkpt lat="44.62502" lon="5.915">
        <ele>2211.17</ele>
        <time>2014-06-22T08:54:44Z</time>
      </trkpt>
      <trkpt lat="44.625" lon="5.91514">
        <ele>2211.17</ele>
        <time>2014-06-22T08:54:59Z</time>
      </trkpt>
      <trkpt lat="44.62502" lon="5.91524">
        <ele>2212.61</ele>
        <time>2014-06-22T08:55:17Z</time>
      </trkpt>
      <trkpt lat="44.62503" lon="5.9153">
        <ele>2214.53</ele>
        <time>2014-06-22T08:55:34Z</time>
      </trkpt>
      <trkpt lat="44.62507" lon="5.91537">
        <ele>2216.46</ele>
        <time>2014-06-22T08:55:52Z</time>
      </trkpt>
      <trkpt lat="44.62507" lon="5.91534">
        <ele>2217.42</ele>
        <time>2014-06-22T08:56:07Z</time>
      </trkpt>
      <trkpt lat="44.62509" lon="5.91524">
        <ele>2219.34</ele>
        <time>2014-06-22T08:56:21Z</time>
      </trkpt>
      <trkpt lat="44.62512" lon="5.9152">
        <ele>2221.74</ele>
        <time>2014-06-22T08:56:36Z</time>
      </trkpt>
      <trkpt lat="44.62513" lon="5.91522">
        <ele>2222.71</ele>
        <time>2014-06-22T08:56:56Z</time>
      </trkpt>
      <trkpt lat="44.62514" lon="5.91524">
        <ele>2223.67</ele>
        <time>2014-06-22T08:57:19Z</time>
      </trkpt>
      <trkpt lat="44.62519" lon="5.91533">
        <ele>2226.07</ele>
        <time>2014-06-22T08:57:38Z</time>
      </trkpt>
      <trkpt lat="44.6252" lon="5.91531">
        <ele>2227.99</ele>
        <time>2014-06-22T08:57:51Z</time>
      </trkpt>
      <trkpt lat="44.62523" lon="5.91526">
        <ele>2229.43</ele>
        <time>2014-06-22T08:58:06Z</time>
      </trkpt>
      <trkpt lat="44.62523" lon="5.91525">
        <ele>2230.4</ele>
        <time>2014-06-22T08:58:26Z</time>
      </trkpt>
      <trkpt lat="44.62525" lon="5.91519">
        <ele>2232.8</ele>
        <time>2014-06-22T08:58:42Z</time>
      </trkpt>
      <trkpt lat="44.62532" lon="5.91513">
        <ele>2235.68</ele>
        <time>2014-06-22T08:59:00Z</time>
      </trkpt>
      <trkpt lat="44.62534" lon="5.91514">
        <ele>2236.64</ele>
        <time>2014-06-22T08:59:17Z</time>
      </trkpt>
      <trkpt lat="44.62537" lon="5.91521">
        <ele>2239.05</ele>
        <time>2014-06-22T08:59:33Z</time>
      </trkpt>
      <trkpt lat="44.62539" lon="5.91525">
        <ele>2240.01</ele>
        <time>2014-06-22T08:59:51Z</time>
      </trkpt>
      <trkpt lat="44.62544" lon="5.9153">
        <ele>2242.89</ele>
        <time>2014-06-22T09:00:08Z</time>
      </trkpt>
      <trkpt lat="44.62544" lon="5.91531">
        <ele>2243.37</ele>
        <time>2014-06-22T09:00:15Z</time>
      </trkpt>
      <trkpt lat="44.62548" lon="5.91535">
        <ele>2245.3</ele>
        <time>2014-06-22T09:00:34Z</time>
      </trkpt>
      <trkpt lat="44.62547" lon="5.91539">
        <ele>2247.22</ele>
        <time>2014-06-22T09:00:46Z</time>
      </trkpt>
      <trkpt lat="44.6255" lon="5.91541">
        <ele>2249.14</ele>
        <time>2014-06-22T09:01:03Z</time>
      </trkpt>
      <trkpt lat="44.62552" lon="5.91538">
        <ele>2251.06</ele>
        <time>2014-06-22T09:01:16Z</time>
      </trkpt>
      <trkpt lat="44.62553" lon="5.91538">
        <ele>2252.51</ele>
        <time>2014-06-22T09:01:33Z</time>
      </trkpt>
      <trkpt lat="44.62556" lon="5.91536">
        <ele>2253.95</ele>
        <time>2014-06-22T09:01:49Z</time>
      </trkpt>
      <trkpt lat="44.62557" lon="5.91535">
        <ele>2256.83</ele>
        <time>2014-06-22T09:02:08Z</time>
      </trkpt>
      <trkpt lat="44.62557" lon="5.91534">
        <ele>2257.31</ele>
        <time>2014-06-22T09:02:11Z</time>
      </trkpt>
      <trkpt lat="44.62563" lon="5.91529">
        <ele>2258.75</ele>
        <time>2014-06-22T09:02:27Z</time>
      </trkpt>
      <trkpt lat="44.62564" lon="5.91532">
        <ele>2259.72</ele>
        <time>2014-06-22T09:02:44Z</time>
      </trkpt>
      <trkpt lat="44.62566" lon="5.91537">
        <ele>2261.64</ele>
        <time>2014-06-22T09:03:01Z</time>
      </trkpt>
      <trkpt lat="44.62569" lon="5.91545">
        <ele>2264.04</ele>
        <time>2014-06-22T09:03:18Z</time>
      </trkpt>
      <trkpt lat="44.62569" lon="5.91546">
        <ele>2265</ele>
        <time>2014-06-22T09:03:39Z</time>
      </trkpt>
      <trkpt lat="44.62569" lon="5.91543">
        <ele>2266.93</ele>
        <time>2014-06-22T09:03:52Z</time>
      </trkpt>
      <trkpt lat="44.6257" lon="5.91542">
        <ele>2267.41</ele>
        <time>2014-06-22T09:03:57Z</time>
      </trkpt>
      <trkpt lat="44.62571" lon="5.9154">
        <ele>2269.33</ele>
        <time>2014-06-22T09:04:09Z</time>
      </trkpt>
      <trkpt lat="44.62576" lon="5.91532">
        <ele>2271.73</ele>
        <time>2014-06-22T09:04:24Z</time>
      </trkpt>
      <trkpt lat="44.62579" lon="5.91529">
        <ele>2271.73</ele>
        <time>2014-06-22T09:04:38Z</time>
      </trkpt>
      <trkpt lat="44.62582" lon="5.9152">
        <ele>2273.66</ele>
        <time>2014-06-22T09:04:53Z</time>
      </trkpt>
      <trkpt lat="44.62584" lon="5.91517">
        <ele>2275.58</ele>
        <time>2014-06-22T09:05:10Z</time>
      </trkpt>
      <trkpt lat="44.62584" lon="5.91521">
        <ele>2277.02</ele>
        <time>2014-06-22T09:05:23Z</time>
      </trkpt>
      <trkpt lat="44.62583" lon="5.91531">
        <ele>2277.02</ele>
        <time>2014-06-22T09:05:38Z</time>
      </trkpt>
      <trkpt lat="44.62582" lon="5.9154">
        <ele>2277.5</ele>
        <time>2014-06-22T09:05:56Z</time>
      </trkpt>
      <trkpt lat="44.62582" lon="5.91542">
        <ele>2277.98</ele>
        <time>2014-06-22T09:06:01Z</time>
      </trkpt>
      <trkpt lat="44.62584" lon="5.91548">
        <ele>2279.42</ele>
        <time>2014-06-22T09:06:19Z</time>
      </trkpt>
      <trkpt lat="44.62584" lon="5.91552">
        <ele>2280.87</ele>
        <time>2014-06-22T09:06:33Z</time>
      </trkpt>
      <trkpt lat="44.62585" lon="5.91554">
        <ele>2282.31</ele>
        <time>2014-06-22T09:06:39Z</time>
      </trkpt>
      <trkpt lat="44.62585" lon="5.91554">
        <ele>2281.83</ele>
        <time>2014-06-22T09:06:46Z</time>
      </trkpt>
      <trkpt lat="44.62588" lon="5.91559">
        <ele>2284.23</ele>
        <time>2014-06-22T09:07:01Z</time>
      </trkpt>
      <trkpt lat="44.62588" lon="5.9156">
        <ele>2284.71</ele>
        <time>2014-06-22T09:07:20Z</time>
      </trkpt>
      <trkpt lat="44.62591" lon="5.91568">
        <ele>2285.67</ele>
        <time>2014-06-22T09:07:37Z</time>
      </trkpt>
      <trkpt lat="44.62593" lon="5.91583">
        <ele>2288.08</ele>
        <time>2014-06-22T09:07:53Z</time>
      </trkpt>
      <trkpt lat="44.62594" lon="5.91585">
        <ele>2289.52</ele>
        <time>2014-06-22T09:08:06Z</time>
      </trkpt>
      <trkpt lat="44.62594" lon="5.91588">
        <ele>2289.52</ele>
        <time>2014-06-22T09:08:22Z</time>
      </trkpt>
      <trkpt lat="44.62593" lon="5.91595">
        <ele>2290.96</ele>
        <time>2014-06-22T09:08:38Z</time>
      </trkpt>
      <trkpt lat="44.62594" lon="5.91602">
        <ele>2292.88</ele>
        <time>2014-06-22T09:08:55Z</time>
      </trkpt>
      <trkpt lat="44.62596" lon="5.91602">
        <ele>2294.32</ele>
        <time>2014-06-22T09:09:18Z</time>
      </trkpt>
      <trkpt lat="44.62597" lon="5.91603">
        <ele>2296.25</ele>
        <time>2014-06-22T09:09:34Z</time>
      </trkpt>
      <trkpt lat="44.62597" lon="5.91606">
        <ele>2297.69</ele>
        <time>2014-06-22T09:09:49Z</time>
      </trkpt>
      <trkpt lat="44.62597" lon="5.91606">
        <ele>2299.13</ele>
        <time>2014-06-22T09:10:13Z</time>
      </trkpt>
      <trkpt lat="44.62596" lon="5.91608">
        <ele>2299.61</ele>
        <time>2014-06-22T09:10:40Z</time>
      </trkpt>
      <trkpt lat="44.62595" lon="5.91613">
        <ele>2301.05</ele>
        <time>2014-06-22T09:10:55Z</time>
      </trkpt>
      <trkpt lat="44.62595" lon="5.91613">
        <ele>2302.49</ele>
        <time>2014-06-22T09:11:12Z</time>
      </trkpt>
      <trkpt lat="44.62595" lon="5.91613">
        <ele>2304.9</ele>
        <time>2014-06-22T09:11:29Z</time>
      </trkpt>
      <trkpt lat="44.62595" lon="5.91614">
        <ele>2305.86</ele>
        <time>2014-06-22T09:11:46Z</time>
      </trkpt>
      <trkpt lat="44.62595" lon="5.91614">
        <ele>2307.3</ele>
        <time>2014-06-22T09:12:00Z</time>
      </trkpt>
      <trkpt lat="44.62593" lon="5.91637">
        <ele>2308.26</ele>
        <time>2014-06-22T09:12:14Z</time>
      </trkpt>
      <trkpt lat="44.62595" lon="5.91642">
        <ele>2308.74</ele>
        <time>2014-06-22T09:12:30Z</time>
      </trkpt>
      <trkpt lat="44.62595" lon="5.91642">
        <ele>2311.15</ele>
        <time>2014-06-22T09:12:45Z</time>
      </trkpt>
      <trkpt lat="44.62595" lon="5.91642">
        <ele>2312.11</ele>
        <time>2014-06-22T09:13:00Z</time>
      </trkpt>
      <trkpt lat="44.62598" lon="5.91659">
        <ele>2313.07</ele>
        <time>2014-06-22T09:13:15Z</time>
      </trkpt>
      <trkpt lat="44.62597" lon="5.91661">
        <ele>2314.03</ele>
        <time>2014-06-22T09:13:17Z</time>
      </trkpt>
      <trkpt lat="44.626" lon="5.91669">
        <ele>2315.47</ele>
        <time>2014-06-22T09:13:26Z</time>
      </trkpt>
      <trkpt lat="44.626" lon="5.91677">
        <ele>2316.43</ele>
        <time>2014-06-22T09:13:43Z</time>
      </trkpt>
      <trkpt lat="44.626" lon="5.91677">
        <ele>2317.88</ele>
        <time>2014-06-22T09:14:04Z</time>
      </trkpt>
      <trkpt lat="44.626" lon="5.91677">
        <ele>2318.36</ele>
        <time>2014-06-22T09:14:14Z</time>
      </trkpt>
      <trkpt lat="44.62599" lon="5.91679">
        <ele>2317.88</ele>
        <time>2014-06-22T09:14:38Z</time>
      </trkpt>
      <trkpt lat="44.62599" lon="5.91679">
        <ele>2319.8</ele>
        <time>2014-06-22T09:14:54Z</time>
      </trkpt>
      <trkpt lat="44.62599" lon="5.91693">
        <ele>2320.28</ele>
        <time>2014-06-22T09:15:09Z</time>
      </trkpt>
      <trkpt lat="44.62598" lon="5.91699">
        <ele>2321.24</ele>
        <time>2014-06-22T09:15:15Z</time>
      </trkpt>
      <trkpt lat="44.62602" lon="5.91718">
        <ele>2323.16</ele>
        <time>2014-06-22T09:15:31Z</time>
      </trkpt>
      <trkpt lat="44.62603" lon="5.91722">
        <ele>2324.61</ele>
        <time>2014-06-22T09:15:49Z</time>
      </trkpt>
      <trkpt lat="44.62605" lon="5.91727">
        <ele>2326.05</ele>
        <time>2014-06-22T09:16:05Z</time>
      </trkpt>
      <trkpt lat="44.62604" lon="5.91734">
        <ele>2327.01</ele>
        <time>2014-06-22T09:16:21Z</time>
      </trkpt>
      <trkpt lat="44.62603" lon="5.91744">
        <ele>2330.37</ele>
        <time>2014-06-22T09:16:36Z</time>
      </trkpt>
      <trkpt lat="44.62603" lon="5.91744">
        <ele>2330.37</ele>
        <time>2014-06-22T09:16:55Z</time>
      </trkpt>
      <trkpt lat="44.62603" lon="5.91754">
        <ele>2332.3</ele>
        <time>2014-06-22T09:17:10Z</time>
      </trkpt>
      <trkpt lat="44.62603" lon="5.91764">
        <ele>2333.74</ele>
        <time>2014-06-22T09:17:24Z</time>
      </trkpt>
      <trkpt lat="44.62603" lon="5.91768">
        <ele>2335.18</ele>
        <time>2014-06-22T09:17:39Z</time>
      </trkpt>
      <trkpt lat="44.62603" lon="5.91776">
        <ele>2337.1</ele>
        <time>2014-06-22T09:17:53Z</time>
      </trkpt>
      <trkpt lat="44.62603" lon="5.91776">
        <ele>2336.62</ele>
        <time>2014-06-22T09:18:17Z</time>
      </trkpt>
      <trkpt lat="44.62603" lon="5.91776">
        <ele>2336.62</ele>
        <time>2014-06-22T09:18:48Z</time>
      </trkpt>
      <trkpt lat="44.62602" lon="5.9178">
        <ele>2338.54</ele>
        <time>2014-06-22T09:19:04Z</time>
      </trkpt>
      <trkpt lat="44.62604" lon="5.91785">
        <ele>2340.95</ele>
        <time>2014-06-22T09:19:16Z</time>
      </trkpt>
      <trkpt lat="44.62608" lon="5.91794">
        <ele>2342.87</ele>
        <time>2014-06-22T09:19:32Z</time>
      </trkpt>
      <trkpt lat="44.62613" lon="5.91802">
        <ele>2345.75</ele>
        <time>2014-06-22T09:19:50Z</time>
      </trkpt>
      <trkpt lat="44.62614" lon="5.91804">
        <ele>2345.75</ele>
        <time>2014-06-22T09:20:06Z</time>
      </trkpt>
      <trkpt lat="44.62614" lon="5.91804">
        <ele>2347.2</ele>
        <time>2014-06-22T09:20:18Z</time>
      </trkpt>
      <trkpt lat="44.62617" lon="5.9181">
        <ele>2350.08</ele>
        <time>2014-06-22T09:20:36Z</time>
      </trkpt>
      <trkpt lat="44.62623" lon="5.91826">
        <ele>2351.52</ele>
        <time>2014-06-22T09:20:53Z</time>
      </trkpt>
      <trkpt lat="44.62627" lon="5.9184">
        <ele>2352.48</ele>
        <time>2014-06-22T09:21:10Z</time>
      </trkpt>
      <trkpt lat="44.62627" lon="5.91843">
        <ele>2352.96</ele>
        <time>2014-06-22T09:21:25Z</time>
      </trkpt>
      <trkpt lat="44.62628" lon="5.91845">
        <ele>2353.44</ele>
        <time>2014-06-22T09:21:30Z</time>
      </trkpt>
      <trkpt lat="44.62631" lon="5.91864">
        <ele>2354.41</ele>
        <time>2014-06-22T09:21:46Z</time>
      </trkpt>
      <trkpt lat="44.62635" lon="5.9188">
        <ele>2355.37</ele>
        <time>2014-06-22T09:22:01Z</time>
      </trkpt>
      <trkpt lat="44.62636" lon="5.91887">
        <ele>2355.85</ele>
        <time>2014-06-22T09:22:21Z</time>
      </trkpt>
      <trkpt lat="44.62639" lon="5.91894">
        <ele>2356.81</ele>
        <time>2014-06-22T09:22:35Z</time>
      </trkpt>
      <trkpt lat="44.62644" lon="5.91901">
        <ele>2359.21</ele>
        <time>2014-06-22T09:22:50Z</time>
      </trkpt>
      <trkpt lat="44.62646" lon="5.91908">
        <ele>2360.65</ele>
        <time>2014-06-22T09:23:04Z</time>
      </trkpt>
      <trkpt lat="44.6265" lon="5.91916">
        <ele>2362.1</ele>
        <time>2014-06-22T09:23:21Z</time>
      </trkpt>
      <trkpt lat="44.62655" lon="5.91922">
        <ele>2364.98</ele>
        <time>2014-06-22T09:23:38Z</time>
      </trkpt>
      <trkpt lat="44.62655" lon="5.91927">
        <ele>2364.98</ele>
        <time>2014-06-22T09:23:54Z</time>
      </trkpt>
      <trkpt lat="44.62658" lon="5.91935">
        <ele>2367.38</ele>
        <time>2014-06-22T09:24:16Z</time>
      </trkpt>
      <trkpt lat="44.62661" lon="5.91944">
        <ele>2368.35</ele>
        <time>2014-06-22T09:24:34Z</time>
      </trkpt>
      <trkpt lat="44.62664" lon="5.91958">
        <ele>2369.79</ele>
        <time>2014-06-22T09:24:50Z</time>
      </trkpt>
      <trkpt lat="44.62665" lon="5.91974">
        <ele>2368.83</ele>
        <time>2014-06-22T09:25:07Z</time>
      </trkpt>
      <trkpt lat="44.62664" lon="5.91977">
        <ele>2368.35</ele>
        <time>2014-06-22T09:25:20Z</time>
      </trkpt>
      <trkpt lat="44.62663" lon="5.91986">
        <ele>2369.79</ele>
        <time>2014-06-22T09:25:34Z</time>
      </trkpt>
      <trkpt lat="44.62662" lon="5.91994">
        <ele>2371.23</ele>
        <time>2014-06-22T09:25:49Z</time>
      </trkpt>
      <trkpt lat="44.62661" lon="5.91996">
        <ele>2372.67</ele>
        <time>2014-06-22T09:25:52Z</time>
      </trkpt>
      <trkpt lat="44.62659" lon="5.91998">
        <ele>2372.19</ele>
        <time>2014-06-22T09:26:11Z</time>
      </trkpt>
      <trkpt lat="44.62653" lon="5.92001">
        <ele>2372.67</ele>
        <time>2014-06-22T09:26:23Z</time>
      </trkpt>
      <trkpt lat="44.62648" lon="5.92006">
        <ele>2373.63</ele>
        <time>2014-06-22T09:26:32Z</time>
      </trkpt>
      <trkpt lat="44.62649" lon="5.9201">
        <ele>2375.55</ele>
        <time>2014-06-22T09:26:50Z</time>
      </trkpt>
      <trkpt lat="44.62651" lon="5.92014">
        <ele>2377</ele>
        <time>2014-06-22T09:27:06Z</time>
      </trkpt>
      <trkpt lat="44.62651" lon="5.92015">
        <ele>2378.44</ele>
        <time>2014-06-22T09:27:13Z</time>
      </trkpt>
      <trkpt lat="44.62651" lon="5.92018">
        <ele>2379.4</ele>
        <time>2014-06-22T09:27:31Z</time>
      </trkpt>
      <trkpt lat="44.62652" lon="5.9202">
        <ele>2380.36</ele>
        <time>2014-06-22T09:27:54Z</time>
      </trkpt>
      <trkpt lat="44.62657" lon="5.92026">
        <ele>2383.25</ele>
        <time>2014-06-22T09:28:10Z</time>
      </trkpt>
      <trkpt lat="44.62659" lon="5.9203">
        <ele>2383.73</ele>
        <time>2014-06-22T09:28:23Z</time>
      </trkpt>
      <trkpt lat="44.62661" lon="5.92033">
        <ele>2386.13</ele>
        <time>2014-06-22T09:28:38Z</time>
      </trkpt>
      <trkpt lat="44.62663" lon="5.92035">
        <ele>2387.09</ele>
        <time>2014-06-22T09:28:54Z</time>
      </trkpt>
      <trkpt lat="44.62663" lon="5.92035">
        <ele>2387.09</ele>
        <time>2014-06-22T09:29:12Z</time>
      </trkpt>
      <trkpt lat="44.62668" lon="5.92041">
        <ele>2388.05</ele>
        <time>2014-06-22T09:29:22Z</time>
      </trkpt>
      <trkpt lat="44.62673" lon="5.9205">
        <ele>2390.94</ele>
        <time>2014-06-22T09:29:38Z</time>
      </trkpt>
      <trkpt lat="44.62672" lon="5.9205">
        <ele>2391.42</ele>
        <time>2014-06-22T09:29:51Z</time>
      </trkpt>
      <trkpt lat="44.62672" lon="5.9205">
        <ele>2391.42</ele>
        <time>2014-06-22T09:30:18Z</time>
      </trkpt>
      <trkpt lat="44.62675" lon="5.92054">
        <ele>2392.86</ele>
        <time>2014-06-22T09:30:33Z</time>
      </trkpt>
      <trkpt lat="44.62679" lon="5.9205">
        <ele>2393.82</ele>
        <time>2014-06-22T09:30:48Z</time>
      </trkpt>
      <trkpt lat="44.62682" lon="5.92053">
        <ele>2396.7</ele>
        <time>2014-06-22T09:31:02Z</time>
      </trkpt>
      <trkpt lat="44.62682" lon="5.92054">
        <ele>2398.63</ele>
        <time>2014-06-22T09:31:17Z</time>
      </trkpt>
      <trkpt lat="44.62686" lon="5.92058">
        <ele>2400.07</ele>
        <time>2014-06-22T09:31:38Z</time>
      </trkpt>
      <trkpt lat="44.62688" lon="5.92059">
        <ele>2401.99</ele>
        <time>2014-06-22T09:31:52Z</time>
      </trkpt>
      <trkpt lat="44.62688" lon="5.92059">
        <ele>2402.95</ele>
        <time>2014-06-22T09:31:54Z</time>
      </trkpt>
      <trkpt lat="44.62686" lon="5.92063">
        <ele>2403.91</ele>
        <time>2014-06-22T09:32:11Z</time>
      </trkpt>
      <trkpt lat="44.62691" lon="5.92066">
        <ele>2405.36</ele>
        <time>2014-06-22T09:32:35Z</time>
      </trkpt>
      <trkpt lat="44.627" lon="5.92071">
        <ele>2406.8</ele>
        <time>2014-06-22T09:32:50Z</time>
      </trkpt>
      <trkpt lat="44.62707" lon="5.92075">
        <ele>2408.24</ele>
        <time>2014-06-22T09:33:04Z</time>
      </trkpt>
      <trkpt lat="44.62712" lon="5.92079">
        <ele>2409.2</ele>
        <time>2014-06-22T09:33:18Z</time>
      </trkpt>
      <trkpt lat="44.62728" lon="5.92087">
        <ele>2409.68</ele>
        <time>2014-06-22T09:33:37Z</time>
      </trkpt>
      <trkpt lat="44.62733" lon="5.92092">
        <ele>2411.6</ele>
        <time>2014-06-22T09:33:53Z</time>
      </trkpt>
      <trkpt lat="44.62738" lon="5.92105">
        <ele>2414.01</ele>
        <time>2014-06-22T09:34:08Z</time>
      </trkpt>
      <trkpt lat="44.62743" lon="5.92115">
        <ele>2415.93</ele>
        <time>2014-06-22T09:34:24Z</time>
      </trkpt>
      <trkpt lat="44.62744" lon="5.92117">
        <ele>2416.41</ele>
        <time>2014-06-22T09:34:40Z</time>
      </trkpt>
      <trkpt lat="44.62744" lon="5.92117">
        <ele>2417.85</ele>
        <time>2014-06-22T09:34:56Z</time>
      </trkpt>
      <trkpt lat="44.62749" lon="5.92125">
        <ele>2418.81</ele>
        <time>2014-06-22T09:35:09Z</time>
      </trkpt>
      <trkpt lat="44.62751" lon="5.92131">
        <ele>2420.74</ele>
        <time>2014-06-22T09:35:27Z</time>
      </trkpt>
      <trkpt lat="44.62761" lon="5.92143">
        <ele>2421.7</ele>
        <time>2014-06-22T09:35:43Z</time>
      </trkpt>
      <trkpt lat="44.62769" lon="5.92151">
        <ele>2423.14</ele>
        <time>2014-06-22T09:36:01Z</time>
      </trkpt>
      <trkpt lat="44.62771" lon="5.92153">
        <ele>2424.1</ele>
        <time>2014-06-22T09:36:26Z</time>
      </trkpt>
      <trkpt lat="44.62781" lon="5.92162">
        <ele>2425.06</ele>
        <time>2014-06-22T09:36:42Z</time>
      </trkpt>
      <trkpt lat="44.62788" lon="5.9217">
        <ele>2426.5</ele>
        <time>2014-06-22T09:36:57Z</time>
      </trkpt>
      <trkpt lat="44.62791" lon="5.92172">
        <ele>2426.99</ele>
        <time>2014-06-22T09:37:14Z</time>
      </trkpt>
      <trkpt lat="44.62795" lon="5.9218">
        <ele>2428.91</ele>
        <time>2014-06-22T09:37:31Z</time>
      </trkpt>
      <trkpt lat="44.628" lon="5.92185">
        <ele>2429.87</ele>
        <time>2014-06-22T09:37:47Z</time>
      </trkpt>
      <trkpt lat="44.62808" lon="5.92188">
        <ele>2430.83</ele>
        <time>2014-06-22T09:38:02Z</time>
      </trkpt>
      <trkpt lat="44.62811" lon="5.9219">
        <ele>2432.27</ele>
        <time>2014-06-22T09:38:19Z</time>
      </trkpt>
      <trkpt lat="44.62815" lon="5.92191">
        <ele>2434.2</ele>
        <time>2014-06-22T09:38:32Z</time>
      </trkpt>
      <trkpt lat="44.62819" lon="5.92191">
        <ele>2436.12</ele>
        <time>2014-06-22T09:38:47Z</time>
      </trkpt>
      <trkpt lat="44.62824" lon="5.92194">
        <ele>2437.56</ele>
        <time>2014-06-22T09:39:08Z</time>
      </trkpt>
      <trkpt lat="44.62825" lon="5.92191">
        <ele>2439</ele>
        <time>2014-06-22T09:39:20Z</time>
      </trkpt>
      <trkpt lat="44.62827" lon="5.92188">
        <ele>2439.96</ele>
        <time>2014-06-22T09:39:35Z</time>
      </trkpt>
      <trkpt lat="44.62828" lon="5.92183">
        <ele>2441.41</ele>
        <time>2014-06-22T09:39:49Z</time>
      </trkpt>
      <trkpt lat="44.62829" lon="5.92177">
        <ele>2444.29</ele>
        <time>2014-06-22T09:40:03Z</time>
      </trkpt>
      <trkpt lat="44.62829" lon="5.92173">
        <ele>2444.77</ele>
        <time>2014-06-22T09:40:22Z</time>
      </trkpt>
      <trkpt lat="44.62831" lon="5.92167">
        <ele>2446.21</ele>
        <time>2014-06-22T09:40:37Z</time>
      </trkpt>
      <trkpt lat="44.62835" lon="5.92167">
        <ele>2447.65</ele>
        <time>2014-06-22T09:40:55Z</time>
      </trkpt>
      <trkpt lat="44.62842" lon="5.92167">
        <ele>2448.62</ele>
        <time>2014-06-22T09:41:10Z</time>
      </trkpt>
      <trkpt lat="44.62848" lon="5.92168">
        <ele>2451.02</ele>
        <time>2014-06-22T09:41:27Z</time>
      </trkpt>
      <trkpt lat="44.62848" lon="5.92168">
        <ele>2451.5</ele>
        <time>2014-06-22T09:41:53Z</time>
      </trkpt>
      <trkpt lat="44.62848" lon="5.92168">
        <ele>2453.42</ele>
        <time>2014-06-22T09:42:09Z</time>
      </trkpt>
      <trkpt lat="44.62854" lon="5.9217">
        <ele>2454.86</ele>
        <time>2014-06-22T09:42:24Z</time>
      </trkpt>
      <trkpt lat="44.62858" lon="5.92174">
        <ele>2457.75</ele>
        <time>2014-06-22T09:42:37Z</time>
      </trkpt>
      <trkpt lat="44.62858" lon="5.92174">
        <ele>2457.27</ele>
        <time>2014-06-22T09:42:39Z</time>
      </trkpt>
      <trkpt lat="44.62864" lon="5.92175">
        <ele>2459.67</ele>
        <time>2014-06-22T09:42:59Z</time>
      </trkpt>
      <trkpt lat="44.62871" lon="5.92178">
        <ele>2460.63</ele>
        <time>2014-06-22T09:43:12Z</time>
      </trkpt>
      <trkpt lat="44.62875" lon="5.9218">
        <ele>2462.55</ele>
        <time>2014-06-22T09:43:35Z</time>
      </trkpt>
      <trkpt lat="44.62878" lon="5.9218">
        <ele>2463.04</ele>
        <time>2014-06-22T09:43:51Z</time>
      </trkpt>
      <trkpt lat="44.62882" lon="5.92179">
        <ele>2464.96</ele>
        <time>2014-06-22T09:44:07Z</time>
      </trkpt>
      <trkpt lat="44.62888" lon="5.92179">
        <ele>2467.36</ele>
        <time>2014-06-22T09:44:21Z</time>
      </trkpt>
      <trkpt lat="44.62888" lon="5.9218">
        <ele>2467.36</ele>
        <time>2014-06-22T09:44:41Z</time>
      </trkpt>
      <trkpt lat="44.62892" lon="5.92183">
        <ele>2468.8</ele>
        <time>2014-06-22T09:44:57Z</time>
      </trkpt>
      <trkpt lat="44.62898" lon="5.92183">
        <ele>2471.69</ele>
        <time>2014-06-22T09:45:11Z</time>
      </trkpt>
      <trkpt lat="44.62903" lon="5.92184">
        <ele>2473.61</ele>
        <time>2014-06-22T09:45:26Z</time>
      </trkpt>
      <trkpt lat="44.62907" lon="5.92185">
        <ele>2475.05</ele>
        <time>2014-06-22T09:45:46Z</time>
      </trkpt>
      <trkpt lat="44.62913" lon="5.92183">
        <ele>2476.01</ele>
        <time>2014-06-22T09:46:00Z</time>
      </trkpt>
      <trkpt lat="44.62916" lon="5.92182">
        <ele>2477.45</ele>
        <time>2014-06-22T09:46:15Z</time>
      </trkpt>
      <trkpt lat="44.6292" lon="5.92181">
        <ele>2479.38</ele>
        <time>2014-06-22T09:46:38Z</time>
      </trkpt>
      <trkpt lat="44.62927" lon="5.92182">
        <ele>2481.3</ele>
        <time>2014-06-22T09:46:53Z</time>
      </trkpt>
      <trkpt lat="44.62933" lon="5.92184">
        <ele>2483.22</ele>
        <time>2014-06-22T09:47:07Z</time>
      </trkpt>
      <trkpt lat="44.62935" lon="5.92184">
        <ele>2483.7</ele>
        <time>2014-06-22T09:47:27Z</time>
      </trkpt>
      <trkpt lat="44.62943" lon="5.92188">
        <ele>2486.11</ele>
        <time>2014-06-22T09:47:43Z</time>
      </trkpt>
      <trkpt lat="44.62946" lon="5.92194">
        <ele>2487.55</ele>
        <time>2014-06-22T09:47:59Z</time>
      </trkpt>
      <trkpt lat="44.62948" lon="5.92201">
        <ele>2488.03</ele>
        <time>2014-06-22T09:48:19Z</time>
      </trkpt>
      <trkpt lat="44.62948" lon="5.9221">
        <ele>2489.47</ele>
        <time>2014-06-22T09:48:35Z</time>
      </trkpt>
      <trkpt lat="44.62948" lon="5.92217">
        <ele>2491.39</ele>
        <time>2014-06-22T09:48:51Z</time>
      </trkpt>
      <trkpt lat="44.62948" lon="5.9222">
        <ele>2492.84</ele>
        <time>2014-06-22T09:49:10Z</time>
      </trkpt>
      <trkpt lat="44.62951" lon="5.92233">
        <ele>2494.76</ele>
        <time>2014-06-22T09:49:24Z</time>
      </trkpt>
      <trkpt lat="44.62954" lon="5.92244">
        <ele>2496.2</ele>
        <time>2014-06-22T09:49:40Z</time>
      </trkpt>
      <trkpt lat="44.62954" lon="5.92244">
        <ele>2496.68</ele>
        <time>2014-06-22T09:50:10Z</time>
      </trkpt>
      <trkpt lat="44.62954" lon="5.92244">
        <ele>2496.68</ele>
        <time>2014-06-22T09:50:33Z</time>
      </trkpt>
      <trkpt lat="44.62954" lon="5.92244">
        <ele>2496.68</ele>
        <time>2014-06-22T09:50:56Z</time>
      </trkpt>
      <trkpt lat="44.62953" lon="5.92244">
        <ele>2496.68</ele>
        <time>2014-06-22T09:51:11Z</time>
      </trkpt>
      <trkpt lat="44.62954" lon="5.92245">
        <ele>2496.68</ele>
        <time>2014-06-22T09:51:22Z</time>
      </trkpt>
      <trkpt lat="44.62954" lon="5.92245">
        <ele>2497.16</ele>
        <time>2014-06-22T09:51:41Z</time>
      </trkpt>
      <trkpt lat="44.62954" lon="5.92245">
        <ele>2497.64</ele>
        <time>2014-06-22T09:52:07Z</time>
      </trkpt>
      <trkpt lat="44.62954" lon="5.92245">
        <ele>2497.64</ele>
        <time>2014-06-22T09:52:33Z</time>
      </trkpt>
      <trkpt lat="44.62954" lon="5.92245">
        <ele>2497.64</ele>
        <time>2014-06-22T09:52:48Z</time>
      </trkpt>
      <trkpt lat="44.62955" lon="5.9225">
        <ele>2498.12</ele>
        <time>2014-06-22T09:53:13Z</time>
      </trkpt>
      <trkpt lat="44.6296" lon="5.9226">
        <ele>2499.57</ele>
        <time>2014-06-22T09:53:28Z</time>
      </trkpt>
      <trkpt lat="44.62964" lon="5.92274">
        <ele>2500.53</ele>
        <time>2014-06-22T09:53:43Z</time>
      </trkpt>
      <trkpt lat="44.62965" lon="5.92277">
        <ele>2500.53</ele>
        <time>2014-06-22T09:53:46Z</time>
      </trkpt>
      <trkpt lat="44.62967" lon="5.92291">
        <ele>2500.53</ele>
        <time>2014-06-22T09:54:01Z</time>
      </trkpt>
      <trkpt lat="44.6297" lon="5.92305">
        <ele>2500.53</ele>
        <time>2014-06-22T09:54:16Z</time>
      </trkpt>
      <trkpt lat="44.6297" lon="5.92317">
        <ele>2500.05</ele>
        <time>2014-06-22T09:54:30Z</time>
      </trkpt>
      <trkpt lat="44.62969" lon="5.92335">
        <ele>2499.57</ele>
        <time>2014-06-22T09:54:47Z</time>
      </trkpt>
      <trkpt lat="44.62967" lon="5.92346">
        <ele>2499.08</ele>
        <time>2014-06-22T09:55:02Z</time>
      </trkpt>
      <trkpt lat="44.62966" lon="5.92357">
        <ele>2499.08</ele>
        <time>2014-06-22T09:55:15Z</time>
      </trkpt>
      <trkpt lat="44.62962" lon="5.92375">
        <ele>2499.57</ele>
        <time>2014-06-22T09:55:31Z</time>
      </trkpt>
      <trkpt lat="44.62961" lon="5.92389">
        <ele>2499.08</ele>
        <time>2014-06-22T09:55:47Z</time>
      </trkpt>
      <trkpt lat="44.62961" lon="5.92402">
        <ele>2500.53</ele>
        <time>2014-06-22T09:56:02Z</time>
      </trkpt>
      <trkpt lat="44.6296" lon="5.92405">
        <ele>2501.01</ele>
        <time>2014-06-22T09:56:25Z</time>
      </trkpt>
      <trkpt lat="44.6296" lon="5.92419">
        <ele>2501.49</ele>
        <time>2014-06-22T09:56:40Z</time>
      </trkpt>
      <trkpt lat="44.62957" lon="5.92433">
        <ele>2503.41</ele>
        <time>2014-06-22T09:56:56Z</time>
      </trkpt>
      <trkpt lat="44.62953" lon="5.92441">
        <ele>2503.89</ele>
        <time>2014-06-22T09:57:10Z</time>
      </trkpt>
      <trkpt lat="44.62953" lon="5.92441">
        <ele>2504.85</ele>
        <time>2014-06-22T09:57:28Z</time>
      </trkpt>
      <trkpt lat="44.62952" lon="5.92448">
        <ele>2506.29</ele>
        <time>2014-06-22T09:57:44Z</time>
      </trkpt>
      <trkpt lat="44.62952" lon="5.92457">
        <ele>2508.7</ele>
        <time>2014-06-22T09:57:59Z</time>
      </trkpt>
      <trkpt lat="44.62951" lon="5.92471">
        <ele>2510.14</ele>
        <time>2014-06-22T09:58:15Z</time>
      </trkpt>
      <trkpt lat="44.62951" lon="5.92472">
        <ele>2510.14</ele>
        <time>2014-06-22T09:58:36Z</time>
      </trkpt>
      <trkpt lat="44.62949" lon="5.92477">
        <ele>2511.1</ele>
        <time>2014-06-22T09:58:57Z</time>
      </trkpt>
      <trkpt lat="44.62941" lon="5.92488">
        <ele>2512.54</ele>
        <time>2014-06-22T09:59:11Z</time>
      </trkpt>
      <trkpt lat="44.62931" lon="5.925">
        <ele>2513.98</ele>
        <time>2014-06-22T09:59:28Z</time>
      </trkpt>
      <trkpt lat="44.62926" lon="5.92506">
        <ele>2515.43</ele>
        <time>2014-06-22T09:59:44Z</time>
      </trkpt>
      <trkpt lat="44.62925" lon="5.92524">
        <ele>2516.39</ele>
        <time>2014-06-22T09:59:59Z</time>
      </trkpt>
      <trkpt lat="44.62923" lon="5.9253">
        <ele>2516.39</ele>
        <time>2014-06-22T10:00:04Z</time>
      </trkpt>
      <trkpt lat="44.62923" lon="5.9254">
        <ele>2516.39</ele>
        <time>2014-06-22T10:00:12Z</time>
      </trkpt>
      <trkpt lat="44.62923" lon="5.92546">
        <ele>2517.35</ele>
        <time>2014-06-22T10:00:27Z</time>
      </trkpt>
      <trkpt lat="44.62923" lon="5.92558">
        <ele>2517.83</ele>
        <time>2014-06-22T10:00:39Z</time>
      </trkpt>
      <trkpt lat="44.62923" lon="5.92576">
        <ele>2517.83</ele>
        <time>2014-06-22T10:00:54Z</time>
      </trkpt>
      <trkpt lat="44.62923" lon="5.92588">
        <ele>2518.31</ele>
        <time>2014-06-22T10:01:05Z</time>
      </trkpt>
      <trkpt lat="44.62925" lon="5.92595">
        <ele>2518.79</ele>
        <time>2014-06-22T10:01:11Z</time>
      </trkpt>
      <trkpt lat="44.62923" lon="5.92606">
        <ele>2520.23</ele>
        <time>2014-06-22T10:01:25Z</time>
      </trkpt>
      <trkpt lat="44.62921" lon="5.92615">
        <ele>2520.71</ele>
        <time>2014-06-22T10:01:41Z</time>
      </trkpt>
      <trkpt lat="44.62921" lon="5.92624">
        <ele>2522.16</ele>
        <time>2014-06-22T10:01:54Z</time>
      </trkpt>
      <trkpt lat="44.6292" lon="5.92632">
        <ele>2523.12</ele>
        <time>2014-06-22T10:02:07Z</time>
      </trkpt>
      <trkpt lat="44.62917" lon="5.92643">
        <ele>2525.04</ele>
        <time>2014-06-22T10:02:23Z</time>
      </trkpt>
      <trkpt lat="44.62917" lon="5.92644">
        <ele>2526</ele>
        <time>2014-06-22T10:02:45Z</time>
      </trkpt>
      <trkpt lat="44.62915" lon="5.9266">
        <ele>2526.96</ele>
        <time>2014-06-22T10:02:59Z</time>
      </trkpt>
      <trkpt lat="44.62912" lon="5.92675">
        <ele>2528.89</ele>
        <time>2014-06-22T10:03:13Z</time>
      </trkpt>
      <trkpt lat="44.62911" lon="5.9269">
        <ele>2529.85</ele>
        <time>2014-06-22T10:03:28Z</time>
      </trkpt>
      <trkpt lat="44.62911" lon="5.92695">
        <ele>2530.33</ele>
        <time>2014-06-22T10:03:46Z</time>
      </trkpt>
      <trkpt lat="44.6291" lon="5.92697">
        <ele>2530.33</ele>
        <time>2014-06-22T10:03:49Z</time>
      </trkpt>
      <trkpt lat="44.62907" lon="5.92712">
        <ele>2532.25</ele>
        <time>2014-06-22T10:04:03Z</time>
      </trkpt>
      <trkpt lat="44.62901" lon="5.92724">
        <ele>2533.21</ele>
        <time>2014-06-22T10:04:17Z</time>
      </trkpt>
      <trkpt lat="44.62901" lon="5.92735">
        <ele>2534.17</ele>
        <time>2014-06-22T10:04:26Z</time>
      </trkpt>
      <trkpt lat="44.62903" lon="5.9274">
        <ele>2534.17</ele>
        <time>2014-06-22T10:04:30Z</time>
      </trkpt>
      <trkpt lat="44.62902" lon="5.92748">
        <ele>2534.65</ele>
        <time>2014-06-22T10:04:37Z</time>
      </trkpt>
      <trkpt lat="44.62901" lon="5.9276">
        <ele>2535.13</ele>
        <time>2014-06-22T10:04:52Z</time>
      </trkpt>
      <trkpt lat="44.62902" lon="5.92766">
        <ele>2535.61</ele>
        <time>2014-06-22T10:05:14Z</time>
      </trkpt>
      <trkpt lat="44.62901" lon="5.92777">
        <ele>2537.54</ele>
        <time>2014-06-22T10:05:28Z</time>
      </trkpt>
      <trkpt lat="44.62906" lon="5.92792">
        <ele>2538.98</ele>
        <time>2014-06-22T10:05:44Z</time>
      </trkpt>
      <trkpt lat="44.62907" lon="5.92796">
        <ele>2540.42</ele>
        <time>2014-06-22T10:06:01Z</time>
      </trkpt>
      <trkpt lat="44.62907" lon="5.92796">
        <ele>2540.9</ele>
        <time>2014-06-22T10:06:19Z</time>
      </trkpt>
      <trkpt lat="44.62899" lon="5.928">
        <ele>2541.86</ele>
        <time>2014-06-22T10:06:33Z</time>
      </trkpt>
      <trkpt lat="44.62897" lon="5.92803">
        <ele>2544.27</ele>
        <time>2014-06-22T10:06:40Z</time>
      </trkpt>
      <trkpt lat="44.62893" lon="5.92807">
        <ele>2544.75</ele>
        <time>2014-06-22T10:06:55Z</time>
      </trkpt>
      <trkpt lat="44.6289" lon="5.92814">
        <ele>2546.19</ele>
        <time>2014-06-22T10:07:13Z</time>
      </trkpt>
      <trkpt lat="44.62889" lon="5.92826">
        <ele>2549.07</ele>
        <time>2014-06-22T10:07:30Z</time>
      </trkpt>
      <trkpt lat="44.62889" lon="5.92828">
        <ele>2549.07</ele>
        <time>2014-06-22T10:07:49Z</time>
      </trkpt>
      <trkpt lat="44.6289" lon="5.92837">
        <ele>2549.55</ele>
        <time>2014-06-22T10:08:01Z</time>
      </trkpt>
      <trkpt lat="44.62884" lon="5.92841">
        <ele>2551</ele>
        <time>2014-06-22T10:08:15Z</time>
      </trkpt>
      <trkpt lat="44.62884" lon="5.92841">
        <ele>2551</ele>
        <time>2014-06-22T10:08:37Z</time>
      </trkpt>
      <trkpt lat="44.62884" lon="5.92841">
        <ele>2551.96</ele>
        <time>2014-06-22T10:09:05Z</time>
      </trkpt>
      <trkpt lat="44.62883" lon="5.9285">
        <ele>2552.92</ele>
        <time>2014-06-22T10:09:23Z</time>
      </trkpt>
      <trkpt lat="44.62878" lon="5.9286">
        <ele>2554.84</ele>
        <time>2014-06-22T10:09:37Z</time>
      </trkpt>
      <trkpt lat="44.62875" lon="5.92871">
        <ele>2556.28</ele>
        <time>2014-06-22T10:09:52Z</time>
      </trkpt>
      <trkpt lat="44.62871" lon="5.92876">
        <ele>2557.24</ele>
        <time>2014-06-22T10:10:07Z</time>
      </trkpt>
      <trkpt lat="44.62868" lon="5.92882">
        <ele>2558.21</ele>
        <time>2014-06-22T10:10:28Z</time>
      </trkpt>
      <trkpt lat="44.62864" lon="5.9289">
        <ele>2559.65</ele>
        <time>2014-06-22T10:10:44Z</time>
      </trkpt>
      <trkpt lat="44.62864" lon="5.92899">
        <ele>2561.09</ele>
        <time>2014-06-22T10:11:02Z</time>
      </trkpt>
      <trkpt lat="44.62864" lon="5.92907">
        <ele>2563.01</ele>
        <time>2014-06-22T10:11:20Z</time>
      </trkpt>
      <trkpt lat="44.62852" lon="5.92909">
        <ele>2564.45</ele>
        <time>2014-06-22T10:11:38Z</time>
      </trkpt>
      <trkpt lat="44.62851" lon="5.92916">
        <ele>2566.38</ele>
        <time>2014-06-22T10:11:53Z</time>
      </trkpt>
      <trkpt lat="44.62848" lon="5.92915">
        <ele>2567.34</ele>
        <time>2014-06-22T10:12:16Z</time>
      </trkpt>
      <trkpt lat="44.62848" lon="5.92924">
        <ele>2568.78</ele>
        <time>2014-06-22T10:12:30Z</time>
      </trkpt>
      <trkpt lat="44.62845" lon="5.92931">
        <ele>2570.7</ele>
        <time>2014-06-22T10:12:45Z</time>
      </trkpt>
      <trkpt lat="44.62846" lon="5.92934">
        <ele>2571.66</ele>
        <time>2014-06-22T10:13:01Z</time>
      </trkpt>
      <trkpt lat="44.62843" lon="5.92938">
        <ele>2572.63</ele>
        <time>2014-06-22T10:13:20Z</time>
      </trkpt>
      <trkpt lat="44.62841" lon="5.9295">
        <ele>2575.03</ele>
        <time>2014-06-22T10:13:37Z</time>
      </trkpt>
      <trkpt lat="44.62839" lon="5.92959">
        <ele>2576.95</ele>
        <time>2014-06-22T10:13:53Z</time>
      </trkpt>
      <trkpt lat="44.62839" lon="5.92963">
        <ele>2577.43</ele>
        <time>2014-06-22T10:14:11Z</time>
      </trkpt>
      <trkpt lat="44.62836" lon="5.92969">
        <ele>2579.84</ele>
        <time>2014-06-22T10:14:26Z</time>
      </trkpt>
      <trkpt lat="44.62833" lon="5.92972">
        <ele>2580.32</ele>
        <time>2014-06-22T10:14:41Z</time>
      </trkpt>
      <trkpt lat="44.62832" lon="5.92981">
        <ele>2582.24</ele>
        <time>2014-06-22T10:15:00Z</time>
      </trkpt>
      <trkpt lat="44.62828" lon="5.92986">
        <ele>2584.16</ele>
        <time>2014-06-22T10:15:17Z</time>
      </trkpt>
      <trkpt lat="44.62828" lon="5.92987">
        <ele>2585.6</ele>
        <time>2014-06-22T10:15:36Z</time>
      </trkpt>
      <trkpt lat="44.62824" lon="5.93001">
        <ele>2586.56</ele>
        <time>2014-06-22T10:15:51Z</time>
      </trkpt>
      <trkpt lat="44.62819" lon="5.93009">
        <ele>2588.49</ele>
        <time>2014-06-22T10:16:07Z</time>
      </trkpt>
      <trkpt lat="44.62819" lon="5.93013">
        <ele>2589.45</ele>
        <time>2014-06-22T10:16:26Z</time>
      </trkpt>
      <trkpt lat="44.62812" lon="5.93024">
        <ele>2591.37</ele>
        <time>2014-06-22T10:16:42Z</time>
      </trkpt>
      <trkpt lat="44.62807" lon="5.93033">
        <ele>2592.81</ele>
        <time>2014-06-22T10:16:57Z</time>
      </trkpt>
      <trkpt lat="44.62804" lon="5.93033">
        <ele>2594.25</ele>
        <time>2014-06-22T10:17:13Z</time>
      </trkpt>
      <trkpt lat="44.62803" lon="5.93045">
        <ele>2595.7</ele>
        <time>2014-06-22T10:17:29Z</time>
      </trkpt>
      <trkpt lat="44.62801" lon="5.93052">
        <ele>2596.66</ele>
        <time>2014-06-22T10:17:44Z</time>
      </trkpt>
      <trkpt lat="44.62798" lon="5.9306">
        <ele>2599.06</ele>
        <time>2014-06-22T10:18:02Z</time>
      </trkpt>
      <trkpt lat="44.6279" lon="5.93066">
        <ele>2600.5</ele>
        <time>2014-06-22T10:18:17Z</time>
      </trkpt>
      <trkpt lat="44.62786" lon="5.9307">
        <ele>2601.46</ele>
        <time>2014-06-22T10:18:32Z</time>
      </trkpt>
      <trkpt lat="44.62782" lon="5.93074">
        <ele>2602.43</ele>
        <time>2014-06-22T10:18:59Z</time>
      </trkpt>
      <trkpt lat="44.62777" lon="5.93083">
        <ele>2603.87</ele>
        <time>2014-06-22T10:19:13Z</time>
      </trkpt>
      <trkpt lat="44.62774" lon="5.93092">
        <ele>2606.27</ele>
        <time>2014-06-22T10:19:30Z</time>
      </trkpt>
      <trkpt lat="44.62773" lon="5.93096">
        <ele>2607.23</ele>
        <time>2014-06-22T10:19:53Z</time>
      </trkpt>
      <trkpt lat="44.62768" lon="5.93106">
        <ele>2608.67</ele>
        <time>2014-06-22T10:20:07Z</time>
      </trkpt>
      <trkpt lat="44.62762" lon="5.93115">
        <ele>2610.6</ele>
        <time>2014-06-22T10:20:21Z</time>
      </trkpt>
      <trkpt lat="44.62758" lon="5.93123">
        <ele>2612.04</ele>
        <time>2014-06-22T10:20:35Z</time>
      </trkpt>
      <trkpt lat="44.62758" lon="5.93124">
        <ele>2612.52</ele>
        <time>2014-06-22T10:20:59Z</time>
      </trkpt>
      <trkpt lat="44.62756" lon="5.93131">
        <ele>2613.96</ele>
        <time>2014-06-22T10:21:17Z</time>
      </trkpt>
      <trkpt lat="44.62755" lon="5.93144">
        <ele>2615.4</ele>
        <time>2014-06-22T10:21:35Z</time>
      </trkpt>
      <trkpt lat="44.62747" lon="5.9315">
        <ele>2617.33</ele>
        <time>2014-06-22T10:21:51Z</time>
      </trkpt>
      <trkpt lat="44.62738" lon="5.93157">
        <ele>2619.25</ele>
        <time>2014-06-22T10:22:07Z</time>
      </trkpt>
      <trkpt lat="44.62736" lon="5.93158">
        <ele>2620.69</ele>
        <time>2014-06-22T10:22:22Z</time>
      </trkpt>
      <trkpt lat="44.62736" lon="5.93158">
        <ele>2620.21</ele>
        <time>2014-06-22T10:22:48Z</time>
      </trkpt>
      <trkpt lat="44.62735" lon="5.93168">
        <ele>2622.13</ele>
        <time>2014-06-22T10:23:04Z</time>
      </trkpt>
      <trkpt lat="44.62731" lon="5.93177">
        <ele>2624.54</ele>
        <time>2014-06-22T10:23:19Z</time>
      </trkpt>
      <trkpt lat="44.6273" lon="5.93184">
        <ele>2625.98</ele>
        <time>2014-06-22T10:23:33Z</time>
      </trkpt>
      <trkpt lat="44.62727" lon="5.93188">
        <ele>2626.94</ele>
        <time>2014-06-22T10:23:52Z</time>
      </trkpt>
      <trkpt lat="44.62727" lon="5.93195">
        <ele>2627.9</ele>
        <time>2014-06-22T10:24:09Z</time>
      </trkpt>
      <trkpt lat="44.62723" lon="5.93196">
        <ele>2628.38</ele>
        <time>2014-06-22T10:24:31Z</time>
      </trkpt>
      <trkpt lat="44.62719" lon="5.93195">
        <ele>2629.34</ele>
        <time>2014-06-22T10:24:47Z</time>
      </trkpt>
      <trkpt lat="44.62716" lon="5.93199">
        <ele>2630.79</ele>
        <time>2014-06-22T10:25:15Z</time>
      </trkpt>
      <trkpt lat="44.62717" lon="5.93213">
        <ele>2634.15</ele>
        <time>2014-06-22T10:25:31Z</time>
      </trkpt>
      <trkpt lat="44.62715" lon="5.93219">
        <ele>2636.07</ele>
        <time>2014-06-22T10:25:45Z</time>
      </trkpt>
      <trkpt lat="44.6271" lon="5.9322">
        <ele>2637.51</ele>
        <time>2014-06-22T10:26:00Z</time>
      </trkpt>
      <trkpt lat="44.62706" lon="5.93222">
        <ele>2637.51</ele>
        <time>2014-06-22T10:26:17Z</time>
      </trkpt>
      <trkpt lat="44.62706" lon="5.9323">
        <ele>2639.92</ele>
        <time>2014-06-22T10:26:32Z</time>
      </trkpt>
      <trkpt lat="44.62706" lon="5.93238">
        <ele>2641.84</ele>
        <time>2014-06-22T10:26:48Z</time>
      </trkpt>
      <trkpt lat="44.62706" lon="5.93238">
        <ele>2641.84</ele>
        <time>2014-06-22T10:27:14Z</time>
      </trkpt>
      <trkpt lat="44.62705" lon="5.93245">
        <ele>2644.24</ele>
        <time>2014-06-22T10:27:30Z</time>
      </trkpt>
      <trkpt lat="44.62698" lon="5.93251">
        <ele>2645.69</ele>
        <time>2014-06-22T10:27:45Z</time>
      </trkpt>
      <trkpt lat="44.62696" lon="5.93259">
        <ele>2647.61</ele>
        <time>2014-06-22T10:28:00Z</time>
      </trkpt>
      <trkpt lat="44.62696" lon="5.93262">
        <ele>2648.57</ele>
        <time>2014-06-22T10:28:20Z</time>
      </trkpt>
      <trkpt lat="44.62696" lon="5.93262">
        <ele>2648.09</ele>
        <time>2014-06-22T10:28:49Z</time>
      </trkpt>
      <trkpt lat="44.62697" lon="5.93271">
        <ele>2650.01</ele>
        <time>2014-06-22T10:29:03Z</time>
      </trkpt>
      <trkpt lat="44.62697" lon="5.93279">
        <ele>2651.93</ele>
        <time>2014-06-22T10:29:17Z</time>
      </trkpt>
      <trkpt lat="44.62697" lon="5.9329">
        <ele>2654.34</ele>
        <time>2014-06-22T10:29:33Z</time>
      </trkpt>
      <trkpt lat="44.62698" lon="5.93295">
        <ele>2655.3</ele>
        <time>2014-06-22T10:29:56Z</time>
      </trkpt>
      <trkpt lat="44.62692" lon="5.93298">
        <ele>2657.7</ele>
        <time>2014-06-22T10:30:12Z</time>
      </trkpt>
      <trkpt lat="44.62688" lon="5.933">
        <ele>2659.14</ele>
        <time>2014-06-22T10:30:27Z</time>
      </trkpt>
      <trkpt lat="44.62685" lon="5.93307">
        <ele>2659.62</ele>
        <time>2014-06-22T10:30:44Z</time>
      </trkpt>
      <trkpt lat="44.62685" lon="5.93307">
        <ele>2659.62</ele>
        <time>2014-06-22T10:31:08Z</time>
      </trkpt>
      <trkpt lat="44.62683" lon="5.9331">
        <ele>2660.59</ele>
        <time>2014-06-22T10:31:34Z</time>
      </trkpt>
      <trkpt lat="44.62676" lon="5.93317">
        <ele>2662.51</ele>
        <time>2014-06-22T10:31:50Z</time>
      </trkpt>
      <trkpt lat="44.62669" lon="5.93321">
        <ele>2664.91</ele>
        <time>2014-06-22T10:32:05Z</time>
      </trkpt>
      <trkpt lat="44.62667" lon="5.93326">
        <ele>2666.35</ele>
        <time>2014-06-22T10:32:24Z</time>
      </trkpt>
      <trkpt lat="44.62666" lon="5.9333">
        <ele>2667.31</ele>
        <time>2014-06-22T10:32:40Z</time>
      </trkpt>
      <trkpt lat="44.62667" lon="5.93337">
        <ele>2668.28</ele>
        <time>2014-06-22T10:32:57Z</time>
      </trkpt>
      <trkpt lat="44.62668" lon="5.93338">
        <ele>2668.28</ele>
        <time>2014-06-22T10:33:20Z</time>
      </trkpt>
      <trkpt lat="44.62672" lon="5.93346">
        <ele>2670.2</ele>
        <time>2014-06-22T10:33:35Z</time>
      </trkpt>
      <trkpt lat="44.62673" lon="5.93356">
        <ele>2672.6</ele>
        <time>2014-06-22T10:33:53Z</time>
      </trkpt>
      <trkpt lat="44.62674" lon="5.9336">
        <ele>2674.52</ele>
        <time>2014-06-22T10:34:07Z</time>
      </trkpt>
      <trkpt lat="44.6267" lon="5.93361">
        <ele>2675.49</ele>
        <time>2014-06-22T10:34:26Z</time>
      </trkpt>
      <trkpt lat="44.62665" lon="5.93368">
        <ele>2676.93</ele>
        <time>2014-06-22T10:34:44Z</time>
      </trkpt>
      <trkpt lat="44.62665" lon="5.93368">
        <ele>2677.41</ele>
        <time>2014-06-22T10:35:10Z</time>
      </trkpt>
      <trkpt lat="44.6266" lon="5.93373">
        <ele>2679.33</ele>
        <time>2014-06-22T10:35:35Z</time>
      </trkpt>
      <trkpt lat="44.62658" lon="5.93382">
        <ele>2681.25</ele>
        <time>2014-06-22T10:35:51Z</time>
      </trkpt>
      <trkpt lat="44.62658" lon="5.93386">
        <ele>2682.22</ele>
        <time>2014-06-22T10:36:05Z</time>
      </trkpt>
      <trkpt lat="44.6266" lon="5.93389">
        <ele>2683.18</ele>
        <time>2014-06-22T10:36:20Z</time>
      </trkpt>
      <trkpt lat="44.62664" lon="5.93395">
        <ele>2684.14</ele>
        <time>2014-06-22T10:36:38Z</time>
      </trkpt>
      <trkpt lat="44.62664" lon="5.93403">
        <ele>2686.06</ele>
        <time>2014-06-22T10:36:55Z</time>
      </trkpt>
      <trkpt lat="44.62666" lon="5.93414">
        <ele>2687.98</ele>
        <time>2014-06-22T10:37:09Z</time>
      </trkpt>
      <trkpt lat="44.62668" lon="5.9342">
        <ele>2689.43</ele>
        <time>2014-06-22T10:37:25Z</time>
      </trkpt>
      <trkpt lat="44.62671" lon="5.93423">
        <ele>2690.39</ele>
        <time>2014-06-22T10:37:40Z</time>
      </trkpt>
      <trkpt lat="44.62672" lon="5.93427">
        <ele>2691.35</ele>
        <time>2014-06-22T10:37:54Z</time>
      </trkpt>
      <trkpt lat="44.62672" lon="5.93428">
        <ele>2692.31</ele>
        <time>2014-06-22T10:37:58Z</time>
      </trkpt>
      <trkpt lat="44.62673" lon="5.93432">
        <ele>2693.27</ele>
        <time>2014-06-22T10:38:23Z</time>
      </trkpt>
      <trkpt lat="44.62674" lon="5.93447">
        <ele>2695.19</ele>
        <time>2014-06-22T10:38:39Z</time>
      </trkpt>
      <trkpt lat="44.62676" lon="5.93458">
        <ele>2696.15</ele>
        <time>2014-06-22T10:38:54Z</time>
      </trkpt>
      <trkpt lat="44.62676" lon="5.9347">
        <ele>2698.08</ele>
        <time>2014-06-22T10:39:10Z</time>
      </trkpt>
      <trkpt lat="44.62676" lon="5.93479">
        <ele>2700.48</ele>
        <time>2014-06-22T10:39:26Z</time>
      </trkpt>
      <trkpt lat="44.62676" lon="5.9348">
        <ele>2701.44</ele>
        <time>2014-06-22T10:39:28Z</time>
      </trkpt>
      <trkpt lat="44.62674" lon="5.93482">
        <ele>2700</ele>
        <time>2014-06-22T10:39:30Z</time>
      </trkpt>
      <trkpt lat="44.62672" lon="5.93485">
        <ele>2700.96</ele>
        <time>2014-06-22T10:39:46Z</time>
      </trkpt>
      <trkpt lat="44.62671" lon="5.93492">
        <ele>2701.44</ele>
        <time>2014-06-22T10:40:06Z</time>
      </trkpt>
      <trkpt lat="44.6267" lon="5.93498">
        <ele>2703.36</ele>
        <time>2014-06-22T10:40:19Z</time>
      </trkpt>
      <trkpt lat="44.62667" lon="5.93501">
        <ele>2704.81</ele>
        <time>2014-06-22T10:40:32Z</time>
      </trkpt>
      <trkpt lat="44.62665" lon="5.93508">
        <ele>2705.77</ele>
        <time>2014-06-22T10:40:46Z</time>
      </trkpt>
      <trkpt lat="44.62666" lon="5.93509">
        <ele>2705.77</ele>
        <time>2014-06-22T10:40:58Z</time>
      </trkpt>
      <trkpt lat="44.62666" lon="5.93509">
        <ele>2705.29</ele>
        <time>2014-06-22T10:41:25Z</time>
      </trkpt>
      <trkpt lat="44.62668" lon="5.93511">
        <ele>2705.29</ele>
        <time>2014-06-22T10:41:44Z</time>
      </trkpt>
      <trkpt lat="44.62667" lon="5.9351">
        <ele>2705.77</ele>
        <time>2014-06-22T10:42:00Z</time>
      </trkpt>
      <trkpt lat="44.62668" lon="5.93511">
        <ele>2705.77</ele>
        <time>2014-06-22T10:42:14Z</time>
      </trkpt>
      <trkpt lat="44.62666" lon="5.93508">
        <ele>2706.25</ele>
        <time>2014-06-22T10:42:34Z</time>
      </trkpt>
      <trkpt lat="44.62667" lon="5.93508">
        <ele>2706.25</ele>
        <time>2014-06-22T10:42:51Z</time>
      </trkpt>
      <trkpt lat="44.62664" lon="5.93507">
        <ele>2707.21</ele>
        <time>2014-06-22T10:43:05Z</time>
      </trkpt>
      <trkpt lat="44.62664" lon="5.93507">
        <ele>2707.21</ele>
        <time>2014-06-22T10:43:24Z</time>
      </trkpt>
      <trkpt lat="44.62664" lon="5.93507">
        <ele>2707.21</ele>
        <time>2014-06-22T10:43:42Z</time>
      </trkpt>
      <trkpt lat="44.62664" lon="5.93507">
        <ele>2706.73</ele>
        <time>2014-06-22T10:44:10Z</time>
      </trkpt>
      <trkpt lat="44.62665" lon="5.93507">
        <ele>2706.73</ele>
        <time>2014-06-22T10:44:23Z</time>
      </trkpt>
      <trkpt lat="44.62665" lon="5.93507">
        <ele>2706.73</ele>
        <time>2014-06-22T10:44:42Z</time>
      </trkpt>
      <trkpt lat="44.62665" lon="5.93507">
        <ele>2707.21</ele>
        <time>2014-06-22T10:45:06Z</time>
      </trkpt>
      <trkpt lat="44.62665" lon="5.93508">
        <ele>2706.73</ele>
        <time>2014-06-22T10:45:21Z</time>
      </trkpt>
      <trkpt lat="44.62665" lon="5.93508">
        <ele>2706.25</ele>
        <time>2014-06-22T10:45:45Z</time>
      </trkpt>
      <trkpt lat="44.62665" lon="5.93508">
        <ele>2701.92</ele>
        <time>2014-06-22T10:45:48Z</time>
      </trkpt>
      <trkpt lat="44.62665" lon="5.93508">
        <ele>2708.65</ele>
        <time>2014-06-22T10:45:49Z</time>
      </trkpt>
      <trkpt lat="44.62665" lon="5.93508">
        <ele>2705.29</ele>
        <time>2014-06-22T10:46:02Z</time>
      </trkpt>
      <trkpt lat="44.62665" lon="5.93509">
        <ele>2706.73</ele>
        <time>2014-06-22T10:46:24Z</time>
      </trkpt>
      <trkpt lat="44.62664" lon="5.9351">
        <ele>2707.21</ele>
        <time>2014-06-22T10:46:47Z</time>
      </trkpt>
      <trkpt lat="44.62664" lon="5.9351">
        <ele>2707.69</ele>
        <time>2014-06-22T10:47:04Z</time>
      </trkpt>
      <trkpt lat="44.62665" lon="5.93509">
        <ele>2707.21</ele>
        <time>2014-06-22T10:47:35Z</time>
      </trkpt>
      <trkpt lat="44.62665" lon="5.9351">
        <ele>2707.21</ele>
        <time>2014-06-22T10:47:53Z</time>
      </trkpt>
      <trkpt lat="44.62665" lon="5.9351">
        <ele>2707.69</ele>
        <time>2014-06-22T10:48:22Z</time>
      </trkpt>
      <trkpt lat="44.62663" lon="5.93507">
        <ele>2707.69</ele>
        <time>2014-06-22T10:48:37Z</time>
      </trkpt>
      <trkpt lat="44.62663" lon="5.93507">
        <ele>2707.21</ele>
        <time>2014-06-22T10:49:10Z</time>
      </trkpt>
      <trkpt lat="44.62663" lon="5.93507">
        <ele>2707.21</ele>
        <time>2014-06-22T10:49:30Z</time>
      </trkpt>
      <trkpt lat="44.62662" lon="5.93507">
        <ele>2707.69</ele>
        <time>2014-06-22T10:49:59Z</time>
      </trkpt>
      <trkpt lat="44.62663" lon="5.93508">
        <ele>2708.17</ele>
        <time>2014-06-22T10:50:17Z</time>
      </trkpt>
      <trkpt lat="44.62663" lon="5.93508">
        <ele>2707.69</ele>
        <time>2014-06-22T10:50:32Z</time>
      </trkpt>
      <trkpt lat="44.62663" lon="5.93508">
        <ele>2708.65</ele>
        <time>2014-06-22T10:50:47Z</time>
      </trkpt>
      <trkpt lat="44.62663" lon="5.93508">
        <ele>2707.21</ele>
        <time>2014-06-22T10:51:01Z</time>
      </trkpt>
      <trkpt lat="44.62663" lon="5.93508">
        <ele>2707.69</ele>
        <time>2014-06-22T10:51:19Z</time>
      </trkpt>
      <trkpt lat="44.62664" lon="5.93508">
        <ele>2708.17</ele>
        <time>2014-06-22T10:51:44Z</time>
      </trkpt>
      <trkpt lat="44.62664" lon="5.93508">
        <ele>2707.69</ele>
        <time>2014-06-22T10:52:08Z</time>
      </trkpt>
      <trkpt lat="44.62664" lon="5.93508">
        <ele>2708.17</ele>
        <time>2014-06-22T10:52:34Z</time>
      </trkpt>
      <trkpt lat="44.62664" lon="5.93509">
        <ele>2708.17</ele>
        <time>2014-06-22T10:53:06Z</time>
      </trkpt>
      <trkpt lat="44.62664" lon="5.93509">
        <ele>2707.69</ele>
        <time>2014-06-22T10:53:27Z</time>
      </trkpt>
      <trkpt lat="44.62664" lon="5.93509">
        <ele>2707.69</ele>
        <time>2014-06-22T10:53:55Z</time>
      </trkpt>
      <trkpt lat="44.62664" lon="5.93509">
        <ele>2708.17</ele>
        <time>2014-06-22T10:54:34Z</time>
      </trkpt>
      <trkpt lat="44.62665" lon="5.93509">
        <ele>2708.65</ele>
        <time>2014-06-22T10:55:01Z</time>
      </trkpt>
      <trkpt lat="44.62665" lon="5.93509">
        <ele>2708.17</ele>
        <time>2014-06-22T10:55:37Z</time>
      </trkpt>
      <trkpt lat="44.62665" lon="5.93509">
        <ele>2707.69</ele>
        <time>2014-06-22T10:56:09Z</time>
      </trkpt>
      <trkpt lat="44.62665" lon="5.93509">
        <ele>2708.65</ele>
        <time>2014-06-22T10:56:41Z</time>
      </trkpt>
      <trkpt lat="44.62665" lon="5.93509">
        <ele>2708.17</ele>
        <time>2014-06-22T10:57:15Z</time>
      </trkpt>
      <trkpt lat="44.62665" lon="5.93509">
        <ele>2709.13</ele>
        <time>2014-06-22T10:57:47Z</time>
      </trkpt>
      <trkpt lat="44.62666" lon="5.93509">
        <ele>2709.61</ele>
        <time>2014-06-22T10:58:16Z</time>
      </trkpt>
      <trkpt lat="44.62666" lon="5.93509">
        <ele>2709.13</ele>
        <time>2014-06-22T10:58:52Z</time>
      </trkpt>
      <trkpt lat="44.62665" lon="5.9351">
        <ele>2708.65</ele>
        <time>2014-06-22T10:59:30Z</time>
      </trkpt>
      <trkpt lat="44.62665" lon="5.9351">
        <ele>2708.17</ele>
        <time>2014-06-22T11:00:08Z</time>
      </trkpt>
      <trkpt lat="44.62665" lon="5.93509">
        <ele>2707.69</ele>
        <time>2014-06-22T11:00:25Z</time>
      </trkpt>
      <trkpt lat="44.62665" lon="5.93509">
        <ele>2708.65</ele>
        <time>2014-06-22T11:00:45Z</time>
      </trkpt>
      <trkpt lat="44.62665" lon="5.93508">
        <ele>2708.65</ele>
        <time>2014-06-22T11:01:08Z</time>
      </trkpt>
      <trkpt lat="44.62665" lon="5.93507">
        <ele>2709.13</ele>
        <time>2014-06-22T11:01:22Z</time>
      </trkpt>
      <trkpt lat="44.62665" lon="5.93507">
        <ele>2708.17</ele>
        <time>2014-06-22T11:01:32Z</time>
      </trkpt>
      <trkpt lat="44.62665" lon="5.93507">
        <ele>2708.65</ele>
        <time>2014-06-22T11:01:48Z</time>
      </trkpt>
      <trkpt lat="44.62664" lon="5.93509">
        <ele>2708.65</ele>
        <time>2014-06-22T11:02:09Z</time>
      </trkpt>
      <trkpt lat="44.62664" lon="5.93509">
        <ele>2708.65</ele>
        <time>2014-06-22T11:02:24Z</time>
      </trkpt>
      <trkpt lat="44.62664" lon="5.93509">
        <ele>2707.69</ele>
        <time>2014-06-22T11:02:53Z</time>
      </trkpt>
      <trkpt lat="44.62664" lon="5.93509">
        <ele>2709.13</ele>
        <time>2014-06-22T11:03:07Z</time>
      </trkpt>
      <trkpt lat="44.62664" lon="5.93509">
        <ele>2708.17</ele>
        <time>2014-06-22T11:03:28Z</time>
      </trkpt>
      <trkpt lat="44.62664" lon="5.9351">
        <ele>2708.65</ele>
        <time>2014-06-22T11:03:54Z</time>
      </trkpt>
      <trkpt lat="44.62665" lon="5.93509">
        <ele>2709.13</ele>
        <time>2014-06-22T11:04:17Z</time>
      </trkpt>
      <trkpt lat="44.62665" lon="5.93509">
        <ele>2709.13</ele>
        <time>2014-06-22T11:04:52Z</time>
      </trkpt>
      <trkpt lat="44.62665" lon="5.93509">
        <ele>2708.65</ele>
        <time>2014-06-22T11:05:22Z</time>
      </trkpt>
      <trkpt lat="44.62665" lon="5.93509">
        <ele>2709.13</ele>
        <time>2014-06-22T11:05:37Z</time>
      </trkpt>
      <trkpt lat="44.62665" lon="5.93509">
        <ele>2709.13</ele>
        <time>2014-06-22T11:06:03Z</time>
      </trkpt>
      <trkpt lat="44.62665" lon="5.93509">
        <ele>2709.13</ele>
        <time>2014-06-22T11:06:14Z</time>
      </trkpt>
      <trkpt lat="44.62665" lon="5.93509">
        <ele>2710.09</ele>
        <time>2014-06-22T11:06:28Z</time>
      </trkpt>
      <trkpt lat="44.62665" lon="5.93509">
        <ele>2709.61</ele>
        <time>2014-06-22T11:06:45Z</time>
      </trkpt>
      <trkpt lat="44.62664" lon="5.93509">
        <ele>2709.13</ele>
        <time>2014-06-22T11:07:08Z</time>
      </trkpt>
      <trkpt lat="44.62664" lon="5.93509">
        <ele>2709.13</ele>
        <time>2014-06-22T11:07:27Z</time>
      </trkpt>
      <trkpt lat="44.62664" lon="5.93508">
        <ele>2709.13</ele>
        <time>2014-06-22T11:07:55Z</time>
      </trkpt>
      <trkpt lat="44.62665" lon="5.93509">
        <ele>2709.13</ele>
        <time>2014-06-22T11:08:21Z</time>
      </trkpt>
      <trkpt lat="44.62665" lon="5.93513">
        <ele>2710.09</ele>
        <time>2014-06-22T11:08:25Z</time>
      </trkpt>
      <trkpt lat="44.62666" lon="5.93512">
        <ele>2708.65</ele>
        <time>2014-06-22T11:08:42Z</time>
      </trkpt>
      <trkpt lat="44.62667" lon="5.93511">
        <ele>2709.61</ele>
        <time>2014-06-22T11:09:09Z</time>
      </trkpt>
      <trkpt lat="44.62668" lon="5.93511">
        <ele>2709.61</ele>
        <time>2014-06-22T11:09:27Z</time>
      </trkpt>
      <trkpt lat="44.62667" lon="5.93508">
        <ele>2709.13</ele>
        <time>2014-06-22T11:09:40Z</time>
      </trkpt>
      <trkpt lat="44.62668" lon="5.93504">
        <ele>2707.69</ele>
        <time>2014-06-22T11:09:52Z</time>
      </trkpt>
      <trkpt lat="44.62668" lon="5.93504">
        <ele>2708.17</ele>
        <time>2014-06-22T11:10:08Z</time>
      </trkpt>
      <trkpt lat="44.62669" lon="5.93505">
        <ele>2708.17</ele>
        <time>2014-06-22T11:10:22Z</time>
      </trkpt>
      <trkpt lat="44.62669" lon="5.93505">
        <ele>2708.65</ele>
        <time>2014-06-22T11:10:37Z</time>
      </trkpt>
      <trkpt lat="44.62669" lon="5.93505">
        <ele>2710.57</ele>
        <time>2014-06-22T11:10:44Z</time>
      </trkpt>
      <trkpt lat="44.62669" lon="5.93505">
        <ele>2714.42</ele>
        <time>2014-06-22T11:10:47Z</time>
      </trkpt>
      <trkpt lat="44.62668" lon="5.93504">
        <ele>2711.06</ele>
        <time>2014-06-22T11:10:49Z</time>
      </trkpt>
      <trkpt lat="44.62668" lon="5.93503">
        <ele>2711.54</ele>
        <time>2014-06-22T11:10:50Z</time>
      </trkpt>
      <trkpt lat="44.62668" lon="5.935">
        <ele>2708.65</ele>
        <time>2014-06-22T11:10:58Z</time>
      </trkpt>
      <trkpt lat="44.62669" lon="5.93497">
        <ele>2707.21</ele>
        <time>2014-06-22T11:11:12Z</time>
      </trkpt>
      <trkpt lat="44.62671" lon="5.93493">
        <ele>2706.73</ele>
        <time>2014-06-22T11:11:32Z</time>
      </trkpt>
      <trkpt lat="44.62676" lon="5.93478">
        <ele>2704.81</ele>
        <time>2014-06-22T11:11:46Z</time>
      </trkpt>
      <trkpt lat="44.62676" lon="5.93475">
        <ele>2703.36</ele>
        <time>2014-06-22T11:12:00Z</time>
      </trkpt>
      <trkpt lat="44.62677" lon="5.93463">
        <ele>2702.4</ele>
        <time>2014-06-22T11:12:14Z</time>
      </trkpt>
      <trkpt lat="44.62677" lon="5.93458">
        <ele>2700.96</ele>
        <time>2014-06-22T11:12:29Z</time>
      </trkpt>
      <trkpt lat="44.62677" lon="5.93458">
        <ele>2701.44</ele>
        <time>2014-06-22T11:12:44Z</time>
      </trkpt>
      <trkpt lat="44.62677" lon="5.93457">
        <ele>2700.96</ele>
        <time>2014-06-22T11:12:51Z</time>
      </trkpt>
      <trkpt lat="44.62675" lon="5.93445">
        <ele>2699.52</ele>
        <time>2014-06-22T11:13:05Z</time>
      </trkpt>
      <trkpt lat="44.62672" lon="5.9343">
        <ele>2697.6</ele>
        <time>2014-06-22T11:13:20Z</time>
      </trkpt>
      <trkpt lat="44.62671" lon="5.93425">
        <ele>2695.67</ele>
        <time>2014-06-22T11:13:35Z</time>
      </trkpt>
      <trkpt lat="44.62671" lon="5.93426">
        <ele>2696.64</ele>
        <time>2014-06-22T11:13:53Z</time>
      </trkpt>
      <trkpt lat="44.62671" lon="5.93426">
        <ele>2697.12</ele>
        <time>2014-06-22T11:14:11Z</time>
      </trkpt>
      <trkpt lat="44.6267" lon="5.9342">
        <ele>2696.15</ele>
        <time>2014-06-22T11:14:22Z</time>
      </trkpt>
      <trkpt lat="44.62664" lon="5.93406">
        <ele>2692.79</ele>
        <time>2014-06-22T11:14:37Z</time>
      </trkpt>
      <trkpt lat="44.62661" lon="5.93401">
        <ele>2690.87</ele>
        <time>2014-06-22T11:14:49Z</time>
      </trkpt>
      <trkpt lat="44.62656" lon="5.93388">
        <ele>2688.94</ele>
        <time>2014-06-22T11:15:04Z</time>
      </trkpt>
      <trkpt lat="44.62659" lon="5.93382">
        <ele>2687.02</ele>
        <time>2014-06-22T11:15:13Z</time>
      </trkpt>
      <trkpt lat="44.62658" lon="5.93376">
        <ele>2684.62</ele>
        <time>2014-06-22T11:15:26Z</time>
      </trkpt>
      <trkpt lat="44.62667" lon="5.93371">
        <ele>2682.22</ele>
        <time>2014-06-22T11:15:42Z</time>
      </trkpt>
      <trkpt lat="44.62671" lon="5.93364">
        <ele>2680.29</ele>
        <time>2014-06-22T11:15:54Z</time>
      </trkpt>
      <trkpt lat="44.62673" lon="5.93357">
        <ele>2678.85</ele>
        <time>2014-06-22T11:16:05Z</time>
      </trkpt>
      <trkpt lat="44.62672" lon="5.93347">
        <ele>2676.45</ele>
        <time>2014-06-22T11:16:18Z</time>
      </trkpt>
      <trkpt lat="44.62669" lon="5.93338">
        <ele>2674.52</ele>
        <time>2014-06-22T11:16:32Z</time>
      </trkpt>
      <trkpt lat="44.62666" lon="5.93328">
        <ele>2672.12</ele>
        <time>2014-06-22T11:16:45Z</time>
      </trkpt>
      <trkpt lat="44.62671" lon="5.93324">
        <ele>2670.68</ele>
        <time>2014-06-22T11:16:58Z</time>
      </trkpt>
      <trkpt lat="44.62678" lon="5.9332">
        <ele>2667.8</ele>
        <time>2014-06-22T11:17:12Z</time>
      </trkpt>
      <trkpt lat="44.62678" lon="5.9332">
        <ele>2668.28</ele>
        <time>2014-06-22T11:17:38Z</time>
      </trkpt>
      <trkpt lat="44.62688" lon="5.93308">
        <ele>2665.39</ele>
        <time>2014-06-22T11:17:52Z</time>
      </trkpt>
      <trkpt lat="44.62688" lon="5.93308">
        <ele>2666.35</ele>
        <time>2014-06-22T11:17:53Z</time>
      </trkpt>
      <trkpt lat="44.62693" lon="5.93309">
        <ele>2665.87</ele>
        <time>2014-06-22T11:18:07Z</time>
      </trkpt>
      <trkpt lat="44.627" lon="5.93303">
        <ele>2662.99</ele>
        <time>2014-06-22T11:18:20Z</time>
      </trkpt>
      <trkpt lat="44.62701" lon="5.93291">
        <ele>2660.59</ele>
        <time>2014-06-22T11:18:31Z</time>
      </trkpt>
      <trkpt lat="44.62697" lon="5.93278">
        <ele>2659.14</ele>
        <time>2014-06-22T11:18:45Z</time>
      </trkpt>
      <trkpt lat="44.62698" lon="5.93274">
        <ele>2657.7</ele>
        <time>2014-06-22T11:18:56Z</time>
      </trkpt>
      <trkpt lat="44.62698" lon="5.93274">
        <ele>2657.22</ele>
        <time>2014-06-22T11:19:08Z</time>
      </trkpt>
      <trkpt lat="44.62697" lon="5.93266">
        <ele>2655.3</ele>
        <time>2014-06-22T11:19:21Z</time>
      </trkpt>
      <trkpt lat="44.62698" lon="5.93255">
        <ele>2653.38</ele>
        <time>2014-06-22T11:19:33Z</time>
      </trkpt>
      <trkpt lat="44.62705" lon="5.9325">
        <ele>2651.93</ele>
        <time>2014-06-22T11:19:44Z</time>
      </trkpt>
      <trkpt lat="44.62707" lon="5.93237">
        <ele>2648.57</ele>
        <time>2014-06-22T11:19:57Z</time>
      </trkpt>
      <trkpt lat="44.62706" lon="5.93228">
        <ele>2647.13</ele>
        <time>2014-06-22T11:20:10Z</time>
      </trkpt>
      <trkpt lat="44.62709" lon="5.93221">
        <ele>2644.72</ele>
        <time>2014-06-22T11:20:22Z</time>
      </trkpt>
      <trkpt lat="44.6271" lon="5.93221">
        <ele>2644.72</ele>
        <time>2014-06-22T11:20:24Z</time>
      </trkpt>
      <trkpt lat="44.62716" lon="5.93219">
        <ele>2642.8</ele>
        <time>2014-06-22T11:20:40Z</time>
      </trkpt>
      <trkpt lat="44.62717" lon="5.93211">
        <ele>2640.88</ele>
        <time>2014-06-22T11:20:52Z</time>
      </trkpt>
      <trkpt lat="44.62716" lon="5.93206">
        <ele>2639.44</ele>
        <time>2014-06-22T11:20:57Z</time>
      </trkpt>
      <trkpt lat="44.62722" lon="5.93198">
        <ele>2638.48</ele>
        <time>2014-06-22T11:21:10Z</time>
      </trkpt>
      <trkpt lat="44.62729" lon="5.93194">
        <ele>2636.07</ele>
        <time>2014-06-22T11:21:22Z</time>
      </trkpt>
      <trkpt lat="44.6273" lon="5.93183">
        <ele>2634.15</ele>
        <time>2014-06-22T11:21:36Z</time>
      </trkpt>
      <trkpt lat="44.62735" lon="5.93172">
        <ele>2631.75</ele>
        <time>2014-06-22T11:21:50Z</time>
      </trkpt>
      <trkpt lat="44.62735" lon="5.9316">
        <ele>2629.34</ele>
        <time>2014-06-22T11:22:03Z</time>
      </trkpt>
      <trkpt lat="44.62741" lon="5.93154">
        <ele>2627.42</ele>
        <time>2014-06-22T11:22:14Z</time>
      </trkpt>
      <trkpt lat="44.62751" lon="5.93148">
        <ele>2625.98</ele>
        <time>2014-06-22T11:22:29Z</time>
      </trkpt>
      <trkpt lat="44.62754" lon="5.93146">
        <ele>2624.54</ele>
        <time>2014-06-22T11:22:36Z</time>
      </trkpt>
      <trkpt lat="44.62756" lon="5.93133">
        <ele>2623.09</ele>
        <time>2014-06-22T11:22:50Z</time>
      </trkpt>
      <trkpt lat="44.62758" lon="5.93128">
        <ele>2622.13</ele>
        <time>2014-06-22T11:22:55Z</time>
      </trkpt>
      <trkpt lat="44.62762" lon="5.93119">
        <ele>2620.21</ele>
        <time>2014-06-22T11:23:08Z</time>
      </trkpt>
      <trkpt lat="44.62765" lon="5.93111">
        <ele>2619.25</ele>
        <time>2014-06-22T11:23:21Z</time>
      </trkpt>
      <trkpt lat="44.62772" lon="5.93101">
        <ele>2616.85</ele>
        <time>2014-06-22T11:23:36Z</time>
      </trkpt>
      <trkpt lat="44.62775" lon="5.9309">
        <ele>2615.4</ele>
        <time>2014-06-22T11:23:48Z</time>
      </trkpt>
      <trkpt lat="44.62777" lon="5.93086">
        <ele>2613.96</ele>
        <time>2014-06-22T11:23:52Z</time>
      </trkpt>
      <trkpt lat="44.62783" lon="5.93074">
        <ele>2611.56</ele>
        <time>2014-06-22T11:24:06Z</time>
      </trkpt>
      <trkpt lat="44.6279" lon="5.93069">
        <ele>2610.6</ele>
        <time>2014-06-22T11:24:19Z</time>
      </trkpt>
      <trkpt lat="44.62798" lon="5.93062">
        <ele>2609.16</ele>
        <time>2014-06-22T11:24:34Z</time>
      </trkpt>
      <trkpt lat="44.62803" lon="5.93048">
        <ele>2606.75</ele>
        <time>2014-06-22T11:24:49Z</time>
      </trkpt>
      <trkpt lat="44.62804" lon="5.93037">
        <ele>2604.83</ele>
        <time>2014-06-22T11:25:02Z</time>
      </trkpt>
      <trkpt lat="44.6281" lon="5.93029">
        <ele>2602.91</ele>
        <time>2014-06-22T11:25:16Z</time>
      </trkpt>
      <trkpt lat="44.62814" lon="5.93021">
        <ele>2601.95</ele>
        <time>2014-06-22T11:25:28Z</time>
      </trkpt>
      <trkpt lat="44.6282" lon="5.93011">
        <ele>2600.02</ele>
        <time>2014-06-22T11:25:41Z</time>
      </trkpt>
      <trkpt lat="44.62825" lon="5.93003">
        <ele>2598.1</ele>
        <time>2014-06-22T11:25:54Z</time>
      </trkpt>
      <trkpt lat="44.62827" lon="5.9299">
        <ele>2594.74</ele>
        <time>2014-06-22T11:26:10Z</time>
      </trkpt>
      <trkpt lat="44.62832" lon="5.92981">
        <ele>2593.77</ele>
        <time>2014-06-22T11:26:22Z</time>
      </trkpt>
      <trkpt lat="44.62836" lon="5.9297">
        <ele>2590.41</ele>
        <time>2014-06-22T11:26:37Z</time>
      </trkpt>
      <trkpt lat="44.6284" lon="5.92969">
        <ele>2588.97</ele>
        <time>2014-06-22T11:26:50Z</time>
      </trkpt>
      <trkpt lat="44.62843" lon="5.92958">
        <ele>2586.08</ele>
        <time>2014-06-22T11:27:03Z</time>
      </trkpt>
      <trkpt lat="44.62843" lon="5.92944">
        <ele>2584.64</ele>
        <time>2014-06-22T11:27:18Z</time>
      </trkpt>
      <trkpt lat="44.62844" lon="5.92938">
        <ele>2583.2</ele>
        <time>2014-06-22T11:27:25Z</time>
      </trkpt>
      <trkpt lat="44.62848" lon="5.92936">
        <ele>2581.76</ele>
        <time>2014-06-22T11:27:39Z</time>
      </trkpt>
      <trkpt lat="44.6285" lon="5.92925">
        <ele>2579.84</ele>
        <time>2014-06-22T11:27:52Z</time>
      </trkpt>
      <trkpt lat="44.62852" lon="5.92914">
        <ele>2576.95</ele>
        <time>2014-06-22T11:28:08Z</time>
      </trkpt>
      <trkpt lat="44.62856" lon="5.92907">
        <ele>2575.03</ele>
        <time>2014-06-22T11:28:22Z</time>
      </trkpt>
      <trkpt lat="44.6286" lon="5.92908">
        <ele>2574.55</ele>
        <time>2014-06-22T11:28:35Z</time>
      </trkpt>
      <trkpt lat="44.62864" lon="5.92906">
        <ele>2573.59</ele>
        <time>2014-06-22T11:28:49Z</time>
      </trkpt>
      <trkpt lat="44.62864" lon="5.92903">
        <ele>2572.63</ele>
        <time>2014-06-22T11:29:05Z</time>
      </trkpt>
      <trkpt lat="44.62865" lon="5.92887">
        <ele>2570.22</ele>
        <time>2014-06-22T11:29:20Z</time>
      </trkpt>
      <trkpt lat="44.62871" lon="5.92877">
        <ele>2568.78</ele>
        <time>2014-06-22T11:29:35Z</time>
      </trkpt>
      <trkpt lat="44.62873" lon="5.92875">
        <ele>2567.82</ele>
        <time>2014-06-22T11:29:38Z</time>
      </trkpt>
      <trkpt lat="44.62878" lon="5.92862">
        <ele>2565.9</ele>
        <time>2014-06-22T11:29:53Z</time>
      </trkpt>
      <trkpt lat="44.62883" lon="5.92854">
        <ele>2564.93</ele>
        <time>2014-06-22T11:30:06Z</time>
      </trkpt>
      <trkpt lat="44.62885" lon="5.92851">
        <ele>2564.45</ele>
        <time>2014-06-22T11:30:20Z</time>
      </trkpt>
      <trkpt lat="44.62885" lon="5.92851">
        <ele>2563.01</ele>
        <time>2014-06-22T11:30:43Z</time>
      </trkpt>
      <trkpt lat="44.62886" lon="5.92849">
        <ele>2561.57</ele>
        <time>2014-06-22T11:30:58Z</time>
      </trkpt>
      <trkpt lat="44.6289" lon="5.92842">
        <ele>2560.61</ele>
        <time>2014-06-22T11:31:03Z</time>
      </trkpt>
      <trkpt lat="44.62889" lon="5.92826">
        <ele>2559.17</ele>
        <time>2014-06-22T11:31:18Z</time>
      </trkpt>
      <trkpt lat="44.62889" lon="5.92816">
        <ele>2557.24</ele>
        <time>2014-06-22T11:31:30Z</time>
      </trkpt>
      <trkpt lat="44.62894" lon="5.92808">
        <ele>2555.8</ele>
        <time>2014-06-22T11:31:43Z</time>
      </trkpt>
      <trkpt lat="44.62898" lon="5.92807">
        <ele>2553.88</ele>
        <time>2014-06-22T11:31:56Z</time>
      </trkpt>
      <trkpt lat="44.62904" lon="5.92803">
        <ele>2553.4</ele>
        <time>2014-06-22T11:32:08Z</time>
      </trkpt>
      <trkpt lat="44.62904" lon="5.92803">
        <ele>2550.51</ele>
        <time>2014-06-22T11:32:26Z</time>
      </trkpt>
      <trkpt lat="44.62899" lon="5.92786">
        <ele>2549.55</ele>
        <time>2014-06-22T11:32:41Z</time>
      </trkpt>
      <trkpt lat="44.629" lon="5.92778">
        <ele>2548.59</ele>
        <time>2014-06-22T11:32:54Z</time>
      </trkpt>
      <trkpt lat="44.629" lon="5.9277">
        <ele>2547.63</ele>
        <time>2014-06-22T11:33:07Z</time>
      </trkpt>
      <trkpt lat="44.62902" lon="5.92766">
        <ele>2546.67</ele>
        <time>2014-06-22T11:33:22Z</time>
      </trkpt>
      <trkpt lat="44.62901" lon="5.92762">
        <ele>2546.67</ele>
        <time>2014-06-22T11:33:33Z</time>
      </trkpt>
      <trkpt lat="44.62901" lon="5.92747">
        <ele>2545.71</ele>
        <time>2014-06-22T11:33:48Z</time>
      </trkpt>
      <trkpt lat="44.62901" lon="5.92732">
        <ele>2546.19</ele>
        <time>2014-06-22T11:34:01Z</time>
      </trkpt>
      <trkpt lat="44.629" lon="5.92723">
        <ele>2544.27</ele>
        <time>2014-06-22T11:34:09Z</time>
      </trkpt>
      <trkpt lat="44.62907" lon="5.92709">
        <ele>2543.31</ele>
        <time>2014-06-22T11:34:24Z</time>
      </trkpt>
      <trkpt lat="44.62909" lon="5.92695">
        <ele>2542.82</ele>
        <time>2014-06-22T11:34:37Z</time>
      </trkpt>
      <trkpt lat="44.62912" lon="5.92683">
        <ele>2541.38</ele>
        <time>2014-06-22T11:34:48Z</time>
      </trkpt>
      <trkpt lat="44.62911" lon="5.92667">
        <ele>2539.94</ele>
        <time>2014-06-22T11:35:04Z</time>
      </trkpt>
      <trkpt lat="44.62915" lon="5.92652">
        <ele>2537.54</ele>
        <time>2014-06-22T11:35:20Z</time>
      </trkpt>
      <trkpt lat="44.62915" lon="5.92649">
        <ele>2539.46</ele>
        <time>2014-06-22T11:35:35Z</time>
      </trkpt>
      <trkpt lat="44.62916" lon="5.92648">
        <ele>2537.54</ele>
        <time>2014-06-22T11:35:38Z</time>
      </trkpt>
      <trkpt lat="44.62918" lon="5.92636">
        <ele>2536.1</ele>
        <time>2014-06-22T11:35:51Z</time>
      </trkpt>
      <trkpt lat="44.62921" lon="5.92623">
        <ele>2533.69</ele>
        <time>2014-06-22T11:36:06Z</time>
      </trkpt>
      <trkpt lat="44.6292" lon="5.92611">
        <ele>2532.73</ele>
        <time>2014-06-22T11:36:20Z</time>
      </trkpt>
      <trkpt lat="44.62924" lon="5.926">
        <ele>2531.29</ele>
        <time>2014-06-22T11:36:32Z</time>
      </trkpt>
      <trkpt lat="44.62926" lon="5.92585">
        <ele>2530.81</ele>
        <time>2014-06-22T11:36:48Z</time>
      </trkpt>
      <trkpt lat="44.62932" lon="5.92572">
        <ele>2528.4</ele>
        <time>2014-06-22T11:37:04Z</time>
      </trkpt>
      <trkpt lat="44.62934" lon="5.92561">
        <ele>2526.48</ele>
        <time>2014-06-22T11:37:18Z</time>
      </trkpt>
      <trkpt lat="44.62938" lon="5.92548">
        <ele>2525.04</ele>
        <time>2014-06-22T11:37:31Z</time>
      </trkpt>
      <trkpt lat="44.62941" lon="5.92539">
        <ele>2523.12</ele>
        <time>2014-06-22T11:37:45Z</time>
      </trkpt>
      <trkpt lat="44.62944" lon="5.92529">
        <ele>2523.12</ele>
        <time>2014-06-22T11:37:59Z</time>
      </trkpt>
      <trkpt lat="44.62946" lon="5.92522">
        <ele>2522.64</ele>
        <time>2014-06-22T11:38:05Z</time>
      </trkpt>
      <trkpt lat="44.62952" lon="5.92511">
        <ele>2521.68</ele>
        <time>2014-06-22T11:38:18Z</time>
      </trkpt>
      <trkpt lat="44.62957" lon="5.92502">
        <ele>2521.19</ele>
        <time>2014-06-22T11:38:31Z</time>
      </trkpt>
      <trkpt lat="44.62962" lon="5.92491">
        <ele>2519.75</ele>
        <time>2014-06-22T11:38:45Z</time>
      </trkpt>
      <trkpt lat="44.62966" lon="5.92488">
        <ele>2519.75</ele>
        <time>2014-06-22T11:38:51Z</time>
      </trkpt>
      <trkpt lat="44.62975" lon="5.92476">
        <ele>2519.75</ele>
        <time>2014-06-22T11:39:07Z</time>
      </trkpt>
      <trkpt lat="44.62977" lon="5.92474">
        <ele>2520.23</ele>
        <time>2014-06-22T11:39:10Z</time>
      </trkpt>
      <trkpt lat="44.62982" lon="5.92466">
        <ele>2520.71</ele>
        <time>2014-06-22T11:39:24Z</time>
      </trkpt>
      <trkpt lat="44.62983" lon="5.92467">
        <ele>2520.23</ele>
        <time>2014-06-22T11:39:39Z</time>
      </trkpt>
      <trkpt lat="44.6299" lon="5.92465">
        <ele>2520.23</ele>
        <time>2014-06-22T11:39:52Z</time>
      </trkpt>
      <trkpt lat="44.62992" lon="5.92466">
        <ele>2520.23</ele>
        <time>2014-06-22T11:39:55Z</time>
      </trkpt>
      <trkpt lat="44.63002" lon="5.92461">
        <ele>2519.75</ele>
        <time>2014-06-22T11:40:10Z</time>
      </trkpt>
      <trkpt lat="44.63009" lon="5.92454">
        <ele>2520.71</ele>
        <time>2014-06-22T11:40:26Z</time>
      </trkpt>
      <trkpt lat="44.63014" lon="5.92448">
        <ele>2521.68</ele>
        <time>2014-06-22T11:40:40Z</time>
      </trkpt>
      <trkpt lat="44.63017" lon="5.92446">
        <ele>2523.12</ele>
        <time>2014-06-22T11:41:01Z</time>
      </trkpt>
      <trkpt lat="44.63022" lon="5.92441">
        <ele>2523.12</ele>
        <time>2014-06-22T11:41:15Z</time>
      </trkpt>
      <trkpt lat="44.63026" lon="5.92436">
        <ele>2524.56</ele>
        <time>2014-06-22T11:41:27Z</time>
      </trkpt>
      <trkpt lat="44.63027" lon="5.92434">
        <ele>2525.04</ele>
        <time>2014-06-22T11:41:43Z</time>
      </trkpt>
      <trkpt lat="44.63032" lon="5.92429">
        <ele>2526.96</ele>
        <time>2014-06-22T11:42:03Z</time>
      </trkpt>
      <trkpt lat="44.63033" lon="5.92421">
        <ele>2527.44</ele>
        <time>2014-06-22T11:42:18Z</time>
      </trkpt>
      <trkpt lat="44.63034" lon="5.92416">
        <ele>2529.37</ele>
        <time>2014-06-22T11:42:34Z</time>
      </trkpt>
      <trkpt lat="44.63034" lon="5.92403">
        <ele>2530.33</ele>
        <time>2014-06-22T11:42:48Z</time>
      </trkpt>
      <trkpt lat="44.63034" lon="5.92399">
        <ele>2531.29</ele>
        <time>2014-06-22T11:42:52Z</time>
      </trkpt>
      <trkpt lat="44.63033" lon="5.92385">
        <ele>2531.77</ele>
        <time>2014-06-22T11:43:08Z</time>
      </trkpt>
      <trkpt lat="44.63034" lon="5.92381">
        <ele>2532.73</ele>
        <time>2014-06-22T11:43:25Z</time>
      </trkpt>
      <trkpt lat="44.63036" lon="5.92369">
        <ele>2534.65</ele>
        <time>2014-06-22T11:43:39Z</time>
      </trkpt>
      <trkpt lat="44.63038" lon="5.92359">
        <ele>2535.61</ele>
        <time>2014-06-22T11:43:52Z</time>
      </trkpt>
      <trkpt lat="44.63042" lon="5.92347">
        <ele>2537.54</ele>
        <time>2014-06-22T11:44:07Z</time>
      </trkpt>
      <trkpt lat="44.63044" lon="5.92343">
        <ele>2538.02</ele>
        <time>2014-06-22T11:44:22Z</time>
      </trkpt>
      <trkpt lat="44.63045" lon="5.92338">
        <ele>2538.5</ele>
        <time>2014-06-22T11:44:44Z</time>
      </trkpt>
      <trkpt lat="44.63047" lon="5.92329">
        <ele>2541.38</ele>
        <time>2014-06-22T11:44:56Z</time>
      </trkpt>
      <trkpt lat="44.63052" lon="5.92321">
        <ele>2542.82</ele>
        <time>2014-06-22T11:45:10Z</time>
      </trkpt>
      <trkpt lat="44.63058" lon="5.92311">
        <ele>2542.34</ele>
        <time>2014-06-22T11:45:23Z</time>
      </trkpt>
      <trkpt lat="44.63062" lon="5.92299">
        <ele>2543.79</ele>
        <time>2014-06-22T11:45:36Z</time>
      </trkpt>
      <trkpt lat="44.63066" lon="5.92287">
        <ele>2544.75</ele>
        <time>2014-06-22T11:45:50Z</time>
      </trkpt>
      <trkpt lat="44.63068" lon="5.92282">
        <ele>2543.79</ele>
        <time>2014-06-22T11:45:59Z</time>
      </trkpt>
      <trkpt lat="44.63073" lon="5.92268">
        <ele>2544.27</ele>
        <time>2014-06-22T11:46:12Z</time>
      </trkpt>
      <trkpt lat="44.63077" lon="5.92255">
        <ele>2544.75</ele>
        <time>2014-06-22T11:46:26Z</time>
      </trkpt>
      <trkpt lat="44.6308" lon="5.92241">
        <ele>2545.23</ele>
        <time>2014-06-22T11:46:40Z</time>
      </trkpt>
      <trkpt lat="44.63082" lon="5.92228">
        <ele>2547.15</ele>
        <time>2014-06-22T11:46:56Z</time>
      </trkpt>
      <trkpt lat="44.63085" lon="5.92218">
        <ele>2549.55</ele>
        <time>2014-06-22T11:47:10Z</time>
      </trkpt>
      <trkpt lat="44.63088" lon="5.92206">
        <ele>2551</ele>
        <time>2014-06-22T11:47:23Z</time>
      </trkpt>
      <trkpt lat="44.63089" lon="5.92202">
        <ele>2551</ele>
        <time>2014-06-22T11:47:39Z</time>
      </trkpt>
      <trkpt lat="44.63091" lon="5.92187">
        <ele>2551.48</ele>
        <time>2014-06-22T11:47:54Z</time>
      </trkpt>
      <trkpt lat="44.63092" lon="5.92173">
        <ele>2550.51</ele>
        <time>2014-06-22T11:48:07Z</time>
      </trkpt>
      <trkpt lat="44.63093" lon="5.92162">
        <ele>2552.44</ele>
        <time>2014-06-22T11:48:20Z</time>
      </trkpt>
      <trkpt lat="44.63093" lon="5.92146">
        <ele>2552.44</ele>
        <time>2014-06-22T11:48:36Z</time>
      </trkpt>
      <trkpt lat="44.63094" lon="5.92141">
        <ele>2553.88</ele>
        <time>2014-06-22T11:48:41Z</time>
      </trkpt>
      <trkpt lat="44.63095" lon="5.92126">
        <ele>2553.4</ele>
        <time>2014-06-22T11:48:55Z</time>
      </trkpt>
      <trkpt lat="44.63096" lon="5.92115">
        <ele>2553.88</ele>
        <time>2014-06-22T11:49:08Z</time>
      </trkpt>
      <trkpt lat="44.631" lon="5.92104">
        <ele>2553.4</ele>
        <time>2014-06-22T11:49:22Z</time>
      </trkpt>
      <trkpt lat="44.63104" lon="5.92092">
        <ele>2553.4</ele>
        <time>2014-06-22T11:49:35Z</time>
      </trkpt>
      <trkpt lat="44.63105" lon="5.92086">
        <ele>2553.4</ele>
        <time>2014-06-22T11:49:46Z</time>
      </trkpt>
      <trkpt lat="44.63105" lon="5.92085">
        <ele>2553.4</ele>
        <time>2014-06-22T11:49:57Z</time>
      </trkpt>
      <trkpt lat="44.63105" lon="5.92085">
        <ele>2552.92</ele>
        <time>2014-06-22T11:50:18Z</time>
      </trkpt>
      <trkpt lat="44.63107" lon="5.92085">
        <ele>2553.4</ele>
        <time>2014-06-22T11:50:40Z</time>
      </trkpt>
      <trkpt lat="44.6311" lon="5.92086">
        <ele>2553.88</ele>
        <time>2014-06-22T11:50:49Z</time>
      </trkpt>
      <trkpt lat="44.6311" lon="5.92086">
        <ele>2553.88</ele>
        <time>2014-06-22T11:51:20Z</time>
      </trkpt>
      <trkpt lat="44.6311" lon="5.92086">
        <ele>2553.4</ele>
        <time>2014-06-22T11:51:54Z</time>
      </trkpt>
      <trkpt lat="44.6311" lon="5.92086">
        <ele>2553.88</ele>
        <time>2014-06-22T11:52:23Z</time>
      </trkpt>
      <trkpt lat="44.6311" lon="5.92086">
        <ele>2553.88</ele>
        <time>2014-06-22T11:52:57Z</time>
      </trkpt>
      <trkpt lat="44.6311" lon="5.92086">
        <ele>2553.4</ele>
        <time>2014-06-22T11:53:25Z</time>
      </trkpt>
      <trkpt lat="44.6311" lon="5.92086">
        <ele>2553.4</ele>
        <time>2014-06-22T11:54:05Z</time>
      </trkpt>
      <trkpt lat="44.6311" lon="5.92086">
        <ele>2553.4</ele>
        <time>2014-06-22T11:54:39Z</time>
      </trkpt>
      <trkpt lat="44.6311" lon="5.92086">
        <ele>2552.92</ele>
        <time>2014-06-22T11:55:15Z</time>
      </trkpt>
      <trkpt lat="44.6311" lon="5.92087">
        <ele>2553.4</ele>
        <time>2014-06-22T11:55:49Z</time>
      </trkpt>
      <trkpt lat="44.6311" lon="5.92087">
        <ele>2553.4</ele>
        <time>2014-06-22T11:56:16Z</time>
      </trkpt>
      <trkpt lat="44.6311" lon="5.92087">
        <ele>2553.4</ele>
        <time>2014-06-22T11:56:51Z</time>
      </trkpt>
      <trkpt lat="44.6311" lon="5.92087">
        <ele>2552.44</ele>
        <time>2014-06-22T11:57:26Z</time>
      </trkpt>
      <trkpt lat="44.6311" lon="5.92087">
        <ele>2552.92</ele>
        <time>2014-06-22T11:57:57Z</time>
      </trkpt>
      <trkpt lat="44.6311" lon="5.92087">
        <ele>2553.4</ele>
        <time>2014-06-22T11:58:32Z</time>
      </trkpt>
      <trkpt lat="44.6311" lon="5.92087">
        <ele>2553.88</ele>
        <time>2014-06-22T11:59:04Z</time>
      </trkpt>
      <trkpt lat="44.6311" lon="5.92087">
        <ele>2553.88</ele>
        <time>2014-06-22T11:59:34Z</time>
      </trkpt>
      <trkpt lat="44.6311" lon="5.92087">
        <ele>2553.4</ele>
        <time>2014-06-22T12:00:08Z</time>
      </trkpt>
      <trkpt lat="44.6311" lon="5.92087">
        <ele>2553.4</ele>
        <time>2014-06-22T12:00:41Z</time>
      </trkpt>
      <trkpt lat="44.6311" lon="5.92087">
        <ele>2552.92</ele>
        <time>2014-06-22T12:01:07Z</time>
      </trkpt>
      <trkpt lat="44.6311" lon="5.92087">
        <ele>2553.4</ele>
        <time>2014-06-22T12:01:40Z</time>
      </trkpt>
      <trkpt lat="44.6311" lon="5.92087">
        <ele>2553.88</ele>
        <time>2014-06-22T12:02:16Z</time>
      </trkpt>
      <trkpt lat="44.6311" lon="5.92087">
        <ele>2552.92</ele>
        <time>2014-06-22T12:02:50Z</time>
      </trkpt>
      <trkpt lat="44.6311" lon="5.92087">
        <ele>2552.92</ele>
        <time>2014-06-22T12:03:25Z</time>
      </trkpt>
      <trkpt lat="44.6311" lon="5.92087">
        <ele>2552.92</ele>
        <time>2014-06-22T12:03:56Z</time>
      </trkpt>
      <trkpt lat="44.6311" lon="5.92087">
        <ele>2552.92</ele>
        <time>2014-06-22T12:04:29Z</time>
      </trkpt>
      <trkpt lat="44.6311" lon="5.92087">
        <ele>2552.92</ele>
        <time>2014-06-22T12:04:58Z</time>
      </trkpt>
      <trkpt lat="44.6311" lon="5.92088">
        <ele>2552.92</ele>
        <time>2014-06-22T12:05:31Z</time>
      </trkpt>
      <trkpt lat="44.6311" lon="5.92088">
        <ele>2552.92</ele>
        <time>2014-06-22T12:06:06Z</time>
      </trkpt>
      <trkpt lat="44.6311" lon="5.92088">
        <ele>2551.96</ele>
        <time>2014-06-22T12:06:40Z</time>
      </trkpt>
      <trkpt lat="44.6311" lon="5.92088">
        <ele>2553.4</ele>
        <time>2014-06-22T12:07:16Z</time>
      </trkpt>
      <trkpt lat="44.6311" lon="5.92088">
        <ele>2552.92</ele>
        <time>2014-06-22T12:07:50Z</time>
      </trkpt>
      <trkpt lat="44.6311" lon="5.92088">
        <ele>2552.44</ele>
        <time>2014-06-22T12:08:28Z</time>
      </trkpt>
      <trkpt lat="44.6311" lon="5.92088">
        <ele>2552.44</ele>
        <time>2014-06-22T12:09:05Z</time>
      </trkpt>
      <trkpt lat="44.6311" lon="5.92087">
        <ele>2552.44</ele>
        <time>2014-06-22T12:09:43Z</time>
      </trkpt>
      <trkpt lat="44.6311" lon="5.92088">
        <ele>2552.92</ele>
        <time>2014-06-22T12:10:18Z</time>
      </trkpt>
      <trkpt lat="44.63109" lon="5.92088">
        <ele>2551.96</ele>
        <time>2014-06-22T12:10:52Z</time>
      </trkpt>
      <trkpt lat="44.63109" lon="5.92088">
        <ele>2553.4</ele>
        <time>2014-06-22T12:11:29Z</time>
      </trkpt>
      <trkpt lat="44.63109" lon="5.92088">
        <ele>2552.44</ele>
        <time>2014-06-22T12:12:06Z</time>
      </trkpt>
      <trkpt lat="44.63109" lon="5.92088">
        <ele>2553.4</ele>
        <time>2014-06-22T12:12:42Z</time>
      </trkpt>
      <trkpt lat="44.63109" lon="5.92088">
        <ele>2552.44</ele>
        <time>2014-06-22T12:13:14Z</time>
      </trkpt>
      <trkpt lat="44.63109" lon="5.92087">
        <ele>2552.44</ele>
        <time>2014-06-22T12:13:50Z</time>
      </trkpt>
      <trkpt lat="44.63109" lon="5.92088">
        <ele>2552.92</ele>
        <time>2014-06-22T12:14:23Z</time>
      </trkpt>
      <trkpt lat="44.63109" lon="5.92088">
        <ele>2552.92</ele>
        <time>2014-06-22T12:14:52Z</time>
      </trkpt>
      <trkpt lat="44.63109" lon="5.92088">
        <ele>2552.92</ele>
        <time>2014-06-22T12:15:15Z</time>
      </trkpt>
      <trkpt lat="44.63109" lon="5.92087">
        <ele>2553.4</ele>
        <time>2014-06-22T12:15:44Z</time>
      </trkpt>
      <trkpt lat="44.63109" lon="5.92088">
        <ele>2553.4</ele>
        <time>2014-06-22T12:16:26Z</time>
      </trkpt>
      <trkpt lat="44.63109" lon="5.92088">
        <ele>2553.88</ele>
        <time>2014-06-22T12:17:05Z</time>
      </trkpt>
      <trkpt lat="44.63109" lon="5.92088">
        <ele>2553.88</ele>
        <time>2014-06-22T12:17:33Z</time>
      </trkpt>
      <trkpt lat="44.63109" lon="5.92088">
        <ele>2553.88</ele>
        <time>2014-06-22T12:17:59Z</time>
      </trkpt>
      <trkpt lat="44.63109" lon="5.92088">
        <ele>2553.88</ele>
        <time>2014-06-22T12:18:33Z</time>
      </trkpt>
      <trkpt lat="44.63109" lon="5.92088">
        <ele>2553.88</ele>
        <time>2014-06-22T12:19:08Z</time>
      </trkpt>
      <trkpt lat="44.6311" lon="5.92088">
        <ele>2554.36</ele>
        <time>2014-06-22T12:19:28Z</time>
      </trkpt>
      <trkpt lat="44.6311" lon="5.92088">
        <ele>2553.4</ele>
        <time>2014-06-22T12:20:08Z</time>
      </trkpt>
      <trkpt lat="44.6311" lon="5.92088">
        <ele>2553.4</ele>
        <time>2014-06-22T12:20:33Z</time>
      </trkpt>
      <trkpt lat="44.6311" lon="5.92088">
        <ele>2553.88</ele>
        <time>2014-06-22T12:21:05Z</time>
      </trkpt>
      <trkpt lat="44.6311" lon="5.92088">
        <ele>2553.4</ele>
        <time>2014-06-22T12:21:43Z</time>
      </trkpt>
      <trkpt lat="44.6311" lon="5.92088">
        <ele>2553.88</ele>
        <time>2014-06-22T12:22:21Z</time>
      </trkpt>
      <trkpt lat="44.6311" lon="5.92088">
        <ele>2554.36</ele>
        <time>2014-06-22T12:22:35Z</time>
      </trkpt>
      <trkpt lat="44.63111" lon="5.92088">
        <ele>2553.88</ele>
        <time>2014-06-22T12:23:01Z</time>
      </trkpt>
      <trkpt lat="44.63111" lon="5.92088">
        <ele>2553.88</ele>
        <time>2014-06-22T12:23:35Z</time>
      </trkpt>
      <trkpt lat="44.63111" lon="5.92088">
        <ele>2553.88</ele>
        <time>2014-06-22T12:24:12Z</time>
      </trkpt>
      <trkpt lat="44.63111" lon="5.92088">
        <ele>2554.36</ele>
        <time>2014-06-22T12:24:44Z</time>
      </trkpt>
      <trkpt lat="44.63111" lon="5.92088">
        <ele>2553.88</ele>
        <time>2014-06-22T12:25:19Z</time>
      </trkpt>
      <trkpt lat="44.63111" lon="5.92088">
        <ele>2553.4</ele>
        <time>2014-06-22T12:25:53Z</time>
      </trkpt>
      <trkpt lat="44.63112" lon="5.92087">
        <ele>2553.88</ele>
        <time>2014-06-22T12:26:21Z</time>
      </trkpt>
      <trkpt lat="44.63112" lon="5.92087">
        <ele>2553.88</ele>
        <time>2014-06-22T12:26:55Z</time>
      </trkpt>
      <trkpt lat="44.63112" lon="5.92088">
        <ele>2553.4</ele>
        <time>2014-06-22T12:27:39Z</time>
      </trkpt>
      <trkpt lat="44.63112" lon="5.92088">
        <ele>2553.4</ele>
        <time>2014-06-22T12:28:21Z</time>
      </trkpt>
      <trkpt lat="44.63112" lon="5.92088">
        <ele>2553.4</ele>
        <time>2014-06-22T12:29:04Z</time>
      </trkpt>
      <trkpt lat="44.63112" lon="5.92088">
        <ele>2553.88</ele>
        <time>2014-06-22T12:29:45Z</time>
      </trkpt>
      <trkpt lat="44.63112" lon="5.92088">
        <ele>2553.88</ele>
        <time>2014-06-22T12:30:27Z</time>
      </trkpt>
      <trkpt lat="44.63112" lon="5.92088">
        <ele>2553.88</ele>
        <time>2014-06-22T12:31:09Z</time>
      </trkpt>
      <trkpt lat="44.63112" lon="5.92088">
        <ele>2554.36</ele>
        <time>2014-06-22T12:31:54Z</time>
      </trkpt>
      <trkpt lat="44.63112" lon="5.92088">
        <ele>2553.4</ele>
        <time>2014-06-22T12:32:38Z</time>
      </trkpt>
      <trkpt lat="44.63112" lon="5.92088">
        <ele>2553.88</ele>
        <time>2014-06-22T12:33:22Z</time>
      </trkpt>
      <trkpt lat="44.63112" lon="5.92088">
        <ele>2554.36</ele>
        <time>2014-06-22T12:34:08Z</time>
      </trkpt>
      <trkpt lat="44.63112" lon="5.92088">
        <ele>2552.92</ele>
        <time>2014-06-22T12:34:50Z</time>
      </trkpt>
      <trkpt lat="44.63112" lon="5.92088">
        <ele>2552.92</ele>
        <time>2014-06-22T12:35:34Z</time>
      </trkpt>
      <trkpt lat="44.63112" lon="5.92088">
        <ele>2553.88</ele>
        <time>2014-06-22T12:36:16Z</time>
      </trkpt>
      <trkpt lat="44.63112" lon="5.92088">
        <ele>2554.36</ele>
        <time>2014-06-22T12:36:58Z</time>
      </trkpt>
      <trkpt lat="44.63112" lon="5.92088">
        <ele>2552.92</ele>
        <time>2014-06-22T12:37:41Z</time>
      </trkpt>
      <trkpt lat="44.63112" lon="5.92088">
        <ele>2552.92</ele>
        <time>2014-06-22T12:38:23Z</time>
      </trkpt>
      <trkpt lat="44.63112" lon="5.92088">
        <ele>2552.44</ele>
        <time>2014-06-22T12:39:11Z</time>
      </trkpt>
      <trkpt lat="44.63112" lon="5.92088">
        <ele>2552.44</ele>
        <time>2014-06-22T12:39:53Z</time>
      </trkpt>
      <trkpt lat="44.63112" lon="5.92088">
        <ele>2552.92</ele>
        <time>2014-06-22T12:40:36Z</time>
      </trkpt>
      <trkpt lat="44.63112" lon="5.92088">
        <ele>2553.4</ele>
        <time>2014-06-22T12:41:22Z</time>
      </trkpt>
      <trkpt lat="44.63112" lon="5.92088">
        <ele>2552.44</ele>
        <time>2014-06-22T12:42:04Z</time>
      </trkpt>
      <trkpt lat="44.63112" lon="5.92087">
        <ele>2552.44</ele>
        <time>2014-06-22T12:42:49Z</time>
      </trkpt>
      <trkpt lat="44.63112" lon="5.92088">
        <ele>2552.44</ele>
        <time>2014-06-22T12:43:34Z</time>
      </trkpt>
      <trkpt lat="44.63112" lon="5.92088">
        <ele>2551.96</ele>
        <time>2014-06-22T12:44:17Z</time>
      </trkpt>
      <trkpt lat="44.63112" lon="5.92088">
        <ele>2552.44</ele>
        <time>2014-06-22T12:45:03Z</time>
      </trkpt>
      <trkpt lat="44.63112" lon="5.92088">
        <ele>2551.96</ele>
        <time>2014-06-22T12:45:52Z</time>
      </trkpt>
      <trkpt lat="44.63111" lon="5.92088">
        <ele>2551.48</ele>
        <time>2014-06-22T12:46:35Z</time>
      </trkpt>
      <trkpt lat="44.63111" lon="5.92088">
        <ele>2551.48</ele>
        <time>2014-06-22T12:47:11Z</time>
      </trkpt>
      <trkpt lat="44.63111" lon="5.92088">
        <ele>2552.92</ele>
        <time>2014-06-22T12:47:50Z</time>
      </trkpt>
      <trkpt lat="44.63111" lon="5.92088">
        <ele>2551.96</ele>
        <time>2014-06-22T12:48:33Z</time>
      </trkpt>
      <trkpt lat="44.63111" lon="5.92088">
        <ele>2551</ele>
        <time>2014-06-22T12:49:15Z</time>
      </trkpt>
      <trkpt lat="44.63111" lon="5.92088">
        <ele>2551</ele>
        <time>2014-06-22T12:50:01Z</time>
      </trkpt>
      <trkpt lat="44.63111" lon="5.92088">
        <ele>2551.48</ele>
        <time>2014-06-22T12:50:47Z</time>
      </trkpt>
      <trkpt lat="44.63111" lon="5.92088">
        <ele>2552.44</ele>
        <time>2014-06-22T12:51:29Z</time>
      </trkpt>
      <trkpt lat="44.63111" lon="5.92089">
        <ele>2551.48</ele>
        <time>2014-06-22T12:52:16Z</time>
      </trkpt>
      <trkpt lat="44.63111" lon="5.92089">
        <ele>2551.48</ele>
        <time>2014-06-22T12:52:59Z</time>
      </trkpt>
      <trkpt lat="44.63111" lon="5.92088">
        <ele>2550.51</ele>
        <time>2014-06-22T12:53:41Z</time>
      </trkpt>
      <trkpt lat="44.63111" lon="5.92088">
        <ele>2551.48</ele>
        <time>2014-06-22T12:54:25Z</time>
      </trkpt>
      <trkpt lat="44.63111" lon="5.92088">
        <ele>2551</ele>
        <time>2014-06-22T12:55:08Z</time>
      </trkpt>
      <trkpt lat="44.63111" lon="5.92088">
        <ele>2551</ele>
        <time>2014-06-22T12:55:48Z</time>
      </trkpt>
      <trkpt lat="44.6311" lon="5.92088">
        <ele>2551</ele>
        <time>2014-06-22T12:56:34Z</time>
      </trkpt>
      <trkpt lat="44.6311" lon="5.92089">
        <ele>2551.96</ele>
        <time>2014-06-22T12:56:53Z</time>
      </trkpt>
      <trkpt lat="44.6311" lon="5.92089">
        <ele>2551.48</ele>
        <time>2014-06-22T12:57:32Z</time>
      </trkpt>
      <trkpt lat="44.6311" lon="5.92089">
        <ele>2552.44</ele>
        <time>2014-06-22T12:58:12Z</time>
      </trkpt>
      <trkpt lat="44.63111" lon="5.92089">
        <ele>2551</ele>
        <time>2014-06-22T12:58:59Z</time>
      </trkpt>
      <trkpt lat="44.6311" lon="5.92089">
        <ele>2551.48</ele>
        <time>2014-06-22T12:59:43Z</time>
      </trkpt>
      <trkpt lat="44.6311" lon="5.92088">
        <ele>2551</ele>
        <time>2014-06-22T13:00:24Z</time>
      </trkpt>
      <trkpt lat="44.63111" lon="5.92088">
        <ele>2550.51</ele>
        <time>2014-06-22T13:01:11Z</time>
      </trkpt>
      <trkpt lat="44.63111" lon="5.92088">
        <ele>2551</ele>
        <time>2014-06-22T13:01:59Z</time>
      </trkpt>
      <trkpt lat="44.6311" lon="5.92088">
        <ele>2550.51</ele>
        <time>2014-06-22T13:02:40Z</time>
      </trkpt>
      <trkpt lat="44.6311" lon="5.92088">
        <ele>2550.03</ele>
        <time>2014-06-22T13:03:25Z</time>
      </trkpt>
      <trkpt lat="44.6311" lon="5.92088">
        <ele>2551</ele>
        <time>2014-06-22T13:04:04Z</time>
      </trkpt>
      <trkpt lat="44.6311" lon="5.92088">
        <ele>2550.51</ele>
        <time>2014-06-22T13:04:48Z</time>
      </trkpt>
      <trkpt lat="44.6311" lon="5.92088">
        <ele>2551</ele>
        <time>2014-06-22T13:05:27Z</time>
      </trkpt>
      <trkpt lat="44.6311" lon="5.92088">
        <ele>2550.51</ele>
        <time>2014-06-22T13:06:04Z</time>
      </trkpt>
      <trkpt lat="44.6311" lon="5.92088">
        <ele>2550.03</ele>
        <time>2014-06-22T13:06:39Z</time>
      </trkpt>
      <trkpt lat="44.6311" lon="5.92088">
        <ele>2550.51</ele>
        <time>2014-06-22T13:07:15Z</time>
      </trkpt>
      <trkpt lat="44.6311" lon="5.92088">
        <ele>2550.03</ele>
        <time>2014-06-22T13:07:53Z</time>
      </trkpt>
      <trkpt lat="44.6311" lon="5.92088">
        <ele>2550.03</ele>
        <time>2014-06-22T13:08:29Z</time>
      </trkpt>
      <trkpt lat="44.6311" lon="5.92089">
        <ele>2551</ele>
        <time>2014-06-22T13:08:53Z</time>
      </trkpt>
      <trkpt lat="44.63111" lon="5.92088">
        <ele>2551</ele>
        <time>2014-06-22T13:09:13Z</time>
      </trkpt>
      <trkpt lat="44.63111" lon="5.92088">
        <ele>2551.96</ele>
        <time>2014-06-22T13:09:34Z</time>
      </trkpt>
      <trkpt lat="44.6311" lon="5.92088">
        <ele>2551.48</ele>
        <time>2014-06-22T13:09:58Z</time>
      </trkpt>
      <trkpt lat="44.6311" lon="5.92088">
        <ele>2548.59</ele>
        <time>2014-06-22T13:10:11Z</time>
      </trkpt>
      <trkpt lat="44.6311" lon="5.92088">
        <ele>2550.51</ele>
        <time>2014-06-22T13:10:14Z</time>
      </trkpt>
      <trkpt lat="44.63113" lon="5.92089">
        <ele>2551</ele>
        <time>2014-06-22T13:10:27Z</time>
      </trkpt>
      <trkpt lat="44.63113" lon="5.9209">
        <ele>2552.44</ele>
        <time>2014-06-22T13:10:45Z</time>
      </trkpt>
      <trkpt lat="44.63113" lon="5.9209">
        <ele>2549.07</ele>
        <time>2014-06-22T13:10:50Z</time>
      </trkpt>
      <trkpt lat="44.63113" lon="5.9209">
        <ele>2549.07</ele>
        <time>2014-06-22T13:10:55Z</time>
      </trkpt>
      <trkpt lat="44.63115" lon="5.92084">
        <ele>2551.48</ele>
        <time>2014-06-22T13:11:15Z</time>
      </trkpt>
      <trkpt lat="44.63111" lon="5.92087">
        <ele>2550.03</ele>
        <time>2014-06-22T13:11:29Z</time>
      </trkpt>
      <trkpt lat="44.63109" lon="5.92087">
        <ele>2550.51</ele>
        <time>2014-06-22T13:11:49Z</time>
      </trkpt>
      <trkpt lat="44.63106" lon="5.92088">
        <ele>2549.55</ele>
        <time>2014-06-22T13:12:01Z</time>
      </trkpt>
      <trkpt lat="44.63106" lon="5.92088">
        <ele>2550.03</ele>
        <time>2014-06-22T13:12:20Z</time>
      </trkpt>
      <trkpt lat="44.63103" lon="5.92096">
        <ele>2550.03</ele>
        <time>2014-06-22T13:12:33Z</time>
      </trkpt>
      <trkpt lat="44.63101" lon="5.92106">
        <ele>2550.03</ele>
        <time>2014-06-22T13:12:47Z</time>
      </trkpt>
      <trkpt lat="44.63099" lon="5.92112">
        <ele>2549.07</ele>
        <time>2014-06-22T13:12:58Z</time>
      </trkpt>
      <trkpt lat="44.63097" lon="5.92121">
        <ele>2549.55</ele>
        <time>2014-06-22T13:13:10Z</time>
      </trkpt>
      <trkpt lat="44.63096" lon="5.92129">
        <ele>2548.59</ele>
        <time>2014-06-22T13:13:26Z</time>
      </trkpt>
      <trkpt lat="44.63096" lon="5.92129">
        <ele>2547.63</ele>
        <time>2014-06-22T13:13:47Z</time>
      </trkpt>
      <trkpt lat="44.63096" lon="5.92129">
        <ele>2547.63</ele>
        <time>2014-06-22T13:14:11Z</time>
      </trkpt>
      <trkpt lat="44.63096" lon="5.9214">
        <ele>2547.63</ele>
        <time>2014-06-22T13:14:24Z</time>
      </trkpt>
      <trkpt lat="44.63094" lon="5.92151">
        <ele>2547.63</ele>
        <time>2014-06-22T13:14:37Z</time>
      </trkpt>
      <trkpt lat="44.63095" lon="5.92165">
        <ele>2548.11</ele>
        <time>2014-06-22T13:14:53Z</time>
      </trkpt>
      <trkpt lat="44.63094" lon="5.92178">
        <ele>2546.67</ele>
        <time>2014-06-22T13:15:08Z</time>
      </trkpt>
      <trkpt lat="44.63092" lon="5.92192">
        <ele>2545.71</ele>
        <time>2014-06-22T13:15:21Z</time>
      </trkpt>
      <trkpt lat="44.63092" lon="5.92206">
        <ele>2544.75</ele>
        <time>2014-06-22T13:15:36Z</time>
      </trkpt>
      <trkpt lat="44.63086" lon="5.92223">
        <ele>2543.31</ele>
        <time>2014-06-22T13:15:54Z</time>
      </trkpt>
      <trkpt lat="44.63081" lon="5.92236">
        <ele>2541.86</ele>
        <time>2014-06-22T13:16:11Z</time>
      </trkpt>
      <trkpt lat="44.63078" lon="5.92252">
        <ele>2539.46</ele>
        <time>2014-06-22T13:16:26Z</time>
      </trkpt>
      <trkpt lat="44.63071" lon="5.92271">
        <ele>2539.46</ele>
        <time>2014-06-22T13:16:43Z</time>
      </trkpt>
      <trkpt lat="44.63067" lon="5.92286">
        <ele>2539.46</ele>
        <time>2014-06-22T13:16:58Z</time>
      </trkpt>
      <trkpt lat="44.63062" lon="5.92299">
        <ele>2538.5</ele>
        <time>2014-06-22T13:17:12Z</time>
      </trkpt>
      <trkpt lat="44.63058" lon="5.92314">
        <ele>2537.06</ele>
        <time>2014-06-22T13:17:29Z</time>
      </trkpt>
      <trkpt lat="44.63052" lon="5.92324">
        <ele>2535.61</ele>
        <time>2014-06-22T13:17:44Z</time>
      </trkpt>
      <trkpt lat="44.63047" lon="5.92336">
        <ele>2534.65</ele>
        <time>2014-06-22T13:17:59Z</time>
      </trkpt>
      <trkpt lat="44.63043" lon="5.9235">
        <ele>2531.29</ele>
        <time>2014-06-22T13:18:12Z</time>
      </trkpt>
      <trkpt lat="44.63037" lon="5.92364">
        <ele>2529.85</ele>
        <time>2014-06-22T13:18:30Z</time>
      </trkpt>
      <trkpt lat="44.63034" lon="5.9238">
        <ele>2527.44</ele>
        <time>2014-06-22T13:18:46Z</time>
      </trkpt>
      <trkpt lat="44.63035" lon="5.92398">
        <ele>2526</ele>
        <time>2014-06-22T13:19:01Z</time>
      </trkpt>
      <trkpt lat="44.63034" lon="5.92411">
        <ele>2525.04</ele>
        <time>2014-06-22T13:19:15Z</time>
      </trkpt>
      <trkpt lat="44.63034" lon="5.92418">
        <ele>2522.64</ele>
        <time>2014-06-22T13:19:28Z</time>
      </trkpt>
      <trkpt lat="44.6303" lon="5.92422">
        <ele>2521.19</ele>
        <time>2014-06-22T13:19:36Z</time>
      </trkpt>
      <trkpt lat="44.63022" lon="5.92417">
        <ele>2520.23</ele>
        <time>2014-06-22T13:19:47Z</time>
      </trkpt>
      <trkpt lat="44.6302" lon="5.92416">
        <ele>2519.75</ele>
        <time>2014-06-22T13:19:49Z</time>
      </trkpt>
      <trkpt lat="44.63009" lon="5.92408">
        <ele>2517.35</ele>
        <time>2014-06-22T13:20:03Z</time>
      </trkpt>
      <trkpt lat="44.63006" lon="5.92405">
        <ele>2516.39</ele>
        <time>2014-06-22T13:20:09Z</time>
      </trkpt>
      <trkpt lat="44.62997" lon="5.92392">
        <ele>2514.47</ele>
        <time>2014-06-22T13:20:24Z</time>
      </trkpt>
      <trkpt lat="44.62992" lon="5.92385">
        <ele>2513.02</ele>
        <time>2014-06-22T13:20:32Z</time>
      </trkpt>
      <trkpt lat="44.62984" lon="5.92378">
        <ele>2511.1</ele>
        <time>2014-06-22T13:20:44Z</time>
      </trkpt>
      <trkpt lat="44.62979" lon="5.92373">
        <ele>2510.62</ele>
        <time>2014-06-22T13:20:51Z</time>
      </trkpt>
      <trkpt lat="44.62976" lon="5.92372">
        <ele>2509.18</ele>
        <time>2014-06-22T13:20:54Z</time>
      </trkpt>
      <trkpt lat="44.62966" lon="5.92362">
        <ele>2506.77</ele>
        <time>2014-06-22T13:21:09Z</time>
      </trkpt>
      <trkpt lat="44.62957" lon="5.92358">
        <ele>2504.85</ele>
        <time>2014-06-22T13:21:21Z</time>
      </trkpt>
      <trkpt lat="44.62949" lon="5.92357">
        <ele>2501.97</ele>
        <time>2014-06-22T13:21:31Z</time>
      </trkpt>
      <trkpt lat="44.62943" lon="5.92357">
        <ele>2500.53</ele>
        <time>2014-06-22T13:21:39Z</time>
      </trkpt>
      <trkpt lat="44.62938" lon="5.92356">
        <ele>2498.6</ele>
        <time>2014-06-22T13:21:45Z</time>
      </trkpt>
      <trkpt lat="44.62929" lon="5.92351">
        <ele>2496.68</ele>
        <time>2014-06-22T13:21:58Z</time>
      </trkpt>
      <trkpt lat="44.62924" lon="5.92341">
        <ele>2495.24</ele>
        <time>2014-06-22T13:22:12Z</time>
      </trkpt>
      <trkpt lat="44.62921" lon="5.92332">
        <ele>2494.28</ele>
        <time>2014-06-22T13:22:25Z</time>
      </trkpt>
      <trkpt lat="44.62917" lon="5.92323">
        <ele>2492.36</ele>
        <time>2014-06-22T13:22:38Z</time>
      </trkpt>
      <trkpt lat="44.62917" lon="5.92321">
        <ele>2490.91</ele>
        <time>2014-06-22T13:22:42Z</time>
      </trkpt>
      <trkpt lat="44.62917" lon="5.92321">
        <ele>2489.95</ele>
        <time>2014-06-22T13:22:49Z</time>
      </trkpt>
      <trkpt lat="44.62914" lon="5.92311">
        <ele>2488.99</ele>
        <time>2014-06-22T13:23:04Z</time>
      </trkpt>
      <trkpt lat="44.62912" lon="5.92295">
        <ele>2487.07</ele>
        <time>2014-06-22T13:23:21Z</time>
      </trkpt>
      <trkpt lat="44.6291" lon="5.9229">
        <ele>2485.63</ele>
        <time>2014-06-22T13:23:33Z</time>
      </trkpt>
      <trkpt lat="44.62917" lon="5.9229">
        <ele>2488.99</ele>
        <time>2014-06-22T13:23:45Z</time>
      </trkpt>
      <trkpt lat="44.62921" lon="5.92288">
        <ele>2488.99</ele>
        <time>2014-06-22T13:23:59Z</time>
      </trkpt>
      <trkpt lat="44.62921" lon="5.92281">
        <ele>2489.95</ele>
        <time>2014-06-22T13:24:12Z</time>
      </trkpt>
      <trkpt lat="44.6292" lon="5.9227">
        <ele>2490.43</ele>
        <time>2014-06-22T13:24:26Z</time>
      </trkpt>
      <trkpt lat="44.62921" lon="5.92262">
        <ele>2490.43</ele>
        <time>2014-06-22T13:24:39Z</time>
      </trkpt>
      <trkpt lat="44.6292" lon="5.92252">
        <ele>2489.95</ele>
        <time>2014-06-22T13:24:53Z</time>
      </trkpt>
      <trkpt lat="44.6292" lon="5.92244">
        <ele>2489.47</ele>
        <time>2014-06-22T13:25:00Z</time>
      </trkpt>
      <trkpt lat="44.6292" lon="5.92233">
        <ele>2488.99</ele>
        <time>2014-06-22T13:25:13Z</time>
      </trkpt>
      <trkpt lat="44.62922" lon="5.92221">
        <ele>2489.47</ele>
        <time>2014-06-22T13:25:28Z</time>
      </trkpt>
      <trkpt lat="44.62923" lon="5.92212">
        <ele>2489.95</ele>
        <time>2014-06-22T13:25:41Z</time>
      </trkpt>
      <trkpt lat="44.62923" lon="5.92198">
        <ele>2489.95</ele>
        <time>2014-06-22T13:25:54Z</time>
      </trkpt>
      <trkpt lat="44.62919" lon="5.92188">
        <ele>2488.03</ele>
        <time>2014-06-22T13:26:06Z</time>
      </trkpt>
      <trkpt lat="44.62909" lon="5.92187">
        <ele>2485.63</ele>
        <time>2014-06-22T13:26:20Z</time>
      </trkpt>
      <trkpt lat="44.62907" lon="5.92188">
        <ele>2484.66</ele>
        <time>2014-06-22T13:26:32Z</time>
      </trkpt>
      <trkpt lat="44.62904" lon="5.92187">
        <ele>2483.7</ele>
        <time>2014-06-22T13:26:54Z</time>
      </trkpt>
      <trkpt lat="44.62894" lon="5.92187">
        <ele>2481.3</ele>
        <time>2014-06-22T13:27:09Z</time>
      </trkpt>
      <trkpt lat="44.62889" lon="5.92187">
        <ele>2478.42</ele>
        <time>2014-06-22T13:27:22Z</time>
      </trkpt>
      <trkpt lat="44.62881" lon="5.92181">
        <ele>2476.49</ele>
        <time>2014-06-22T13:27:37Z</time>
      </trkpt>
      <trkpt lat="44.62877" lon="5.92182">
        <ele>2474.57</ele>
        <time>2014-06-22T13:27:50Z</time>
      </trkpt>
      <trkpt lat="44.62872" lon="5.92184">
        <ele>2471.21</ele>
        <time>2014-06-22T13:27:59Z</time>
      </trkpt>
      <trkpt lat="44.62865" lon="5.9218">
        <ele>2468.8</ele>
        <time>2014-06-22T13:28:13Z</time>
      </trkpt>
      <trkpt lat="44.62861" lon="5.92177">
        <ele>2466.88</ele>
        <time>2014-06-22T13:28:26Z</time>
      </trkpt>
      <trkpt lat="44.62856" lon="5.92176">
        <ele>2463.52</ele>
        <time>2014-06-22T13:28:38Z</time>
      </trkpt>
      <trkpt lat="44.62848" lon="5.92174">
        <ele>2461.59</ele>
        <time>2014-06-22T13:28:52Z</time>
      </trkpt>
      <trkpt lat="44.62837" lon="5.92171">
        <ele>2459.67</ele>
        <time>2014-06-22T13:29:08Z</time>
      </trkpt>
      <trkpt lat="44.62827" lon="5.92164">
        <ele>2458.23</ele>
        <time>2014-06-22T13:29:23Z</time>
      </trkpt>
      <trkpt lat="44.6282" lon="5.9216">
        <ele>2456.31</ele>
        <time>2014-06-22T13:29:36Z</time>
      </trkpt>
      <trkpt lat="44.62819" lon="5.92158">
        <ele>2453.9</ele>
        <time>2014-06-22T13:29:48Z</time>
      </trkpt>
      <trkpt lat="44.62815" lon="5.92155">
        <ele>2451.5</ele>
        <time>2014-06-22T13:30:00Z</time>
      </trkpt>
      <trkpt lat="44.62809" lon="5.9215">
        <ele>2447.65</ele>
        <time>2014-06-22T13:30:14Z</time>
      </trkpt>
      <trkpt lat="44.62798" lon="5.9215">
        <ele>2445.73</ele>
        <time>2014-06-22T13:30:28Z</time>
      </trkpt>
      <trkpt lat="44.62794" lon="5.92141">
        <ele>2443.81</ele>
        <time>2014-06-22T13:30:44Z</time>
      </trkpt>
      <trkpt lat="44.62792" lon="5.9215">
        <ele>2440.92</ele>
        <time>2014-06-22T13:30:57Z</time>
      </trkpt>
      <trkpt lat="44.62789" lon="5.92156">
        <ele>2440.44</ele>
        <time>2014-06-22T13:31:07Z</time>
      </trkpt>
      <trkpt lat="44.62783" lon="5.92161">
        <ele>2439.48</ele>
        <time>2014-06-22T13:31:15Z</time>
      </trkpt>
      <trkpt lat="44.62778" lon="5.92159">
        <ele>2440.44</ele>
        <time>2014-06-22T13:31:20Z</time>
      </trkpt>
      <trkpt lat="44.62764" lon="5.92151">
        <ele>2438.52</ele>
        <time>2014-06-22T13:31:36Z</time>
      </trkpt>
      <trkpt lat="44.62758" lon="5.92143">
        <ele>2435.16</ele>
        <time>2014-06-22T13:31:47Z</time>
      </trkpt>
      <trkpt lat="44.62754" lon="5.92135">
        <ele>2433.23</ele>
        <time>2014-06-22T13:32:02Z</time>
      </trkpt>
      <trkpt lat="44.62746" lon="5.92127">
        <ele>2431.31</ele>
        <time>2014-06-22T13:32:17Z</time>
      </trkpt>
      <trkpt lat="44.62742" lon="5.9212">
        <ele>2430.83</ele>
        <time>2014-06-22T13:32:31Z</time>
      </trkpt>
      <trkpt lat="44.62737" lon="5.92109">
        <ele>2428.43</ele>
        <time>2014-06-22T13:32:44Z</time>
      </trkpt>
      <trkpt lat="44.62732" lon="5.92093">
        <ele>2426.5</ele>
        <time>2014-06-22T13:33:02Z</time>
      </trkpt>
      <trkpt lat="44.62724" lon="5.92086">
        <ele>2424.58</ele>
        <time>2014-06-22T13:33:16Z</time>
      </trkpt>
      <trkpt lat="44.62721" lon="5.92086">
        <ele>2424.1</ele>
        <time>2014-06-22T13:33:19Z</time>
      </trkpt>
      <trkpt lat="44.62717" lon="5.92085">
        <ele>2424.58</ele>
        <time>2014-06-22T13:33:23Z</time>
      </trkpt>
      <trkpt lat="44.62705" lon="5.92081">
        <ele>2422.66</ele>
        <time>2014-06-22T13:33:38Z</time>
      </trkpt>
      <trkpt lat="44.62693" lon="5.92074">
        <ele>2420.26</ele>
        <time>2014-06-22T13:33:54Z</time>
      </trkpt>
      <trkpt lat="44.62687" lon="5.9207">
        <ele>2417.37</ele>
        <time>2014-06-22T13:34:06Z</time>
      </trkpt>
      <trkpt lat="44.62683" lon="5.92064">
        <ele>2415.45</ele>
        <time>2014-06-22T13:34:17Z</time>
      </trkpt>
      <trkpt lat="44.62682" lon="5.92063">
        <ele>2414.49</ele>
        <time>2014-06-22T13:34:19Z</time>
      </trkpt>
      <trkpt lat="44.62678" lon="5.92056">
        <ele>2411.12</ele>
        <time>2014-06-22T13:34:33Z</time>
      </trkpt>
      <trkpt lat="44.62676" lon="5.92052">
        <ele>2409.2</ele>
        <time>2014-06-22T13:34:41Z</time>
      </trkpt>
      <trkpt lat="44.62673" lon="5.92051">
        <ele>2408.24</ele>
        <time>2014-06-22T13:34:44Z</time>
      </trkpt>
      <trkpt lat="44.62666" lon="5.92047">
        <ele>2406.32</ele>
        <time>2014-06-22T13:34:58Z</time>
      </trkpt>
      <trkpt lat="44.62662" lon="5.92044">
        <ele>2404.39</ele>
        <time>2014-06-22T13:35:14Z</time>
      </trkpt>
      <trkpt lat="44.62662" lon="5.92043">
        <ele>2404.39</ele>
        <time>2014-06-22T13:35:15Z</time>
      </trkpt>
      <trkpt lat="44.62655" lon="5.92035">
        <ele>2400.55</ele>
        <time>2014-06-22T13:35:28Z</time>
      </trkpt>
      <trkpt lat="44.62655" lon="5.92028">
        <ele>2398.63</ele>
        <time>2014-06-22T13:35:36Z</time>
      </trkpt>
      <trkpt lat="44.62656" lon="5.92021">
        <ele>2395.26</ele>
        <time>2014-06-22T13:35:44Z</time>
      </trkpt>
      <trkpt lat="44.62657" lon="5.9202">
        <ele>2395.74</ele>
        <time>2014-06-22T13:35:45Z</time>
      </trkpt>
      <trkpt lat="44.62657" lon="5.92015">
        <ele>2393.82</ele>
        <time>2014-06-22T13:35:52Z</time>
      </trkpt>
      <trkpt lat="44.62657" lon="5.92008">
        <ele>2390.94</ele>
        <time>2014-06-22T13:36:02Z</time>
      </trkpt>
      <trkpt lat="44.62657" lon="5.91996">
        <ele>2387.57</ele>
        <time>2014-06-22T13:36:13Z</time>
      </trkpt>
      <trkpt lat="44.62658" lon="5.91988">
        <ele>2384.69</ele>
        <time>2014-06-22T13:36:24Z</time>
      </trkpt>
      <trkpt lat="44.62659" lon="5.91973">
        <ele>2382.76</ele>
        <time>2014-06-22T13:36:38Z</time>
      </trkpt>
      <trkpt lat="44.62659" lon="5.91963">
        <ele>2382.76</ele>
        <time>2014-06-22T13:36:51Z</time>
      </trkpt>
      <trkpt lat="44.62656" lon="5.9195">
        <ele>2382.76</ele>
        <time>2014-06-22T13:37:07Z</time>
      </trkpt>
      <trkpt lat="44.62653" lon="5.91944">
        <ele>2381.8</ele>
        <time>2014-06-22T13:37:15Z</time>
      </trkpt>
      <trkpt lat="44.6265" lon="5.91932">
        <ele>2380.36</ele>
        <time>2014-06-22T13:37:30Z</time>
      </trkpt>
      <trkpt lat="44.62648" lon="5.91922">
        <ele>2377.48</ele>
        <time>2014-06-22T13:37:44Z</time>
      </trkpt>
      <trkpt lat="44.62643" lon="5.91916">
        <ele>2376.04</ele>
        <time>2014-06-22T13:37:53Z</time>
      </trkpt>
      <trkpt lat="44.62638" lon="5.91903">
        <ele>2373.63</ele>
        <time>2014-06-22T13:38:08Z</time>
      </trkpt>
      <trkpt lat="44.62632" lon="5.91893">
        <ele>2370.75</ele>
        <time>2014-06-22T13:38:20Z</time>
      </trkpt>
      <trkpt lat="44.6263" lon="5.91878">
        <ele>2369.79</ele>
        <time>2014-06-22T13:38:36Z</time>
      </trkpt>
      <trkpt lat="44.62627" lon="5.91864">
        <ele>2369.31</ele>
        <time>2014-06-22T13:38:49Z</time>
      </trkpt>
      <trkpt lat="44.62625" lon="5.9185">
        <ele>2367.38</ele>
        <time>2014-06-22T13:39:04Z</time>
      </trkpt>
      <trkpt lat="44.62623" lon="5.91845">
        <ele>2366.9</ele>
        <time>2014-06-22T13:39:18Z</time>
      </trkpt>
      <trkpt lat="44.62623" lon="5.91844">
        <ele>2366.42</ele>
        <time>2014-06-22T13:39:31Z</time>
      </trkpt>
      <trkpt lat="44.62623" lon="5.91842">
        <ele>2367.38</ele>
        <time>2014-06-22T13:39:49Z</time>
      </trkpt>
      <trkpt lat="44.62623" lon="5.91839">
        <ele>2366.9</ele>
        <time>2014-06-22T13:40:03Z</time>
      </trkpt>
      <trkpt lat="44.62623" lon="5.91839">
        <ele>2365.46</ele>
        <time>2014-06-22T13:40:18Z</time>
      </trkpt>
      <trkpt lat="44.62622" lon="5.91837">
        <ele>2364.98</ele>
        <time>2014-06-22T13:40:33Z</time>
      </trkpt>
      <trkpt lat="44.62622" lon="5.91837">
        <ele>2363.06</ele>
        <time>2014-06-22T13:40:45Z</time>
      </trkpt>
      <trkpt lat="44.62613" lon="5.91806">
        <ele>2360.17</ele>
        <time>2014-06-22T13:41:00Z</time>
      </trkpt>
      <trkpt lat="44.62603" lon="5.91792">
        <ele>2356.81</ele>
        <time>2014-06-22T13:41:13Z</time>
      </trkpt>
      <trkpt lat="44.62602" lon="5.91788">
        <ele>2355.85</ele>
        <time>2014-06-22T13:41:17Z</time>
      </trkpt>
      <trkpt lat="44.62602" lon="5.91783">
        <ele>2353.44</ele>
        <time>2014-06-22T13:41:31Z</time>
      </trkpt>
      <trkpt lat="44.62603" lon="5.91782">
        <ele>2351.52</ele>
        <time>2014-06-22T13:41:45Z</time>
      </trkpt>
      <trkpt lat="44.62603" lon="5.91778">
        <ele>2349.12</ele>
        <time>2014-06-22T13:41:57Z</time>
      </trkpt>
      <trkpt lat="44.62604" lon="5.91761">
        <ele>2347.68</ele>
        <time>2014-06-22T13:42:09Z</time>
      </trkpt>
      <trkpt lat="44.62601" lon="5.91756">
        <ele>2346.23</ele>
        <time>2014-06-22T13:42:12Z</time>
      </trkpt>
      <trkpt lat="44.62601" lon="5.9174">
        <ele>2342.87</ele>
        <time>2014-06-22T13:42:25Z</time>
      </trkpt>
      <trkpt lat="44.62604" lon="5.91736">
        <ele>2341.91</ele>
        <time>2014-06-22T13:42:39Z</time>
      </trkpt>
      <trkpt lat="44.62604" lon="5.91736">
        <ele>2340.47</ele>
        <time>2014-06-22T13:42:51Z</time>
      </trkpt>
      <trkpt lat="44.62604" lon="5.91736">
        <ele>2339.02</ele>
        <time>2014-06-22T13:43:04Z</time>
      </trkpt>
      <trkpt lat="44.62605" lon="5.91731">
        <ele>2337.1</ele>
        <time>2014-06-22T13:43:16Z</time>
      </trkpt>
      <trkpt lat="44.62606" lon="5.91717">
        <ele>2335.66</ele>
        <time>2014-06-22T13:43:28Z</time>
      </trkpt>
      <trkpt lat="44.62608" lon="5.91701">
        <ele>2334.22</ele>
        <time>2014-06-22T13:43:43Z</time>
      </trkpt>
      <trkpt lat="44.62607" lon="5.91691">
        <ele>2331.81</ele>
        <time>2014-06-22T13:43:56Z</time>
      </trkpt>
      <trkpt lat="44.62608" lon="5.91689">
        <ele>2330.85</ele>
        <time>2014-06-22T13:44:00Z</time>
      </trkpt>
      <trkpt lat="44.62606" lon="5.91678">
        <ele>2328.93</ele>
        <time>2014-06-22T13:44:14Z</time>
      </trkpt>
      <trkpt lat="44.62605" lon="5.91668">
        <ele>2326.05</ele>
        <time>2014-06-22T13:44:28Z</time>
      </trkpt>
      <trkpt lat="44.62605" lon="5.91663">
        <ele>2324.12</ele>
        <time>2014-06-22T13:44:40Z</time>
      </trkpt>
      <trkpt lat="44.62605" lon="5.91652">
        <ele>2322.68</ele>
        <time>2014-06-22T13:44:51Z</time>
      </trkpt>
      <trkpt lat="44.62606" lon="5.91637">
        <ele>2321.72</ele>
        <time>2014-06-22T13:45:06Z</time>
      </trkpt>
      <trkpt lat="44.62605" lon="5.91637">
        <ele>2319.8</ele>
        <time>2014-06-22T13:45:18Z</time>
      </trkpt>
      <trkpt lat="44.62602" lon="5.91632">
        <ele>2317.88</ele>
        <time>2014-06-22T13:45:29Z</time>
      </trkpt>
      <trkpt lat="44.62598" lon="5.91624">
        <ele>2316.43</ele>
        <time>2014-06-22T13:45:42Z</time>
      </trkpt>
      <trkpt lat="44.62595" lon="5.91611">
        <ele>2313.55</ele>
        <time>2014-06-22T13:45:57Z</time>
      </trkpt>
      <trkpt lat="44.62593" lon="5.91606">
        <ele>2310.67</ele>
        <time>2014-06-22T13:46:06Z</time>
      </trkpt>
      <trkpt lat="44.62592" lon="5.91604">
        <ele>2308.74</ele>
        <time>2014-06-22T13:46:16Z</time>
      </trkpt>
      <trkpt lat="44.62592" lon="5.91594">
        <ele>2305.86</ele>
        <time>2014-06-22T13:46:28Z</time>
      </trkpt>
      <trkpt lat="44.6259" lon="5.91584">
        <ele>2303.46</ele>
        <time>2014-06-22T13:46:43Z</time>
      </trkpt>
      <trkpt lat="44.62589" lon="5.91578">
        <ele>2302.01</ele>
        <time>2014-06-22T13:46:56Z</time>
      </trkpt>
      <trkpt lat="44.62589" lon="5.91571">
        <ele>2300.09</ele>
        <time>2014-06-22T13:47:09Z</time>
      </trkpt>
      <trkpt lat="44.62587" lon="5.91564">
        <ele>2298.65</ele>
        <time>2014-06-22T13:47:22Z</time>
      </trkpt>
      <trkpt lat="44.62585" lon="5.91559">
        <ele>2297.21</ele>
        <time>2014-06-22T13:47:36Z</time>
      </trkpt>
      <trkpt lat="44.62584" lon="5.91556">
        <ele>2296.25</ele>
        <time>2014-06-22T13:47:47Z</time>
      </trkpt>
      <trkpt lat="44.62583" lon="5.91548">
        <ele>2293.84</ele>
        <time>2014-06-22T13:48:02Z</time>
      </trkpt>
      <trkpt lat="44.62583" lon="5.91538">
        <ele>2292.4</ele>
        <time>2014-06-22T13:48:17Z</time>
      </trkpt>
      <trkpt lat="44.62586" lon="5.91524">
        <ele>2292.88</ele>
        <time>2014-06-22T13:48:30Z</time>
      </trkpt>
      <trkpt lat="44.62583" lon="5.91522">
        <ele>2290.96</ele>
        <time>2014-06-22T13:48:44Z</time>
      </trkpt>
      <trkpt lat="44.62579" lon="5.91527">
        <ele>2289.04</ele>
        <time>2014-06-22T13:48:58Z</time>
      </trkpt>
      <trkpt lat="44.62576" lon="5.91537">
        <ele>2286.63</ele>
        <time>2014-06-22T13:49:12Z</time>
      </trkpt>
      <trkpt lat="44.62574" lon="5.9154">
        <ele>2285.19</ele>
        <time>2014-06-22T13:49:27Z</time>
      </trkpt>
      <trkpt lat="44.6257" lon="5.91545">
        <ele>2282.31</ele>
        <time>2014-06-22T13:49:40Z</time>
      </trkpt>
      <trkpt lat="44.62566" lon="5.91542">
        <ele>2279.9</ele>
        <time>2014-06-22T13:49:53Z</time>
      </trkpt>
      <trkpt lat="44.62563" lon="5.91533">
        <ele>2277.5</ele>
        <time>2014-06-22T13:50:06Z</time>
      </trkpt>
      <trkpt lat="44.62561" lon="5.91528">
        <ele>2275.1</ele>
        <time>2014-06-22T13:50:18Z</time>
      </trkpt>
      <trkpt lat="44.62558" lon="5.91533">
        <ele>2272.21</ele>
        <time>2014-06-22T13:50:31Z</time>
      </trkpt>
      <trkpt lat="44.62557" lon="5.91537">
        <ele>2270.77</ele>
        <time>2014-06-22T13:50:38Z</time>
      </trkpt>
      <trkpt lat="44.62554" lon="5.91539">
        <ele>2267.89</ele>
        <time>2014-06-22T13:50:52Z</time>
      </trkpt>
      <trkpt lat="44.6255" lon="5.91544">
        <ele>2265.96</ele>
        <time>2014-06-22T13:51:00Z</time>
      </trkpt>
      <trkpt lat="44.6255" lon="5.91544">
        <ele>2265.96</ele>
        <time>2014-06-22T13:51:23Z</time>
      </trkpt>
      <trkpt lat="44.62547" lon="5.91544">
        <ele>2264.52</ele>
        <time>2014-06-22T13:51:41Z</time>
      </trkpt>
      <trkpt lat="44.62542" lon="5.91535">
        <ele>2261.64</ele>
        <time>2014-06-22T13:51:55Z</time>
      </trkpt>
      <trkpt lat="44.6254" lon="5.91534">
        <ele>2259.72</ele>
        <time>2014-06-22T13:51:59Z</time>
      </trkpt>
      <trkpt lat="44.62536" lon="5.91528">
        <ele>2257.31</ele>
        <time>2014-06-22T13:52:12Z</time>
      </trkpt>
      <trkpt lat="44.62532" lon="5.91518">
        <ele>2253.95</ele>
        <time>2014-06-22T13:52:26Z</time>
      </trkpt>
      <trkpt lat="44.62528" lon="5.91518">
        <ele>2251.54</ele>
        <time>2014-06-22T13:52:39Z</time>
      </trkpt>
      <trkpt lat="44.62524" lon="5.91523">
        <ele>2248.66</ele>
        <time>2014-06-22T13:52:50Z</time>
      </trkpt>
      <trkpt lat="44.62522" lon="5.91529">
        <ele>2246.26</ele>
        <time>2014-06-22T13:53:09Z</time>
      </trkpt>
      <trkpt lat="44.62517" lon="5.91536">
        <ele>2243.37</ele>
        <time>2014-06-22T13:53:23Z</time>
      </trkpt>
      <trkpt lat="44.62513" lon="5.91524">
        <ele>2240.49</ele>
        <time>2014-06-22T13:53:38Z</time>
      </trkpt>
      <trkpt lat="44.62511" lon="5.91519">
        <ele>2238.09</ele>
        <time>2014-06-22T13:53:52Z</time>
      </trkpt>
      <trkpt lat="44.62511" lon="5.91524">
        <ele>2239.05</ele>
        <time>2014-06-22T13:54:08Z</time>
      </trkpt>
      <trkpt lat="44.62508" lon="5.91532">
        <ele>2236.64</ele>
        <time>2014-06-22T13:54:22Z</time>
      </trkpt>
      <trkpt lat="44.62503" lon="5.91534">
        <ele>2233.76</ele>
        <time>2014-06-22T13:54:34Z</time>
      </trkpt>
      <trkpt lat="44.625" lon="5.91524">
        <ele>2230.88</ele>
        <time>2014-06-22T13:54:49Z</time>
      </trkpt>
      <trkpt lat="44.625" lon="5.91516">
        <ele>2228.95</ele>
        <time>2014-06-22T13:54:59Z</time>
      </trkpt>
      <trkpt lat="44.625" lon="5.91513">
        <ele>2229.43</ele>
        <time>2014-06-22T13:55:01Z</time>
      </trkpt>
      <trkpt lat="44.625" lon="5.91498">
        <ele>2228.47</ele>
        <time>2014-06-22T13:55:16Z</time>
      </trkpt>
      <trkpt lat="44.62494" lon="5.91488">
        <ele>2225.59</ele>
        <time>2014-06-22T13:55:28Z</time>
      </trkpt>
      <trkpt lat="44.62492" lon="5.91483">
        <ele>2224.63</ele>
        <time>2014-06-22T13:55:34Z</time>
      </trkpt>
      <trkpt lat="44.62486" lon="5.91471">
        <ele>2222.71</ele>
        <time>2014-06-22T13:55:50Z</time>
      </trkpt>
      <trkpt lat="44.62482" lon="5.91464">
        <ele>2220.3</ele>
        <time>2014-06-22T13:56:02Z</time>
      </trkpt>
      <trkpt lat="44.62478" lon="5.91462">
        <ele>2218.86</ele>
        <time>2014-06-22T13:56:10Z</time>
      </trkpt>
      <trkpt lat="44.6247" lon="5.91457">
        <ele>2215.98</ele>
        <time>2014-06-22T13:56:24Z</time>
      </trkpt>
      <trkpt lat="44.62465" lon="5.91452">
        <ele>2213.09</ele>
        <time>2014-06-22T13:56:37Z</time>
      </trkpt>
      <trkpt lat="44.62463" lon="5.9145">
        <ele>2211.65</ele>
        <time>2014-06-22T13:56:51Z</time>
      </trkpt>
      <trkpt lat="44.62463" lon="5.9145">
        <ele>2212.13</ele>
        <time>2014-06-22T13:57:14Z</time>
      </trkpt>
      <trkpt lat="44.62459" lon="5.91446">
        <ele>2209.73</ele>
        <time>2014-06-22T13:57:28Z</time>
      </trkpt>
      <trkpt lat="44.62452" lon="5.91439">
        <ele>2208.29</ele>
        <time>2014-06-22T13:57:41Z</time>
      </trkpt>
      <trkpt lat="44.62447" lon="5.9143">
        <ele>2205.4</ele>
        <time>2014-06-22T13:57:54Z</time>
      </trkpt>
      <trkpt lat="44.62441" lon="5.91422">
        <ele>2203</ele>
        <time>2014-06-22T13:58:09Z</time>
      </trkpt>
      <trkpt lat="44.62435" lon="5.91413">
        <ele>2200.11</ele>
        <time>2014-06-22T13:58:22Z</time>
      </trkpt>
      <trkpt lat="44.62428" lon="5.91403">
        <ele>2198.19</ele>
        <time>2014-06-22T13:58:35Z</time>
      </trkpt>
      <trkpt lat="44.62424" lon="5.91402">
        <ele>2196.27</ele>
        <time>2014-06-22T13:58:51Z</time>
      </trkpt>
      <trkpt lat="44.62423" lon="5.91414">
        <ele>2193.39</ele>
        <time>2014-06-22T13:59:07Z</time>
      </trkpt>
      <trkpt lat="44.62421" lon="5.91422">
        <ele>2191.46</ele>
        <time>2014-06-22T13:59:19Z</time>
      </trkpt>
      <trkpt lat="44.6242" lon="5.91429">
        <ele>2189.06</ele>
        <time>2014-06-22T13:59:32Z</time>
      </trkpt>
      <trkpt lat="44.62418" lon="5.91437">
        <ele>2187.62</ele>
        <time>2014-06-22T13:59:44Z</time>
      </trkpt>
      <trkpt lat="44.62418" lon="5.91442">
        <ele>2185.69</ele>
        <time>2014-06-22T13:59:59Z</time>
      </trkpt>
      <trkpt lat="44.62416" lon="5.91457">
        <ele>2182.33</ele>
        <time>2014-06-22T14:00:14Z</time>
      </trkpt>
      <trkpt lat="44.62414" lon="5.91467">
        <ele>2180.41</ele>
        <time>2014-06-22T14:00:26Z</time>
      </trkpt>
      <trkpt lat="44.62414" lon="5.91469">
        <ele>2179.93</ele>
        <time>2014-06-22T14:00:28Z</time>
      </trkpt>
      <trkpt lat="44.62413" lon="5.91485">
        <ele>2178.48</ele>
        <time>2014-06-22T14:00:44Z</time>
      </trkpt>
      <trkpt lat="44.62411" lon="5.91494">
        <ele>2175.6</ele>
        <time>2014-06-22T14:00:57Z</time>
      </trkpt>
      <trkpt lat="44.62409" lon="5.91504">
        <ele>2173.68</ele>
        <time>2014-06-22T14:01:10Z</time>
      </trkpt>
      <trkpt lat="44.6241" lon="5.91516">
        <ele>2173.2</ele>
        <time>2014-06-22T14:01:23Z</time>
      </trkpt>
      <trkpt lat="44.62409" lon="5.91521">
        <ele>2170.79</ele>
        <time>2014-06-22T14:01:30Z</time>
      </trkpt>
      <trkpt lat="44.62402" lon="5.91516">
        <ele>2168.39</ele>
        <time>2014-06-22T14:01:43Z</time>
      </trkpt>
      <trkpt lat="44.62398" lon="5.91512">
        <ele>2165.03</ele>
        <time>2014-06-22T14:01:54Z</time>
      </trkpt>
      <trkpt lat="44.62392" lon="5.91507">
        <ele>2162.14</ele>
        <time>2014-06-22T14:02:07Z</time>
      </trkpt>
      <trkpt lat="44.62387" lon="5.91506">
        <ele>2159.74</ele>
        <time>2014-06-22T14:02:18Z</time>
      </trkpt>
      <trkpt lat="44.62384" lon="5.91502">
        <ele>2158.78</ele>
        <time>2014-06-22T14:02:22Z</time>
      </trkpt>
      <trkpt lat="44.62376" lon="5.91493">
        <ele>2154.93</ele>
        <time>2014-06-22T14:02:37Z</time>
      </trkpt>
      <trkpt lat="44.62374" lon="5.91489">
        <ele>2153.97</ele>
        <time>2014-06-22T14:02:50Z</time>
      </trkpt>
      <trkpt lat="44.62367" lon="5.91481">
        <ele>2150.61</ele>
        <time>2014-06-22T14:03:04Z</time>
      </trkpt>
      <trkpt lat="44.62367" lon="5.9148">
        <ele>2150.61</ele>
        <time>2014-06-22T14:03:05Z</time>
      </trkpt>
      <trkpt lat="44.62362" lon="5.91471">
        <ele>2148.68</ele>
        <time>2014-06-22T14:03:20Z</time>
      </trkpt>
      <trkpt lat="44.62357" lon="5.91467">
        <ele>2147.24</ele>
        <time>2014-06-22T14:03:31Z</time>
      </trkpt>
      <trkpt lat="44.62349" lon="5.91463">
        <ele>2144.36</ele>
        <time>2014-06-22T14:03:45Z</time>
      </trkpt>
      <trkpt lat="44.62346" lon="5.91458">
        <ele>2143.4</ele>
        <time>2014-06-22T14:04:02Z</time>
      </trkpt>
      <trkpt lat="44.62343" lon="5.91454">
        <ele>2142.44</ele>
        <time>2014-06-22T14:04:08Z</time>
      </trkpt>
      <trkpt lat="44.62342" lon="5.91449">
        <ele>2140.99</ele>
        <time>2014-06-22T14:04:12Z</time>
      </trkpt>
      <trkpt lat="44.62337" lon="5.91436">
        <ele>2138.59</ele>
        <time>2014-06-22T14:04:27Z</time>
      </trkpt>
      <trkpt lat="44.62336" lon="5.91437">
        <ele>2139.07</ele>
        <time>2014-06-22T14:04:30Z</time>
      </trkpt>
      <trkpt lat="44.62331" lon="5.9145">
        <ele>2135.23</ele>
        <time>2014-06-22T14:04:42Z</time>
      </trkpt>
      <trkpt lat="44.62327" lon="5.91464">
        <ele>2132.34</ele>
        <time>2014-06-22T14:04:57Z</time>
      </trkpt>
      <trkpt lat="44.62327" lon="5.91465">
        <ele>2131.38</ele>
        <time>2014-06-22T14:04:59Z</time>
      </trkpt>
      <trkpt lat="44.62327" lon="5.91466">
        <ele>2131.38</ele>
        <time>2014-06-22T14:05:00Z</time>
      </trkpt>
      <trkpt lat="44.62325" lon="5.9147">
        <ele>2130.42</ele>
        <time>2014-06-22T14:05:03Z</time>
      </trkpt>
      <trkpt lat="44.62325" lon="5.91476">
        <ele>2128.5</ele>
        <time>2014-06-22T14:05:21Z</time>
      </trkpt>
      <trkpt lat="44.62322" lon="5.91484">
        <ele>2126.09</ele>
        <time>2014-06-22T14:05:34Z</time>
      </trkpt>
      <trkpt lat="44.62317" lon="5.91494">
        <ele>2123.21</ele>
        <time>2014-06-22T14:05:47Z</time>
      </trkpt>
      <trkpt lat="44.62314" lon="5.91503">
        <ele>2121.29</ele>
        <time>2014-06-22T14:06:00Z</time>
      </trkpt>
      <trkpt lat="44.62311" lon="5.91505">
        <ele>2119.84</ele>
        <time>2014-06-22T14:06:10Z</time>
      </trkpt>
      <trkpt lat="44.6231" lon="5.91504">
        <ele>2120.32</ele>
        <time>2014-06-22T14:06:17Z</time>
      </trkpt>
      <trkpt lat="44.62306" lon="5.91517">
        <ele>2117.44</ele>
        <time>2014-06-22T14:06:29Z</time>
      </trkpt>
      <trkpt lat="44.62304" lon="5.91528">
        <ele>2116.48</ele>
        <time>2014-06-22T14:06:39Z</time>
      </trkpt>
      <trkpt lat="44.62302" lon="5.91538">
        <ele>2114.56</ele>
        <time>2014-06-22T14:06:52Z</time>
      </trkpt>
      <trkpt lat="44.62299" lon="5.91544">
        <ele>2112.63</ele>
        <time>2014-06-22T14:07:02Z</time>
      </trkpt>
      <trkpt lat="44.62296" lon="5.91549">
        <ele>2112.15</ele>
        <time>2014-06-22T14:07:17Z</time>
      </trkpt>
      <trkpt lat="44.62294" lon="5.91555">
        <ele>2110.71</ele>
        <time>2014-06-22T14:07:31Z</time>
      </trkpt>
      <trkpt lat="44.62291" lon="5.91559">
        <ele>2108.31</ele>
        <time>2014-06-22T14:07:43Z</time>
      </trkpt>
      <trkpt lat="44.62288" lon="5.91545">
        <ele>2105.42</ele>
        <time>2014-06-22T14:07:59Z</time>
      </trkpt>
      <trkpt lat="44.62283" lon="5.91536">
        <ele>2102.54</ele>
        <time>2014-06-22T14:08:12Z</time>
      </trkpt>
      <trkpt lat="44.62279" lon="5.91525">
        <ele>2101.1</ele>
        <time>2014-06-22T14:08:26Z</time>
      </trkpt>
      <trkpt lat="44.62275" lon="5.91516">
        <ele>2098.21</ele>
        <time>2014-06-22T14:08:37Z</time>
      </trkpt>
      <trkpt lat="44.62272" lon="5.91507">
        <ele>2095.33</ele>
        <time>2014-06-22T14:08:53Z</time>
      </trkpt>
      <trkpt lat="44.62269" lon="5.91498">
        <ele>2093.41</ele>
        <time>2014-06-22T14:09:08Z</time>
      </trkpt>
      <trkpt lat="44.62268" lon="5.91496">
        <ele>2091.97</ele>
        <time>2014-06-22T14:09:24Z</time>
      </trkpt>
      <trkpt lat="44.62262" lon="5.91502">
        <ele>2090.04</ele>
        <time>2014-06-22T14:09:42Z</time>
      </trkpt>
      <trkpt lat="44.62257" lon="5.91509">
        <ele>2087.64</ele>
        <time>2014-06-22T14:09:57Z</time>
      </trkpt>
      <trkpt lat="44.62256" lon="5.91513">
        <ele>2084.76</ele>
        <time>2014-06-22T14:10:11Z</time>
      </trkpt>
      <trkpt lat="44.62251" lon="5.91522">
        <ele>2082.83</ele>
        <time>2014-06-22T14:10:26Z</time>
      </trkpt>
      <trkpt lat="44.62241" lon="5.91531">
        <ele>2081.39</ele>
        <time>2014-06-22T14:10:39Z</time>
      </trkpt>
      <trkpt lat="44.62235" lon="5.91541">
        <ele>2078.51</ele>
        <time>2014-06-22T14:10:53Z</time>
      </trkpt>
      <trkpt lat="44.62228" lon="5.91551">
        <ele>2077.55</ele>
        <time>2014-06-22T14:11:06Z</time>
      </trkpt>
      <trkpt lat="44.62226" lon="5.91559">
        <ele>2074.66</ele>
        <time>2014-06-22T14:11:21Z</time>
      </trkpt>
      <trkpt lat="44.62225" lon="5.91561">
        <ele>2073.7</ele>
        <time>2014-06-22T14:11:28Z</time>
      </trkpt>
      <trkpt lat="44.62222" lon="5.9157">
        <ele>2073.22</ele>
        <time>2014-06-22T14:11:46Z</time>
      </trkpt>
      <trkpt lat="44.62222" lon="5.9157">
        <ele>2072.74</ele>
        <time>2014-06-22T14:12:12Z</time>
      </trkpt>
      <trkpt lat="44.62219" lon="5.91575">
        <ele>2071.3</ele>
        <time>2014-06-22T14:12:21Z</time>
      </trkpt>
      <trkpt lat="44.62216" lon="5.91582">
        <ele>2069.86</ele>
        <time>2014-06-22T14:12:28Z</time>
      </trkpt>
      <trkpt lat="44.62215" lon="5.91585">
        <ele>2069.38</ele>
        <time>2014-06-22T14:12:31Z</time>
      </trkpt>
      <trkpt lat="44.62214" lon="5.9159">
        <ele>2067.93</ele>
        <time>2014-06-22T14:12:35Z</time>
      </trkpt>
      <trkpt lat="44.62216" lon="5.91603">
        <ele>2066.97</ele>
        <time>2014-06-22T14:12:48Z</time>
      </trkpt>
      <trkpt lat="44.62216" lon="5.91607">
        <ele>2065.05</ele>
        <time>2014-06-22T14:12:52Z</time>
      </trkpt>
      <trkpt lat="44.62215" lon="5.91607">
        <ele>2063.13</ele>
        <time>2014-06-22T14:13:06Z</time>
      </trkpt>
      <trkpt lat="44.62215" lon="5.91608">
        <ele>2063.13</ele>
        <time>2014-06-22T14:13:08Z</time>
      </trkpt>
      <trkpt lat="44.62212" lon="5.91613">
        <ele>2062.17</ele>
        <time>2014-06-22T14:13:23Z</time>
      </trkpt>
      <trkpt lat="44.6221" lon="5.91624">
        <ele>2059.76</ele>
        <time>2014-06-22T14:13:39Z</time>
      </trkpt>
      <trkpt lat="44.62208" lon="5.9163">
        <ele>2058.32</ele>
        <time>2014-06-22T14:13:53Z</time>
      </trkpt>
      <trkpt lat="44.62206" lon="5.91629">
        <ele>2058.32</ele>
        <time>2014-06-22T14:14:06Z</time>
      </trkpt>
      <trkpt lat="44.62206" lon="5.91632">
        <ele>2057.84</ele>
        <time>2014-06-22T14:14:31Z</time>
      </trkpt>
      <trkpt lat="44.62207" lon="5.91645">
        <ele>2055.92</ele>
        <time>2014-06-22T14:14:45Z</time>
      </trkpt>
      <trkpt lat="44.6221" lon="5.91651">
        <ele>2053.03</ele>
        <time>2014-06-22T14:14:59Z</time>
      </trkpt>
      <trkpt lat="44.6221" lon="5.91654">
        <ele>2052.07</ele>
        <time>2014-06-22T14:15:03Z</time>
      </trkpt>
      <trkpt lat="44.62211" lon="5.91657">
        <ele>2052.07</ele>
        <time>2014-06-22T14:15:05Z</time>
      </trkpt>
      <trkpt lat="44.62207" lon="5.91658">
        <ele>2051.11</ele>
        <time>2014-06-22T14:15:09Z</time>
      </trkpt>
      <trkpt lat="44.62205" lon="5.91658">
        <ele>2050.15</ele>
        <time>2014-06-22T14:15:12Z</time>
      </trkpt>
      <trkpt lat="44.62199" lon="5.9166">
        <ele>2048.71</ele>
        <time>2014-06-22T14:15:27Z</time>
      </trkpt>
      <trkpt lat="44.62198" lon="5.91661">
        <ele>2047.26</ele>
        <time>2014-06-22T14:15:31Z</time>
      </trkpt>
      <trkpt lat="44.62194" lon="5.91663">
        <ele>2045.82</ele>
        <time>2014-06-22T14:15:45Z</time>
      </trkpt>
      <trkpt lat="44.62194" lon="5.91669">
        <ele>2044.38</ele>
        <time>2014-06-22T14:16:00Z</time>
      </trkpt>
      <trkpt lat="44.62194" lon="5.91673">
        <ele>2043.9</ele>
        <time>2014-06-22T14:16:06Z</time>
      </trkpt>
      <trkpt lat="44.62196" lon="5.91688">
        <ele>2042.46</ele>
        <time>2014-06-22T14:16:21Z</time>
      </trkpt>
      <trkpt lat="44.62193" lon="5.91694">
        <ele>2040.05</ele>
        <time>2014-06-22T14:16:36Z</time>
      </trkpt>
      <trkpt lat="44.62188" lon="5.91703">
        <ele>2037.17</ele>
        <time>2014-06-22T14:16:49Z</time>
      </trkpt>
      <trkpt lat="44.62184" lon="5.91707">
        <ele>2033.81</ele>
        <time>2014-06-22T14:17:02Z</time>
      </trkpt>
      <trkpt lat="44.62181" lon="5.9171">
        <ele>2032.36</ele>
        <time>2014-06-22T14:17:08Z</time>
      </trkpt>
      <trkpt lat="44.62178" lon="5.9171">
        <ele>2032.84</ele>
        <time>2014-06-22T14:17:10Z</time>
      </trkpt>
      <trkpt lat="44.62175" lon="5.91708">
        <ele>2030.44</ele>
        <time>2014-06-22T14:17:16Z</time>
      </trkpt>
      <trkpt lat="44.6217" lon="5.91707">
        <ele>2028.52</ele>
        <time>2014-06-22T14:17:31Z</time>
      </trkpt>
      <trkpt lat="44.62169" lon="5.91708">
        <ele>2028.52</ele>
        <time>2014-06-22T14:17:36Z</time>
      </trkpt>
      <trkpt lat="44.62166" lon="5.91709">
        <ele>2026.6</ele>
        <time>2014-06-22T14:17:41Z</time>
      </trkpt>
      <trkpt lat="44.62153" lon="5.91713">
        <ele>2025.64</ele>
        <time>2014-06-22T14:17:57Z</time>
      </trkpt>
      <trkpt lat="44.62144" lon="5.91718">
        <ele>2022.75</ele>
        <time>2014-06-22T14:18:11Z</time>
      </trkpt>
      <trkpt lat="44.62134" lon="5.91722">
        <ele>2020.83</ele>
        <time>2014-06-22T14:18:27Z</time>
      </trkpt>
      <trkpt lat="44.62133" lon="5.91724">
        <ele>2019.87</ele>
        <time>2014-06-22T14:18:40Z</time>
      </trkpt>
      <trkpt lat="44.62131" lon="5.91713">
        <ele>2016.98</ele>
        <time>2014-06-22T14:18:54Z</time>
      </trkpt>
      <trkpt lat="44.62132" lon="5.91705">
        <ele>2014.1</ele>
        <time>2014-06-22T14:19:06Z</time>
      </trkpt>
      <trkpt lat="44.62133" lon="5.91695">
        <ele>2011.7</ele>
        <time>2014-06-22T14:19:20Z</time>
      </trkpt>
      <trkpt lat="44.62136" lon="5.91689">
        <ele>2009.77</ele>
        <time>2014-06-22T14:19:36Z</time>
      </trkpt>
      <trkpt lat="44.62135" lon="5.91679">
        <ele>2007.37</ele>
        <time>2014-06-22T14:19:46Z</time>
      </trkpt>
      <trkpt lat="44.62133" lon="5.91671">
        <ele>2004.49</ele>
        <time>2014-06-22T14:19:58Z</time>
      </trkpt>
      <trkpt lat="44.62134" lon="5.91671">
        <ele>2004.01</ele>
        <time>2014-06-22T14:20:12Z</time>
      </trkpt>
      <trkpt lat="44.62132" lon="5.91667">
        <ele>2003.04</ele>
        <time>2014-06-22T14:20:29Z</time>
      </trkpt>
      <trkpt lat="44.62131" lon="5.91657">
        <ele>2000.64</ele>
        <time>2014-06-22T14:20:42Z</time>
      </trkpt>
      <trkpt lat="44.62132" lon="5.9165">
        <ele>1998.72</ele>
        <time>2014-06-22T14:20:55Z</time>
      </trkpt>
      <trkpt lat="44.62132" lon="5.91646">
        <ele>1996.8</ele>
        <time>2014-06-22T14:21:01Z</time>
      </trkpt>
      <trkpt lat="44.6213" lon="5.91644">
        <ele>1995.83</ele>
        <time>2014-06-22T14:21:13Z</time>
      </trkpt>
      <trkpt lat="44.62125" lon="5.91638">
        <ele>1992.95</ele>
        <time>2014-06-22T14:21:27Z</time>
      </trkpt>
      <trkpt lat="44.62124" lon="5.91635">
        <ele>1991.99</ele>
        <time>2014-06-22T14:21:45Z</time>
      </trkpt>
      <trkpt lat="44.62116" lon="5.91631">
        <ele>1989.1</ele>
        <time>2014-06-22T14:21:59Z</time>
      </trkpt>
      <trkpt lat="44.62114" lon="5.91622">
        <ele>1987.66</ele>
        <time>2014-06-22T14:22:12Z</time>
      </trkpt>
      <trkpt lat="44.6211" lon="5.91614">
        <ele>1984.78</ele>
        <time>2014-06-22T14:22:28Z</time>
      </trkpt>
      <trkpt lat="44.62106" lon="5.91609">
        <ele>1983.82</ele>
        <time>2014-06-22T14:22:40Z</time>
      </trkpt>
      <trkpt lat="44.62103" lon="5.91597">
        <ele>1981.41</ele>
        <time>2014-06-22T14:22:55Z</time>
      </trkpt>
      <trkpt lat="44.621" lon="5.91585">
        <ele>1979.49</ele>
        <time>2014-06-22T14:23:08Z</time>
      </trkpt>
      <trkpt lat="44.62096" lon="5.9158">
        <ele>1978.05</ele>
        <time>2014-06-22T14:23:19Z</time>
      </trkpt>
      <trkpt lat="44.62095" lon="5.91571">
        <ele>1975.17</ele>
        <time>2014-06-22T14:23:33Z</time>
      </trkpt>
      <trkpt lat="44.62093" lon="5.91561">
        <ele>1972.76</ele>
        <time>2014-06-22T14:23:50Z</time>
      </trkpt>
      <trkpt lat="44.62091" lon="5.91548">
        <ele>1969.4</ele>
        <time>2014-06-22T14:24:03Z</time>
      </trkpt>
      <trkpt lat="44.62088" lon="5.91536">
        <ele>1966.51</ele>
        <time>2014-06-22T14:24:18Z</time>
      </trkpt>
      <trkpt lat="44.62088" lon="5.91536">
        <ele>1966.51</ele>
        <time>2014-06-22T14:24:36Z</time>
      </trkpt>
      <trkpt lat="44.62088" lon="5.91535">
        <ele>1966.51</ele>
        <time>2014-06-22T14:24:59Z</time>
      </trkpt>
      <trkpt lat="44.62088" lon="5.91526">
        <ele>1963.15</ele>
        <time>2014-06-22T14:25:12Z</time>
      </trkpt>
      <trkpt lat="44.62085" lon="5.91515">
        <ele>1961.23</ele>
        <time>2014-06-22T14:25:25Z</time>
      </trkpt>
      <trkpt lat="44.62083" lon="5.91506">
        <ele>1958.82</ele>
        <time>2014-06-22T14:25:37Z</time>
      </trkpt>
      <trkpt lat="44.62083" lon="5.91494">
        <ele>1956.9</ele>
        <time>2014-06-22T14:25:52Z</time>
      </trkpt>
      <trkpt lat="44.62083" lon="5.91481">
        <ele>1954.02</ele>
        <time>2014-06-22T14:26:07Z</time>
      </trkpt>
      <trkpt lat="44.62083" lon="5.91472">
        <ele>1952.57</ele>
        <time>2014-06-22T14:26:21Z</time>
      </trkpt>
      <trkpt lat="44.62083" lon="5.91457">
        <ele>1951.13</ele>
        <time>2014-06-22T14:26:35Z</time>
      </trkpt>
      <trkpt lat="44.62078" lon="5.91449">
        <ele>1947.77</ele>
        <time>2014-06-22T14:26:49Z</time>
      </trkpt>
      <trkpt lat="44.62072" lon="5.9144">
        <ele>1945.36</ele>
        <time>2014-06-22T14:27:05Z</time>
      </trkpt>
      <trkpt lat="44.62071" lon="5.91434">
        <ele>1942.48</ele>
        <time>2014-06-22T14:27:13Z</time>
      </trkpt>
      <trkpt lat="44.62069" lon="5.9143">
        <ele>1942</ele>
        <time>2014-06-22T14:27:27Z</time>
      </trkpt>
      <trkpt lat="44.62068" lon="5.91429">
        <ele>1940.56</ele>
        <time>2014-06-22T14:27:46Z</time>
      </trkpt>
      <trkpt lat="44.62062" lon="5.9142">
        <ele>1937.19</ele>
        <time>2014-06-22T14:27:59Z</time>
      </trkpt>
      <trkpt lat="44.62059" lon="5.91426">
        <ele>1935.27</ele>
        <time>2014-06-22T14:28:12Z</time>
      </trkpt>
      <trkpt lat="44.62058" lon="5.91428">
        <ele>1935.27</ele>
        <time>2014-06-22T14:28:14Z</time>
      </trkpt>
      <trkpt lat="44.62057" lon="5.91434">
        <ele>1932.87</ele>
        <time>2014-06-22T14:28:25Z</time>
      </trkpt>
      <trkpt lat="44.62049" lon="5.91427">
        <ele>1929.5</ele>
        <time>2014-06-22T14:28:37Z</time>
      </trkpt>
      <trkpt lat="44.62045" lon="5.91424">
        <ele>1927.58</ele>
        <time>2014-06-22T14:28:43Z</time>
      </trkpt>
      <trkpt lat="44.6204" lon="5.9142">
        <ele>1924.7</ele>
        <time>2014-06-22T14:28:56Z</time>
      </trkpt>
      <trkpt lat="44.6204" lon="5.9142">
        <ele>1925.18</ele>
        <time>2014-06-22T14:29:15Z</time>
      </trkpt>
      <trkpt lat="44.6204" lon="5.91412">
        <ele>1923.25</ele>
        <time>2014-06-22T14:29:34Z</time>
      </trkpt>
      <trkpt lat="44.62041" lon="5.914">
        <ele>1921.81</ele>
        <time>2014-06-22T14:29:49Z</time>
      </trkpt>
      <trkpt lat="44.62041" lon="5.91388">
        <ele>1921.33</ele>
        <time>2014-06-22T14:30:02Z</time>
      </trkpt>
      <trkpt lat="44.62037" lon="5.91377">
        <ele>1919.41</ele>
        <time>2014-06-22T14:30:16Z</time>
      </trkpt>
      <trkpt lat="44.62035" lon="5.91372">
        <ele>1917.49</ele>
        <time>2014-06-22T14:30:30Z</time>
      </trkpt>
      <trkpt lat="44.6203" lon="5.9136">
        <ele>1914.12</ele>
        <time>2014-06-22T14:30:43Z</time>
      </trkpt>
      <trkpt lat="44.62026" lon="5.91353">
        <ele>1911.24</ele>
        <time>2014-06-22T14:30:56Z</time>
      </trkpt>
      <trkpt lat="44.62026" lon="5.91346">
        <ele>1909.32</ele>
        <time>2014-06-22T14:31:11Z</time>
      </trkpt>
      <trkpt lat="44.62024" lon="5.91342">
        <ele>1908.35</ele>
        <time>2014-06-22T14:31:33Z</time>
      </trkpt>
      <trkpt lat="44.62022" lon="5.91333">
        <ele>1905.95</ele>
        <time>2014-06-22T14:31:46Z</time>
      </trkpt>
      <trkpt lat="44.62021" lon="5.91326">
        <ele>1904.03</ele>
        <time>2014-06-22T14:31:59Z</time>
      </trkpt>
      <trkpt lat="44.62019" lon="5.91322">
        <ele>1902.59</ele>
        <time>2014-06-22T14:32:12Z</time>
      </trkpt>
      <trkpt lat="44.62018" lon="5.91322">
        <ele>1900.66</ele>
        <time>2014-06-22T14:32:29Z</time>
      </trkpt>
      <trkpt lat="44.62016" lon="5.91313">
        <ele>1898.26</ele>
        <time>2014-06-22T14:32:42Z</time>
      </trkpt>
      <trkpt lat="44.62016" lon="5.9131">
        <ele>1896.82</ele>
        <time>2014-06-22T14:32:50Z</time>
      </trkpt>
      <trkpt lat="44.62014" lon="5.91305">
        <ele>1894.9</ele>
        <time>2014-06-22T14:32:58Z</time>
      </trkpt>
      <trkpt lat="44.62013" lon="5.91298">
        <ele>1893.45</ele>
        <time>2014-06-22T14:33:13Z</time>
      </trkpt>
      <trkpt lat="44.62014" lon="5.91287">
        <ele>1891.53</ele>
        <time>2014-06-22T14:33:28Z</time>
      </trkpt>
      <trkpt lat="44.62011" lon="5.91272">
        <ele>1889.13</ele>
        <time>2014-06-22T14:33:43Z</time>
      </trkpt>
      <trkpt lat="44.6201" lon="5.9126">
        <ele>1886.24</ele>
        <time>2014-06-22T14:33:56Z</time>
      </trkpt>
      <trkpt lat="44.6201" lon="5.91253">
        <ele>1885.76</ele>
        <time>2014-06-22T14:34:03Z</time>
      </trkpt>
      <trkpt lat="44.62009" lon="5.91237">
        <ele>1884.32</ele>
        <time>2014-06-22T14:34:18Z</time>
      </trkpt>
      <trkpt lat="44.62008" lon="5.91224">
        <ele>1882.4</ele>
        <time>2014-06-22T14:34:35Z</time>
      </trkpt>
      <trkpt lat="44.62005" lon="5.91211">
        <ele>1880.48</ele>
        <time>2014-06-22T14:34:50Z</time>
      </trkpt>
      <trkpt lat="44.62001" lon="5.91197">
        <ele>1879.51</ele>
        <time>2014-06-22T14:35:05Z</time>
      </trkpt>
      <trkpt lat="44.61998" lon="5.91186">
        <ele>1878.07</ele>
        <time>2014-06-22T14:35:19Z</time>
      </trkpt>
      <trkpt lat="44.61995" lon="5.91177">
        <ele>1876.15</ele>
        <time>2014-06-22T14:35:31Z</time>
      </trkpt>
      <trkpt lat="44.61991" lon="5.91163">
        <ele>1874.23</ele>
        <time>2014-06-22T14:35:47Z</time>
      </trkpt>
      <trkpt lat="44.61988" lon="5.91155">
        <ele>1872.79</ele>
        <time>2014-06-22T14:36:01Z</time>
      </trkpt>
      <trkpt lat="44.61984" lon="5.91148">
        <ele>1870.86</ele>
        <time>2014-06-22T14:36:14Z</time>
      </trkpt>
      <trkpt lat="44.61981" lon="5.91134">
        <ele>1869.42</ele>
        <time>2014-06-22T14:36:28Z</time>
      </trkpt>
      <trkpt lat="44.61979" lon="5.91123">
        <ele>1867.5</ele>
        <time>2014-06-22T14:36:43Z</time>
      </trkpt>
      <trkpt lat="44.61976" lon="5.91112">
        <ele>1865.58</ele>
        <time>2014-06-22T14:36:56Z</time>
      </trkpt>
      <trkpt lat="44.61975" lon="5.91107">
        <ele>1864.61</ele>
        <time>2014-06-22T14:37:02Z</time>
      </trkpt>
      <trkpt lat="44.61968" lon="5.91092">
        <ele>1862.21</ele>
        <time>2014-06-22T14:37:17Z</time>
      </trkpt>
      <trkpt lat="44.61964" lon="5.91077">
        <ele>1860.77</ele>
        <time>2014-06-22T14:37:32Z</time>
      </trkpt>
      <trkpt lat="44.61961" lon="5.91066">
        <ele>1858.37</ele>
        <time>2014-06-22T14:37:45Z</time>
      </trkpt>
      <trkpt lat="44.61959" lon="5.91056">
        <ele>1856.92</ele>
        <time>2014-06-22T14:37:59Z</time>
      </trkpt>
      <trkpt lat="44.61957" lon="5.91047">
        <ele>1855.48</ele>
        <time>2014-06-22T14:38:13Z</time>
      </trkpt>
      <trkpt lat="44.61953" lon="5.91037">
        <ele>1854.04</ele>
        <time>2014-06-22T14:38:29Z</time>
      </trkpt>
      <trkpt lat="44.61953" lon="5.91036">
        <ele>1853.56</ele>
        <time>2014-06-22T14:38:50Z</time>
      </trkpt>
      <trkpt lat="44.61953" lon="5.91036">
        <ele>1853.56</ele>
        <time>2014-06-22T14:39:20Z</time>
      </trkpt>
      <trkpt lat="44.61955" lon="5.91039">
        <ele>1853.08</ele>
        <time>2014-06-22T14:39:40Z</time>
      </trkpt>
      <trkpt lat="44.61954" lon="5.9104">
        <ele>1852.12</ele>
        <time>2014-06-22T14:39:57Z</time>
      </trkpt>
      <trkpt lat="44.61954" lon="5.9104">
        <ele>1852.12</ele>
        <time>2014-06-22T14:40:19Z</time>
      </trkpt>
      <trkpt lat="44.61955" lon="5.91039">
        <ele>1852.12</ele>
        <time>2014-06-22T14:40:43Z</time>
      </trkpt>
      <trkpt lat="44.61953" lon="5.9104">
        <ele>1851.64</ele>
        <time>2014-06-22T14:40:57Z</time>
      </trkpt>
      <trkpt lat="44.61954" lon="5.9104">
        <ele>1852.12</ele>
        <time>2014-06-22T14:41:23Z</time>
      </trkpt>
      <trkpt lat="44.61953" lon="5.9104">
        <ele>1851.64</ele>
        <time>2014-06-22T14:41:54Z</time>
      </trkpt>
      <trkpt lat="44.61954" lon="5.9104">
        <ele>1851.64</ele>
        <time>2014-06-22T14:42:22Z</time>
      </trkpt>
      <trkpt lat="44.61954" lon="5.9104">
        <ele>1851.64</ele>
        <time>2014-06-22T14:42:51Z</time>
      </trkpt>
      <trkpt lat="44.61954" lon="5.91039">
        <ele>1851.16</ele>
        <time>2014-06-22T14:43:10Z</time>
      </trkpt>
      <trkpt lat="44.61954" lon="5.91039">
        <ele>1850.68</ele>
        <time>2014-06-22T14:43:38Z</time>
      </trkpt>
      <trkpt lat="44.61954" lon="5.91039">
        <ele>1850.68</ele>
        <time>2014-06-22T14:44:07Z</time>
      </trkpt>
      <trkpt lat="44.61954" lon="5.91037">
        <ele>1850.19</ele>
        <time>2014-06-22T14:44:39Z</time>
      </trkpt>
      <trkpt lat="44.61955" lon="5.91038">
        <ele>1850.68</ele>
        <time>2014-06-22T14:45:01Z</time>
      </trkpt>
      <trkpt lat="44.61955" lon="5.91038">
        <ele>1850.68</ele>
        <time>2014-06-22T14:45:30Z</time>
      </trkpt>
      <trkpt lat="44.61954" lon="5.91038">
        <ele>1849.71</ele>
        <time>2014-06-22T14:46:04Z</time>
      </trkpt>
      <trkpt lat="44.61954" lon="5.91038">
        <ele>1850.19</ele>
        <time>2014-06-22T14:46:38Z</time>
      </trkpt>
      <trkpt lat="44.61953" lon="5.91038">
        <ele>1849.71</ele>
        <time>2014-06-22T14:47:11Z</time>
      </trkpt>
      <trkpt lat="44.61954" lon="5.91038">
        <ele>1849.23</ele>
        <time>2014-06-22T14:47:45Z</time>
      </trkpt>
      <trkpt lat="44.61954" lon="5.91038">
        <ele>1849.23</ele>
        <time>2014-06-22T14:47:48Z</time>
      </trkpt>
      <trkpt lat="44.61955" lon="5.91038">
        <ele>1850.68</ele>
        <time>2014-06-22T14:48:04Z</time>
      </trkpt>
      <trkpt lat="44.61955" lon="5.91039">
        <ele>1850.19</ele>
        <time>2014-06-22T14:48:25Z</time>
      </trkpt>
      <trkpt lat="44.61956" lon="5.91038">
        <ele>1850.19</ele>
        <time>2014-06-22T14:48:45Z</time>
      </trkpt>
      <trkpt lat="44.61955" lon="5.91037">
        <ele>1849.71</ele>
        <time>2014-06-22T14:48:48Z</time>
      </trkpt>
      <trkpt lat="44.61949" lon="5.9103">
        <ele>1848.27</ele>
        <time>2014-06-22T14:49:05Z</time>
      </trkpt>
      <trkpt lat="44.61948" lon="5.91029">
        <ele>1847.79</ele>
        <time>2014-06-22T14:49:06Z</time>
      </trkpt>
      <trkpt lat="44.61944" lon="5.91021">
        <ele>1847.31</ele>
        <time>2014-06-22T14:49:17Z</time>
      </trkpt>
      <trkpt lat="44.61934" lon="5.91014">
        <ele>1844.43</ele>
        <time>2014-06-22T14:49:33Z</time>
      </trkpt>
      <trkpt lat="44.61933" lon="5.91012">
        <ele>1844.43</ele>
        <time>2014-06-22T14:49:35Z</time>
      </trkpt>
      <trkpt lat="44.61922" lon="5.91007">
        <ele>1843.47</ele>
        <time>2014-06-22T14:49:49Z</time>
      </trkpt>
      <trkpt lat="44.61913" lon="5.91005">
        <ele>1842.5</ele>
        <time>2014-06-22T14:49:58Z</time>
      </trkpt>
      <trkpt lat="44.61906" lon="5.90993">
        <ele>1840.1</ele>
        <time>2014-06-22T14:50:14Z</time>
      </trkpt>
      <trkpt lat="44.61897" lon="5.90991">
        <ele>1837.7</ele>
        <time>2014-06-22T14:50:29Z</time>
      </trkpt>
      <trkpt lat="44.61889" lon="5.90987">
        <ele>1835.29</ele>
        <time>2014-06-22T14:50:45Z</time>
      </trkpt>
      <trkpt lat="44.61879" lon="5.90979">
        <ele>1833.85</ele>
        <time>2014-06-22T14:51:00Z</time>
      </trkpt>
      <trkpt lat="44.61873" lon="5.90967">
        <ele>1830.97</ele>
        <time>2014-06-22T14:51:15Z</time>
      </trkpt>
      <trkpt lat="44.61871" lon="5.90966">
        <ele>1830.97</ele>
        <time>2014-06-22T14:51:18Z</time>
      </trkpt>
      <trkpt lat="44.61864" lon="5.90954">
        <ele>1829.05</ele>
        <time>2014-06-22T14:51:33Z</time>
      </trkpt>
      <trkpt lat="44.61855" lon="5.9095">
        <ele>1826.16</ele>
        <time>2014-06-22T14:51:47Z</time>
      </trkpt>
      <trkpt lat="44.61848" lon="5.90945">
        <ele>1824.24</ele>
        <time>2014-06-22T14:52:02Z</time>
      </trkpt>
      <trkpt lat="44.61847" lon="5.90943">
        <ele>1823.28</ele>
        <time>2014-06-22T14:52:23Z</time>
      </trkpt>
      <trkpt lat="44.61846" lon="5.90942">
        <ele>1823.28</ele>
        <time>2014-06-22T14:52:26Z</time>
      </trkpt>
      <trkpt lat="44.61843" lon="5.9094">
        <ele>1821.35</ele>
        <time>2014-06-22T14:52:48Z</time>
      </trkpt>
      <trkpt lat="44.61842" lon="5.90939">
        <ele>1821.84</ele>
        <time>2014-06-22T14:52:49Z</time>
      </trkpt>
      <trkpt lat="44.61833" lon="5.90938">
        <ele>1819.43</ele>
        <time>2014-06-22T14:53:05Z</time>
      </trkpt>
      <trkpt lat="44.61831" lon="5.90943">
        <ele>1818.47</ele>
        <time>2014-06-22T14:53:12Z</time>
      </trkpt>
      <trkpt lat="44.61826" lon="5.90956">
        <ele>1816.55</ele>
        <time>2014-06-22T14:53:28Z</time>
      </trkpt>
      <trkpt lat="44.61824" lon="5.90964">
        <ele>1814.63</ele>
        <time>2014-06-22T14:53:38Z</time>
      </trkpt>
      <trkpt lat="44.61824" lon="5.90971">
        <ele>1814.63</ele>
        <time>2014-06-22T14:53:45Z</time>
      </trkpt>
      <trkpt lat="44.61825" lon="5.90974">
        <ele>1813.18</ele>
        <time>2014-06-22T14:53:47Z</time>
      </trkpt>
      <trkpt lat="44.61824" lon="5.90987">
        <ele>1811.26</ele>
        <time>2014-06-22T14:54:03Z</time>
      </trkpt>
      <trkpt lat="44.61826" lon="5.90992">
        <ele>1809.82</ele>
        <time>2014-06-22T14:54:12Z</time>
      </trkpt>
      <trkpt lat="44.61828" lon="5.91005">
        <ele>1807.42</ele>
        <time>2014-06-22T14:54:25Z</time>
      </trkpt>
      <trkpt lat="44.61828" lon="5.91008">
        <ele>1806.94</ele>
        <time>2014-06-22T14:54:27Z</time>
      </trkpt>
      <trkpt lat="44.61829" lon="5.91018">
        <ele>1805.97</ele>
        <time>2014-06-22T14:54:39Z</time>
      </trkpt>
      <trkpt lat="44.61828" lon="5.91026">
        <ele>1804.05</ele>
        <time>2014-06-22T14:54:48Z</time>
      </trkpt>
      <trkpt lat="44.61819" lon="5.91038">
        <ele>1800.69</ele>
        <time>2014-06-22T14:55:03Z</time>
      </trkpt>
      <trkpt lat="44.61818" lon="5.91044">
        <ele>1800.21</ele>
        <time>2014-06-22T14:55:10Z</time>
      </trkpt>
      <trkpt lat="44.61818" lon="5.91059">
        <ele>1798.76</ele>
        <time>2014-06-22T14:55:22Z</time>
      </trkpt>
      <trkpt lat="44.61815" lon="5.91072">
        <ele>1796.84</ele>
        <time>2014-06-22T14:55:37Z</time>
      </trkpt>
      <trkpt lat="44.61815" lon="5.91073">
        <ele>1796.84</ele>
        <time>2014-06-22T14:55:38Z</time>
      </trkpt>
      <trkpt lat="44.61813" lon="5.9108">
        <ele>1794.44</ele>
        <time>2014-06-22T14:55:46Z</time>
      </trkpt>
      <trkpt lat="44.6181" lon="5.91089">
        <ele>1793.48</ele>
        <time>2014-06-22T14:55:55Z</time>
      </trkpt>
      <trkpt lat="44.6181" lon="5.911">
        <ele>1791.07</ele>
        <time>2014-06-22T14:56:10Z</time>
      </trkpt>
      <trkpt lat="44.61811" lon="5.91105">
        <ele>1791.07</ele>
        <time>2014-06-22T14:56:15Z</time>
      </trkpt>
      <trkpt lat="44.61812" lon="5.91108">
        <ele>1790.11</ele>
        <time>2014-06-22T14:56:19Z</time>
      </trkpt>
      <trkpt lat="44.61819" lon="5.91122">
        <ele>1788.67</ele>
        <time>2014-06-22T14:56:33Z</time>
      </trkpt>
      <trkpt lat="44.61824" lon="5.91134">
        <ele>1786.75</ele>
        <time>2014-06-22T14:56:48Z</time>
      </trkpt>
      <trkpt lat="44.61824" lon="5.91146">
        <ele>1785.79</ele>
        <time>2014-06-22T14:57:01Z</time>
      </trkpt>
      <trkpt lat="44.61821" lon="5.91156">
        <ele>1783.86</ele>
        <time>2014-06-22T14:57:17Z</time>
      </trkpt>
      <trkpt lat="44.6182" lon="5.91158">
        <ele>1782.9</ele>
        <time>2014-06-22T14:57:22Z</time>
      </trkpt>
      <trkpt lat="44.61818" lon="5.91175">
        <ele>1781.46</ele>
        <time>2014-06-22T14:57:35Z</time>
      </trkpt>
      <trkpt lat="44.61822" lon="5.91191">
        <ele>1780.5</ele>
        <time>2014-06-22T14:57:48Z</time>
      </trkpt>
      <trkpt lat="44.61821" lon="5.91206">
        <ele>1778.1</ele>
        <time>2014-06-22T14:58:01Z</time>
      </trkpt>
      <trkpt lat="44.6182" lon="5.91213">
        <ele>1777.13</ele>
        <time>2014-06-22T14:58:08Z</time>
      </trkpt>
      <trkpt lat="44.6182" lon="5.9122">
        <ele>1776.65</ele>
        <time>2014-06-22T14:58:16Z</time>
      </trkpt>
      <trkpt lat="44.6182" lon="5.91222">
        <ele>1777.13</ele>
        <time>2014-06-22T14:58:18Z</time>
      </trkpt>
      <trkpt lat="44.61814" lon="5.91213">
        <ele>1774.25</ele>
        <time>2014-06-22T14:58:34Z</time>
      </trkpt>
      <trkpt lat="44.61811" lon="5.91209">
        <ele>1772.33</ele>
        <time>2014-06-22T14:58:46Z</time>
      </trkpt>
      <trkpt lat="44.61805" lon="5.91201">
        <ele>1770.41</ele>
        <time>2014-06-22T14:59:01Z</time>
      </trkpt>
      <trkpt lat="44.61799" lon="5.91198">
        <ele>1768.96</ele>
        <time>2014-06-22T14:59:14Z</time>
      </trkpt>
      <trkpt lat="44.61793" lon="5.91187">
        <ele>1767.52</ele>
        <time>2014-06-22T14:59:30Z</time>
      </trkpt>
      <trkpt lat="44.61786" lon="5.91183">
        <ele>1765.12</ele>
        <time>2014-06-22T14:59:43Z</time>
      </trkpt>
      <trkpt lat="44.6178" lon="5.91179">
        <ele>1762.71</ele>
        <time>2014-06-22T14:59:57Z</time>
      </trkpt>
      <trkpt lat="44.61779" lon="5.91183">
        <ele>1761.27</ele>
        <time>2014-06-22T15:00:07Z</time>
      </trkpt>
      <trkpt lat="44.61779" lon="5.91193">
        <ele>1759.83</ele>
        <time>2014-06-22T15:00:20Z</time>
      </trkpt>
      <trkpt lat="44.61779" lon="5.91197">
        <ele>1758.87</ele>
        <time>2014-06-22T15:00:25Z</time>
      </trkpt>
      <trkpt lat="44.61779" lon="5.912">
        <ele>1758.39</ele>
        <time>2014-06-22T15:00:27Z</time>
      </trkpt>
      <trkpt lat="44.61776" lon="5.91216">
        <ele>1756.95</ele>
        <time>2014-06-22T15:00:43Z</time>
      </trkpt>
      <trkpt lat="44.61776" lon="5.91216">
        <ele>1756.47</ele>
        <time>2014-06-22T15:00:51Z</time>
      </trkpt>
      <trkpt lat="44.61771" lon="5.91209">
        <ele>1754.06</ele>
        <time>2014-06-22T15:01:05Z</time>
      </trkpt>
      <trkpt lat="44.61764" lon="5.91201">
        <ele>1752.14</ele>
        <time>2014-06-22T15:01:20Z</time>
      </trkpt>
      <trkpt lat="44.61757" lon="5.91196">
        <ele>1750.22</ele>
        <time>2014-06-22T15:01:33Z</time>
      </trkpt>
      <trkpt lat="44.61752" lon="5.9119">
        <ele>1747.81</ele>
        <time>2014-06-22T15:01:47Z</time>
      </trkpt>
      <trkpt lat="44.61745" lon="5.91184">
        <ele>1745.89</ele>
        <time>2014-06-22T15:02:01Z</time>
      </trkpt>
      <trkpt lat="44.61742" lon="5.91183">
        <ele>1744.93</ele>
        <time>2014-06-22T15:02:07Z</time>
      </trkpt>
      <trkpt lat="44.61734" lon="5.91175">
        <ele>1742.53</ele>
        <time>2014-06-22T15:02:22Z</time>
      </trkpt>
      <trkpt lat="44.61729" lon="5.91173">
        <ele>1741.08</ele>
        <time>2014-06-22T15:02:38Z</time>
      </trkpt>
      <trkpt lat="44.61726" lon="5.91179">
        <ele>1739.16</ele>
        <time>2014-06-22T15:02:59Z</time>
      </trkpt>
      <trkpt lat="44.61726" lon="5.91179">
        <ele>1738.68</ele>
        <time>2014-06-22T15:03:00Z</time>
      </trkpt>
      <trkpt lat="44.61722" lon="5.91187">
        <ele>1737.24</ele>
        <time>2014-06-22T15:03:17Z</time>
      </trkpt>
      <trkpt lat="44.61723" lon="5.91196">
        <ele>1735.8</ele>
        <time>2014-06-22T15:03:30Z</time>
      </trkpt>
      <trkpt lat="44.61723" lon="5.91202">
        <ele>1734.36</ele>
        <time>2014-06-22T15:03:40Z</time>
      </trkpt>
      <trkpt lat="44.61723" lon="5.9121">
        <ele>1731.47</ele>
        <time>2014-06-22T15:03:55Z</time>
      </trkpt>
      <trkpt lat="44.61722" lon="5.91217">
        <ele>1730.03</ele>
        <time>2014-06-22T15:04:07Z</time>
      </trkpt>
      <trkpt lat="44.61722" lon="5.91225">
        <ele>1728.11</ele>
        <time>2014-06-22T15:04:17Z</time>
      </trkpt>
      <trkpt lat="44.61721" lon="5.91235">
        <ele>1726.67</ele>
        <time>2014-06-22T15:04:26Z</time>
      </trkpt>
      <trkpt lat="44.61718" lon="5.91249">
        <ele>1724.26</ele>
        <time>2014-06-22T15:04:39Z</time>
      </trkpt>
      <trkpt lat="44.61717" lon="5.91261">
        <ele>1722.82</ele>
        <time>2014-06-22T15:04:50Z</time>
      </trkpt>
      <trkpt lat="44.61715" lon="5.91269">
        <ele>1721.86</ele>
        <time>2014-06-22T15:04:57Z</time>
      </trkpt>
      <trkpt lat="44.61714" lon="5.9128">
        <ele>1720.9</ele>
        <time>2014-06-22T15:05:09Z</time>
      </trkpt>
      <trkpt lat="44.61708" lon="5.91285">
        <ele>1719.46</ele>
        <time>2014-06-22T15:05:19Z</time>
      </trkpt>
      <trkpt lat="44.61707" lon="5.91277">
        <ele>1717.05</ele>
        <time>2014-06-22T15:05:33Z</time>
      </trkpt>
      <trkpt lat="44.617" lon="5.9127">
        <ele>1714.65</ele>
        <time>2014-06-22T15:05:48Z</time>
      </trkpt>
      <trkpt lat="44.61699" lon="5.91265">
        <ele>1713.69</ele>
        <time>2014-06-22T15:06:02Z</time>
      </trkpt>
      <trkpt lat="44.61698" lon="5.91264">
        <ele>1712.73</ele>
        <time>2014-06-22T15:06:24Z</time>
      </trkpt>
      <trkpt lat="44.6169" lon="5.91255">
        <ele>1711.28</ele>
        <time>2014-06-22T15:06:39Z</time>
      </trkpt>
      <trkpt lat="44.61685" lon="5.91246">
        <ele>1708.4</ele>
        <time>2014-06-22T15:06:54Z</time>
      </trkpt>
      <trkpt lat="44.61678" lon="5.91235">
        <ele>1706</ele>
        <time>2014-06-22T15:07:08Z</time>
      </trkpt>
      <trkpt lat="44.61673" lon="5.91228">
        <ele>1704.07</ele>
        <time>2014-06-22T15:07:21Z</time>
      </trkpt>
      <trkpt lat="44.61666" lon="5.91218">
        <ele>1701.67</ele>
        <time>2014-06-22T15:07:36Z</time>
      </trkpt>
      <trkpt lat="44.61661" lon="5.91211">
        <ele>1699.75</ele>
        <time>2014-06-22T15:07:50Z</time>
      </trkpt>
      <trkpt lat="44.61655" lon="5.91208">
        <ele>1697.83</ele>
        <time>2014-06-22T15:08:03Z</time>
      </trkpt>
      <trkpt lat="44.61649" lon="5.91204">
        <ele>1694.94</ele>
        <time>2014-06-22T15:08:16Z</time>
      </trkpt>
      <trkpt lat="44.61644" lon="5.9121">
        <ele>1692.54</ele>
        <time>2014-06-22T15:08:30Z</time>
      </trkpt>
      <trkpt lat="44.61641" lon="5.9122">
        <ele>1691.1</ele>
        <time>2014-06-22T15:08:44Z</time>
      </trkpt>
      <trkpt lat="44.61639" lon="5.91227">
        <ele>1689.17</ele>
        <time>2014-06-22T15:08:57Z</time>
      </trkpt>
      <trkpt lat="44.61636" lon="5.91241">
        <ele>1686.77</ele>
        <time>2014-06-22T15:09:11Z</time>
      </trkpt>
      <trkpt lat="44.61634" lon="5.91246">
        <ele>1686.29</ele>
        <time>2014-06-22T15:09:17Z</time>
      </trkpt>
      <trkpt lat="44.6163" lon="5.91261">
        <ele>1683.89</ele>
        <time>2014-06-22T15:09:33Z</time>
      </trkpt>
      <trkpt lat="44.61629" lon="5.91266">
        <ele>1683.89</ele>
        <time>2014-06-22T15:09:39Z</time>
      </trkpt>
      <trkpt lat="44.61625" lon="5.91279">
        <ele>1682.44</ele>
        <time>2014-06-22T15:09:52Z</time>
      </trkpt>
      <trkpt lat="44.61618" lon="5.91286">
        <ele>1681</ele>
        <time>2014-06-22T15:10:06Z</time>
      </trkpt>
      <trkpt lat="44.61615" lon="5.91293">
        <ele>1679.56</ele>
        <time>2014-06-22T15:10:15Z</time>
      </trkpt>
      <trkpt lat="44.61612" lon="5.91296">
        <ele>1679.56</ele>
        <time>2014-06-22T15:10:19Z</time>
      </trkpt>
      <trkpt lat="44.61607" lon="5.91304">
        <ele>1678.12</ele>
        <time>2014-06-22T15:10:29Z</time>
      </trkpt>
      <trkpt lat="44.61601" lon="5.91309">
        <ele>1677.16</ele>
        <time>2014-06-22T15:10:38Z</time>
      </trkpt>
      <trkpt lat="44.61604" lon="5.91287">
        <ele>1674.27</ele>
        <time>2014-06-22T15:10:52Z</time>
      </trkpt>
      <trkpt lat="44.61604" lon="5.91277">
        <ele>1674.75</ele>
        <time>2014-06-22T15:11:00Z</time>
      </trkpt>
      <trkpt lat="44.61604" lon="5.91272">
        <ele>1673.31</ele>
        <time>2014-06-22T15:11:09Z</time>
      </trkpt>
      <trkpt lat="44.61608" lon="5.91259">
        <ele>1671.39</ele>
        <time>2014-06-22T15:11:26Z</time>
      </trkpt>
      <trkpt lat="44.61604" lon="5.91257">
        <ele>1669.47</ele>
        <time>2014-06-22T15:11:39Z</time>
      </trkpt>
      <trkpt lat="44.61595" lon="5.91268">
        <ele>1667.54</ele>
        <time>2014-06-22T15:11:54Z</time>
      </trkpt>
      <trkpt lat="44.61586" lon="5.91276">
        <ele>1665.62</ele>
        <time>2014-06-22T15:12:08Z</time>
      </trkpt>
      <trkpt lat="44.61586" lon="5.91276">
        <ele>1666.1</ele>
        <time>2014-06-22T15:12:09Z</time>
      </trkpt>
      <trkpt lat="44.61578" lon="5.91288">
        <ele>1663.22</ele>
        <time>2014-06-22T15:12:25Z</time>
      </trkpt>
      <trkpt lat="44.6157" lon="5.91297">
        <ele>1661.78</ele>
        <time>2014-06-22T15:12:39Z</time>
      </trkpt>
      <trkpt lat="44.6157" lon="5.91284">
        <ele>1658.89</ele>
        <time>2014-06-22T15:12:50Z</time>
      </trkpt>
      <trkpt lat="44.61572" lon="5.91275">
        <ele>1657.45</ele>
        <time>2014-06-22T15:13:06Z</time>
      </trkpt>
      <trkpt lat="44.61573" lon="5.91265">
        <ele>1656.01</ele>
        <time>2014-06-22T15:13:22Z</time>
      </trkpt>
      <trkpt lat="44.61572" lon="5.91259">
        <ele>1653.6</ele>
        <time>2014-06-22T15:13:36Z</time>
      </trkpt>
      <trkpt lat="44.61571" lon="5.91244">
        <ele>1651.2</ele>
        <time>2014-06-22T15:13:51Z</time>
      </trkpt>
      <trkpt lat="44.61569" lon="5.91233">
        <ele>1650.24</ele>
        <time>2014-06-22T15:14:02Z</time>
      </trkpt>
      <trkpt lat="44.61571" lon="5.9122">
        <ele>1646.88</ele>
        <time>2014-06-22T15:14:17Z</time>
      </trkpt>
      <trkpt lat="44.61567" lon="5.91214">
        <ele>1644.95</ele>
        <time>2014-06-22T15:14:30Z</time>
      </trkpt>
      <trkpt lat="44.61565" lon="5.91204">
        <ele>1642.55</ele>
        <time>2014-06-22T15:14:45Z</time>
      </trkpt>
      <trkpt lat="44.61567" lon="5.91193">
        <ele>1641.59</ele>
        <time>2014-06-22T15:14:59Z</time>
      </trkpt>
      <trkpt lat="44.61567" lon="5.91189">
        <ele>1640.15</ele>
        <time>2014-06-22T15:15:13Z</time>
      </trkpt>
      <trkpt lat="44.61567" lon="5.91189">
        <ele>1640.15</ele>
        <time>2014-06-22T15:15:37Z</time>
      </trkpt>
      <trkpt lat="44.61567" lon="5.91188">
        <ele>1640.15</ele>
        <time>2014-06-22T15:16:05Z</time>
      </trkpt>
      <trkpt lat="44.61567" lon="5.91189">
        <ele>1640.15</ele>
        <time>2014-06-22T15:16:28Z</time>
      </trkpt>
      <trkpt lat="44.61567" lon="5.91188">
        <ele>1640.63</ele>
        <time>2014-06-22T15:16:58Z</time>
      </trkpt>
      <trkpt lat="44.61567" lon="5.91187">
        <ele>1640.63</ele>
        <time>2014-06-22T15:17:25Z</time>
      </trkpt>
      <trkpt lat="44.61567" lon="5.91188">
        <ele>1641.59</ele>
        <time>2014-06-22T15:17:54Z</time>
      </trkpt>
      <trkpt lat="44.61567" lon="5.91188">
        <ele>1640.15</ele>
        <time>2014-06-22T15:18:09Z</time>
      </trkpt>
      <trkpt lat="44.61566" lon="5.91185">
        <ele>1638.7</ele>
        <time>2014-06-22T15:18:25Z</time>
      </trkpt>
      <trkpt lat="44.61566" lon="5.91183">
        <ele>1637.74</ele>
        <time>2014-06-22T15:18:31Z</time>
      </trkpt>
      <trkpt lat="44.61565" lon="5.9118">
        <ele>1637.74</ele>
        <time>2014-06-22T15:18:32Z</time>
      </trkpt>
      <trkpt lat="44.61564" lon="5.91171">
        <ele>1636.78</ele>
        <time>2014-06-22T15:18:39Z</time>
      </trkpt>
      <trkpt lat="44.61565" lon="5.91164">
        <ele>1635.82</ele>
        <time>2014-06-22T15:18:49Z</time>
      </trkpt>
      <trkpt lat="44.61566" lon="5.9115">
        <ele>1635.82</ele>
        <time>2014-06-22T15:19:03Z</time>
      </trkpt>
      <trkpt lat="44.61566" lon="5.91143">
        <ele>1635.82</ele>
        <time>2014-06-22T15:19:10Z</time>
      </trkpt>
      <trkpt lat="44.61564" lon="5.91132">
        <ele>1635.34</ele>
        <time>2014-06-22T15:19:18Z</time>
      </trkpt>
      <trkpt lat="44.61562" lon="5.91116">
        <ele>1636.78</ele>
        <time>2014-06-22T15:19:34Z</time>
      </trkpt>
      <trkpt lat="44.6156" lon="5.91109">
        <ele>1638.22</ele>
        <time>2014-06-22T15:19:46Z</time>
      </trkpt>
      <trkpt lat="44.61559" lon="5.91108">
        <ele>1637.74</ele>
        <time>2014-06-22T15:19:47Z</time>
      </trkpt>
      <trkpt lat="44.61558" lon="5.91103">
        <ele>1637.74</ele>
        <time>2014-06-22T15:19:51Z</time>
      </trkpt>
      <trkpt lat="44.61558" lon="5.91089">
        <ele>1637.74</ele>
        <time>2014-06-22T15:20:02Z</time>
      </trkpt>
      <trkpt lat="44.6156" lon="5.91076">
        <ele>1637.74</ele>
        <time>2014-06-22T15:20:16Z</time>
      </trkpt>
      <trkpt lat="44.61561" lon="5.91057">
        <ele>1638.22</ele>
        <time>2014-06-22T15:20:31Z</time>
      </trkpt>
      <trkpt lat="44.61567" lon="5.9104">
        <ele>1639.67</ele>
        <time>2014-06-22T15:20:45Z</time>
      </trkpt>
      <trkpt lat="44.61569" lon="5.91034">
        <ele>1639.67</ele>
        <time>2014-06-22T15:20:51Z</time>
      </trkpt>
      <trkpt lat="44.61571" lon="5.91018">
        <ele>1640.15</ele>
        <time>2014-06-22T15:21:05Z</time>
      </trkpt>
      <trkpt lat="44.6157" lon="5.91007">
        <ele>1639.19</ele>
        <time>2014-06-22T15:21:19Z</time>
      </trkpt>
      <trkpt lat="44.6157" lon="5.91002">
        <ele>1639.67</ele>
        <time>2014-06-22T15:21:33Z</time>
      </trkpt>
      <trkpt lat="44.61569" lon="5.91001">
        <ele>1640.15</ele>
        <time>2014-06-22T15:21:50Z</time>
      </trkpt>
      <trkpt lat="44.61566" lon="5.91001">
        <ele>1639.19</ele>
        <time>2014-06-22T15:21:56Z</time>
      </trkpt>
      <trkpt lat="44.61554" lon="5.91007">
        <ele>1638.7</ele>
        <time>2014-06-22T15:22:11Z</time>
      </trkpt>
      <trkpt lat="44.61548" lon="5.91">
        <ele>1639.67</ele>
        <time>2014-06-22T15:22:24Z</time>
      </trkpt>
      <trkpt lat="44.6154" lon="5.90991">
        <ele>1640.63</ele>
        <time>2014-06-22T15:22:38Z</time>
      </trkpt>
      <trkpt lat="44.61536" lon="5.90988">
        <ele>1639.67</ele>
        <time>2014-06-22T15:22:44Z</time>
      </trkpt>
      <trkpt lat="44.61528" lon="5.90968">
        <ele>1640.63</ele>
        <time>2014-06-22T15:23:01Z</time>
      </trkpt>
      <trkpt lat="44.61522" lon="5.90964">
        <ele>1640.15</ele>
        <time>2014-06-22T15:23:08Z</time>
      </trkpt>
      <trkpt lat="44.61519" lon="5.90961">
        <ele>1640.63</ele>
        <time>2014-06-22T15:23:13Z</time>
      </trkpt>
      <trkpt lat="44.61513" lon="5.90953">
        <ele>1639.19</ele>
        <time>2014-06-22T15:23:24Z</time>
      </trkpt>
      <trkpt lat="44.61506" lon="5.90939">
        <ele>1639.19</ele>
        <time>2014-06-22T15:23:39Z</time>
      </trkpt>
      <trkpt lat="44.61505" lon="5.90937">
        <ele>1639.19</ele>
        <time>2014-06-22T15:23:41Z</time>
      </trkpt>
      <trkpt lat="44.61503" lon="5.90936">
        <ele>1639.19</ele>
        <time>2014-06-22T15:23:56Z</time>
      </trkpt>
      <trkpt lat="44.61503" lon="5.90935">
        <ele>1639.19</ele>
        <time>2014-06-22T15:24:12Z</time>
      </trkpt>
      <trkpt lat="44.61499" lon="5.9093">
        <ele>1639.19</ele>
        <time>2014-06-22T15:24:20Z</time>
      </trkpt>
      <trkpt lat="44.61492" lon="5.90926">
        <ele>1640.15</ele>
        <time>2014-06-22T15:24:31Z</time>
      </trkpt>
      <trkpt lat="44.61478" lon="5.90934">
        <ele>1640.15</ele>
        <time>2014-06-22T15:24:44Z</time>
      </trkpt>
      <trkpt lat="44.61473" lon="5.90934">
        <ele>1639.67</ele>
        <time>2014-06-22T15:24:51Z</time>
      </trkpt>
      <trkpt lat="44.61462" lon="5.9092">
        <ele>1639.67</ele>
        <time>2014-06-22T15:25:08Z</time>
      </trkpt>
      <trkpt lat="44.61461" lon="5.90915">
        <ele>1638.7</ele>
        <time>2014-06-22T15:25:12Z</time>
      </trkpt>
      <trkpt lat="44.61457" lon="5.90895">
        <ele>1638.7</ele>
        <time>2014-06-22T15:25:28Z</time>
      </trkpt>
      <trkpt lat="44.61456" lon="5.90895">
        <ele>1638.7</ele>
        <time>2014-06-22T15:25:29Z</time>
      </trkpt>
      <trkpt lat="44.61465" lon="5.90879">
        <ele>1638.22</ele>
        <time>2014-06-22T15:25:43Z</time>
      </trkpt>
      <trkpt lat="44.61461" lon="5.90872">
        <ele>1638.22</ele>
        <time>2014-06-22T15:25:53Z</time>
      </trkpt>
      <trkpt lat="44.61446" lon="5.90873">
        <ele>1638.7</ele>
        <time>2014-06-22T15:26:07Z</time>
      </trkpt>
      <trkpt lat="44.61441" lon="5.90868">
        <ele>1638.7</ele>
        <time>2014-06-22T15:26:19Z</time>
      </trkpt>
      <trkpt lat="44.61438" lon="5.90865">
        <ele>1638.7</ele>
        <time>2014-06-22T15:26:24Z</time>
      </trkpt>
      <trkpt lat="44.61432" lon="5.90857">
        <ele>1638.22</ele>
        <time>2014-06-22T15:26:35Z</time>
      </trkpt>
      <trkpt lat="44.61429" lon="5.90855">
        <ele>1638.7</ele>
        <time>2014-06-22T15:26:40Z</time>
      </trkpt>
      <trkpt lat="44.61417" lon="5.90853">
        <ele>1639.67</ele>
        <time>2014-06-22T15:26:54Z</time>
      </trkpt>
      <trkpt lat="44.61414" lon="5.90854">
        <ele>1639.19</ele>
        <time>2014-06-22T15:26:58Z</time>
      </trkpt>
      <trkpt lat="44.61401" lon="5.90848">
        <ele>1638.7</ele>
        <time>2014-06-22T15:27:13Z</time>
      </trkpt>
      <trkpt lat="44.61393" lon="5.90843">
        <ele>1638.22</ele>
        <time>2014-06-22T15:27:27Z</time>
      </trkpt>
      <trkpt lat="44.61387" lon="5.90835">
        <ele>1637.74</ele>
        <time>2014-06-22T15:27:39Z</time>
      </trkpt>
      <trkpt lat="44.61381" lon="5.9083">
        <ele>1636.78</ele>
        <time>2014-06-22T15:27:50Z</time>
      </trkpt>
      <trkpt lat="44.6137" lon="5.90824">
        <ele>1634.86</ele>
        <time>2014-06-22T15:28:06Z</time>
      </trkpt>
      <trkpt lat="44.61364" lon="5.90818">
        <ele>1633.42</ele>
        <time>2014-06-22T15:28:16Z</time>
      </trkpt>
      <trkpt lat="44.61354" lon="5.90816">
        <ele>1631.49</ele>
        <time>2014-06-22T15:28:32Z</time>
      </trkpt>
      <trkpt lat="44.61349" lon="5.90816">
        <ele>1630.05</ele>
        <time>2014-06-22T15:28:46Z</time>
      </trkpt>
      <trkpt lat="44.61342" lon="5.90812">
        <ele>1627.65</ele>
        <time>2014-06-22T15:28:58Z</time>
      </trkpt>
      <trkpt lat="44.61335" lon="5.90818">
        <ele>1625.73</ele>
        <time>2014-06-22T15:29:07Z</time>
      </trkpt>
      <trkpt lat="44.61323" lon="5.9082">
        <ele>1623.32</ele>
        <time>2014-06-22T15:29:23Z</time>
      </trkpt>
      <trkpt lat="44.61317" lon="5.90821">
        <ele>1622.36</ele>
        <time>2014-06-22T15:29:32Z</time>
      </trkpt>
      <trkpt lat="44.61311" lon="5.90821">
        <ele>1620.44</ele>
        <time>2014-06-22T15:29:41Z</time>
      </trkpt>
      <trkpt lat="44.61304" lon="5.90822">
        <ele>1619.48</ele>
        <time>2014-06-22T15:29:49Z</time>
      </trkpt>
      <trkpt lat="44.61296" lon="5.90829">
        <ele>1617.07</ele>
        <time>2014-06-22T15:30:03Z</time>
      </trkpt>
      <trkpt lat="44.61287" lon="5.90831">
        <ele>1615.15</ele>
        <time>2014-06-22T15:30:17Z</time>
      </trkpt>
      <trkpt lat="44.61282" lon="5.9083">
        <ele>1613.23</ele>
        <time>2014-06-22T15:30:29Z</time>
      </trkpt>
      <trkpt lat="44.61276" lon="5.90832">
        <ele>1612.75</ele>
        <time>2014-06-22T15:30:33Z</time>
      </trkpt>
      <trkpt lat="44.61276" lon="5.90817">
        <ele>1612.75</ele>
        <time>2014-06-22T15:30:41Z</time>
      </trkpt>
      <trkpt lat="44.61287" lon="5.90787">
        <ele>1611.31</ele>
        <time>2014-06-22T15:30:55Z</time>
      </trkpt>
      <trkpt lat="44.61289" lon="5.90775">
        <ele>1609.38</ele>
        <time>2014-06-22T15:31:04Z</time>
      </trkpt>
      <trkpt lat="44.61289" lon="5.9077">
        <ele>1608.9</ele>
        <time>2014-06-22T15:31:08Z</time>
      </trkpt>
      <trkpt lat="44.61289" lon="5.90747">
        <ele>1606.98</ele>
        <time>2014-06-22T15:31:25Z</time>
      </trkpt>
      <trkpt lat="44.61289" lon="5.90739">
        <ele>1606.02</ele>
        <time>2014-06-22T15:31:31Z</time>
      </trkpt>
      <trkpt lat="44.6128" lon="5.90731">
        <ele>1605.54</ele>
        <time>2014-06-22T15:31:47Z</time>
      </trkpt>
      <trkpt lat="44.61274" lon="5.90735">
        <ele>1604.1</ele>
        <time>2014-06-22T15:31:55Z</time>
      </trkpt>
      <trkpt lat="44.61269" lon="5.90743">
        <ele>1603.14</ele>
        <time>2014-06-22T15:32:05Z</time>
      </trkpt>
      <trkpt lat="44.6126" lon="5.90754">
        <ele>1600.73</ele>
        <time>2014-06-22T15:32:22Z</time>
      </trkpt>
      <trkpt lat="44.61256" lon="5.90757">
        <ele>1599.29</ele>
        <time>2014-06-22T15:32:29Z</time>
      </trkpt>
      <trkpt lat="44.6125" lon="5.90767">
        <ele>1596.89</ele>
        <time>2014-06-22T15:32:44Z</time>
      </trkpt>
      <trkpt lat="44.61242" lon="5.90774">
        <ele>1594</ele>
        <time>2014-06-22T15:32:59Z</time>
      </trkpt>
      <trkpt lat="44.61235" lon="5.90781">
        <ele>1591.6</ele>
        <time>2014-06-22T15:33:13Z</time>
      </trkpt>
      <trkpt lat="44.61228" lon="5.90781">
        <ele>1589.2</ele>
        <time>2014-06-22T15:33:23Z</time>
      </trkpt>
      <trkpt lat="44.61215" lon="5.90785">
        <ele>1588.24</ele>
        <time>2014-06-22T15:33:39Z</time>
      </trkpt>
      <trkpt lat="44.61207" lon="5.90788">
        <ele>1586.31</ele>
        <time>2014-06-22T15:33:53Z</time>
      </trkpt>
      <trkpt lat="44.61197" lon="5.90786">
        <ele>1584.39</ele>
        <time>2014-06-22T15:34:07Z</time>
      </trkpt>
      <trkpt lat="44.61191" lon="5.90781">
        <ele>1582.95</ele>
        <time>2014-06-22T15:34:16Z</time>
      </trkpt>
      <trkpt lat="44.61189" lon="5.90779">
        <ele>1582.95</ele>
        <time>2014-06-22T15:34:19Z</time>
      </trkpt>
      <trkpt lat="44.61179" lon="5.90767">
        <ele>1581.51</ele>
        <time>2014-06-22T15:34:35Z</time>
      </trkpt>
      <trkpt lat="44.61168" lon="5.90767">
        <ele>1580.54</ele>
        <time>2014-06-22T15:34:49Z</time>
      </trkpt>
      <trkpt lat="44.61159" lon="5.90774">
        <ele>1578.62</ele>
        <time>2014-06-22T15:35:05Z</time>
      </trkpt>
      <trkpt lat="44.61155" lon="5.90776">
        <ele>1577.18</ele>
        <time>2014-06-22T15:35:15Z</time>
      </trkpt>
      <trkpt lat="44.61145" lon="5.90779">
        <ele>1574.78</ele>
        <time>2014-06-22T15:35:29Z</time>
      </trkpt>
      <trkpt lat="44.61133" lon="5.90781">
        <ele>1572.37</ele>
        <time>2014-06-22T15:35:45Z</time>
      </trkpt>
      <trkpt lat="44.61131" lon="5.90782">
        <ele>1572.37</ele>
        <time>2014-06-22T15:35:48Z</time>
      </trkpt>
      <trkpt lat="44.61121" lon="5.90782">
        <ele>1570.45</ele>
        <time>2014-06-22T15:36:03Z</time>
      </trkpt>
      <trkpt lat="44.61107" lon="5.90783">
        <ele>1567.57</ele>
        <time>2014-06-22T15:36:18Z</time>
      </trkpt>
      <trkpt lat="44.61103" lon="5.90785">
        <ele>1567.57</ele>
        <time>2014-06-22T15:36:22Z</time>
      </trkpt>
      <trkpt lat="44.61092" lon="5.90794">
        <ele>1564.68</ele>
        <time>2014-06-22T15:36:38Z</time>
      </trkpt>
      <trkpt lat="44.61081" lon="5.90798">
        <ele>1562.28</ele>
        <time>2014-06-22T15:36:50Z</time>
      </trkpt>
      <trkpt lat="44.6107" lon="5.90795">
        <ele>1559.4</ele>
        <time>2014-06-22T15:37:05Z</time>
      </trkpt>
      <trkpt lat="44.61068" lon="5.90793">
        <ele>1559.4</ele>
        <time>2014-06-22T15:37:08Z</time>
      </trkpt>
      <trkpt lat="44.61065" lon="5.90792">
        <ele>1559.4</ele>
        <time>2014-06-22T15:37:11Z</time>
      </trkpt>
      <trkpt lat="44.61063" lon="5.90791">
        <ele>1558.92</ele>
        <time>2014-06-22T15:37:13Z</time>
      </trkpt>
      <trkpt lat="44.6105" lon="5.90795">
        <ele>1556.51</ele>
        <time>2014-06-22T15:37:31Z</time>
      </trkpt>
      <trkpt lat="44.61037" lon="5.90794">
        <ele>1554.11</ele>
        <time>2014-06-22T15:37:48Z</time>
      </trkpt>
      <trkpt lat="44.61029" lon="5.90792">
        <ele>1551.71</ele>
        <time>2014-06-22T15:38:00Z</time>
      </trkpt>
      <trkpt lat="44.6102" lon="5.90789">
        <ele>1549.78</ele>
        <time>2014-06-22T15:38:15Z</time>
      </trkpt>
      <trkpt lat="44.61014" lon="5.90787">
        <ele>1548.82</ele>
        <time>2014-06-22T15:38:21Z</time>
      </trkpt>
      <trkpt lat="44.61005" lon="5.90784">
        <ele>1546.42</ele>
        <time>2014-06-22T15:38:36Z</time>
      </trkpt>
      <trkpt lat="44.61002" lon="5.90783">
        <ele>1545.94</ele>
        <time>2014-06-22T15:38:38Z</time>
      </trkpt>
      <trkpt lat="44.60992" lon="5.90777">
        <ele>1543.53</ele>
        <time>2014-06-22T15:38:54Z</time>
      </trkpt>
      <trkpt lat="44.60986" lon="5.90772">
        <ele>1543.05</ele>
        <time>2014-06-22T15:39:03Z</time>
      </trkpt>
      <trkpt lat="44.60977" lon="5.90776">
        <ele>1540.17</ele>
        <time>2014-06-22T15:39:19Z</time>
      </trkpt>
      <trkpt lat="44.60976" lon="5.90776">
        <ele>1540.17</ele>
        <time>2014-06-22T15:39:20Z</time>
      </trkpt>
      <trkpt lat="44.60968" lon="5.90779">
        <ele>1539.69</ele>
        <time>2014-06-22T15:39:29Z</time>
      </trkpt>
      <trkpt lat="44.60955" lon="5.90778">
        <ele>1537.77</ele>
        <time>2014-06-22T15:39:45Z</time>
      </trkpt>
      <trkpt lat="44.60948" lon="5.90778">
        <ele>1536.8</ele>
        <time>2014-06-22T15:39:52Z</time>
      </trkpt>
      <trkpt lat="44.60934" lon="5.90779">
        <ele>1535.36</ele>
        <time>2014-06-22T15:40:08Z</time>
      </trkpt>
      <trkpt lat="44.60931" lon="5.90776">
        <ele>1535.36</ele>
        <time>2014-06-22T15:40:11Z</time>
      </trkpt>
      <trkpt lat="44.60924" lon="5.90766">
        <ele>1533.92</ele>
        <time>2014-06-22T15:40:23Z</time>
      </trkpt>
      <trkpt lat="44.60911" lon="5.90761">
        <ele>1533.92</ele>
        <time>2014-06-22T15:40:34Z</time>
      </trkpt>
      <trkpt lat="44.60909" lon="5.90753">
        <ele>1533.44</ele>
        <time>2014-06-22T15:40:39Z</time>
      </trkpt>
      <trkpt lat="44.60906" lon="5.90744">
        <ele>1532.96</ele>
        <time>2014-06-22T15:40:46Z</time>
      </trkpt>
      <trkpt lat="44.60901" lon="5.9074">
        <ele>1531.52</ele>
        <time>2014-06-22T15:40:53Z</time>
      </trkpt>
      <trkpt lat="44.60896" lon="5.90745">
        <ele>1531.52</ele>
        <time>2014-06-22T15:41:02Z</time>
      </trkpt>
      <trkpt lat="44.60891" lon="5.90764">
        <ele>1529.11</ele>
        <time>2014-06-22T15:41:19Z</time>
      </trkpt>
      <trkpt lat="44.60886" lon="5.90773">
        <ele>1527.67</ele>
        <time>2014-06-22T15:41:29Z</time>
      </trkpt>
      <trkpt lat="44.60884" lon="5.90782">
        <ele>1526.23</ele>
        <time>2014-06-22T15:41:36Z</time>
      </trkpt>
      <trkpt lat="44.60879" lon="5.908">
        <ele>1525.75</ele>
        <time>2014-06-22T15:41:52Z</time>
      </trkpt>
      <trkpt lat="44.60877" lon="5.90809">
        <ele>1524.31</ele>
        <time>2014-06-22T15:42:02Z</time>
      </trkpt>
      <trkpt lat="44.60871" lon="5.90817">
        <ele>1523.83</ele>
        <time>2014-06-22T15:42:12Z</time>
      </trkpt>
      <trkpt lat="44.60868" lon="5.90818">
        <ele>1523.83</ele>
        <time>2014-06-22T15:42:15Z</time>
      </trkpt>
      <trkpt lat="44.60852" lon="5.90821">
        <ele>1522.39</ele>
        <time>2014-06-22T15:42:30Z</time>
      </trkpt>
      <trkpt lat="44.60841" lon="5.90828">
        <ele>1521.42</ele>
        <time>2014-06-22T15:42:40Z</time>
      </trkpt>
      <trkpt lat="44.60836" lon="5.90833">
        <ele>1520.46</ele>
        <time>2014-06-22T15:42:46Z</time>
      </trkpt>
      <trkpt lat="44.60832" lon="5.90835">
        <ele>1520.46</ele>
        <time>2014-06-22T15:42:50Z</time>
      </trkpt>
      <trkpt lat="44.60823" lon="5.90837">
        <ele>1519.5</ele>
        <time>2014-06-22T15:42:59Z</time>
      </trkpt>
      <trkpt lat="44.60806" lon="5.90841">
        <ele>1518.54</ele>
        <time>2014-06-22T15:43:15Z</time>
      </trkpt>
      <trkpt lat="44.60797" lon="5.90842">
        <ele>1517.58</ele>
        <time>2014-06-22T15:43:23Z</time>
      </trkpt>
      <trkpt lat="44.60794" lon="5.90842">
        <ele>1517.1</ele>
        <time>2014-06-22T15:43:27Z</time>
      </trkpt>
      <trkpt lat="44.60775" lon="5.90845">
        <ele>1515.66</ele>
        <time>2014-06-22T15:43:45Z</time>
      </trkpt>
      <trkpt lat="44.60773" lon="5.90845">
        <ele>1515.66</ele>
        <time>2014-06-22T15:43:48Z</time>
      </trkpt>
      <trkpt lat="44.6076" lon="5.90846">
        <ele>1514.21</ele>
        <time>2014-06-22T15:44:01Z</time>
      </trkpt>
      <trkpt lat="44.60745" lon="5.90849">
        <ele>1512.29</ele>
        <time>2014-06-22T15:44:17Z</time>
      </trkpt>
      <trkpt lat="44.60739" lon="5.9085">
        <ele>1510.85</ele>
        <time>2014-06-22T15:44:23Z</time>
      </trkpt>
      <trkpt lat="44.60724" lon="5.90848">
        <ele>1509.89</ele>
        <time>2014-06-22T15:44:38Z</time>
      </trkpt>
      <trkpt lat="44.60718" lon="5.90844">
        <ele>1508.45</ele>
        <time>2014-06-22T15:44:48Z</time>
      </trkpt>
      <trkpt lat="44.60706" lon="5.90833">
        <ele>1506.52</ele>
        <time>2014-06-22T15:45:03Z</time>
      </trkpt>
      <trkpt lat="44.60691" lon="5.90823">
        <ele>1504.6</ele>
        <time>2014-06-22T15:45:19Z</time>
      </trkpt>
      <trkpt lat="44.6069" lon="5.90822">
        <ele>1504.6</ele>
        <time>2014-06-22T15:45:20Z</time>
      </trkpt>
      <trkpt lat="44.60679" lon="5.90814">
        <ele>1502.2</ele>
        <time>2014-06-22T15:45:35Z</time>
      </trkpt>
      <trkpt lat="44.60674" lon="5.90809">
        <ele>1501.72</ele>
        <time>2014-06-22T15:45:43Z</time>
      </trkpt>
      <trkpt lat="44.60668" lon="5.90803">
        <ele>1500.27</ele>
        <time>2014-06-22T15:46:00Z</time>
      </trkpt>
      <trkpt lat="44.60665" lon="5.90799">
        <ele>1499.79</ele>
        <time>2014-06-22T15:46:03Z</time>
      </trkpt>
      <trkpt lat="44.60658" lon="5.90793">
        <ele>1498.83</ele>
        <time>2014-06-22T15:46:10Z</time>
      </trkpt>
      <trkpt lat="44.60645" lon="5.90781">
        <ele>1496.91</ele>
        <time>2014-06-22T15:46:24Z</time>
      </trkpt>
      <trkpt lat="44.60634" lon="5.90773">
        <ele>1495.47</ele>
        <time>2014-06-22T15:46:37Z</time>
      </trkpt>
      <trkpt lat="44.60629" lon="5.9077">
        <ele>1494.99</ele>
        <time>2014-06-22T15:46:43Z</time>
      </trkpt>
      <trkpt lat="44.60627" lon="5.90767">
        <ele>1494.51</ele>
        <time>2014-06-22T15:46:50Z</time>
      </trkpt>
      <trkpt lat="44.60614" lon="5.90756">
        <ele>1493.55</ele>
        <time>2014-06-22T15:47:05Z</time>
      </trkpt>
      <trkpt lat="44.60606" lon="5.90747">
        <ele>1491.62</ele>
        <time>2014-06-22T15:47:15Z</time>
      </trkpt>
      <trkpt lat="44.606" lon="5.90741">
        <ele>1490.66</ele>
        <time>2014-06-22T15:47:24Z</time>
      </trkpt>
      <trkpt lat="44.60599" lon="5.90739">
        <ele>1490.18</ele>
        <time>2014-06-22T15:47:26Z</time>
      </trkpt>
      <trkpt lat="44.60592" lon="5.90735">
        <ele>1489.22</ele>
        <time>2014-06-22T15:47:34Z</time>
      </trkpt>
      <trkpt lat="44.6058" lon="5.90726">
        <ele>1486.82</ele>
        <time>2014-06-22T15:47:51Z</time>
      </trkpt>
      <trkpt lat="44.60575" lon="5.90722">
        <ele>1485.85</ele>
        <time>2014-06-22T15:47:59Z</time>
      </trkpt>
      <trkpt lat="44.60565" lon="5.90713">
        <ele>1483.45</ele>
        <time>2014-06-22T15:48:16Z</time>
      </trkpt>
      <trkpt lat="44.60561" lon="5.9071">
        <ele>1482.49</ele>
        <time>2014-06-22T15:48:21Z</time>
      </trkpt>
      <trkpt lat="44.6056" lon="5.90707">
        <ele>1482.49</ele>
        <time>2014-06-22T15:48:24Z</time>
      </trkpt>
      <trkpt lat="44.6055" lon="5.90693">
        <ele>1481.05</ele>
        <time>2014-06-22T15:48:40Z</time>
      </trkpt>
      <trkpt lat="44.60547" lon="5.90688">
        <ele>1479.61</ele>
        <time>2014-06-22T15:48:48Z</time>
      </trkpt>
      <trkpt lat="44.6054" lon="5.90684">
        <ele>1478.16</ele>
        <time>2014-06-22T15:48:57Z</time>
      </trkpt>
      <trkpt lat="44.60527" lon="5.90674">
        <ele>1476.24</ele>
        <time>2014-06-22T15:49:14Z</time>
      </trkpt>
      <trkpt lat="44.60522" lon="5.90671">
        <ele>1475.28</ele>
        <time>2014-06-22T15:49:21Z</time>
      </trkpt>
      <trkpt lat="44.60519" lon="5.9067">
        <ele>1474.32</ele>
        <time>2014-06-22T15:49:24Z</time>
      </trkpt>
      <trkpt lat="44.60503" lon="5.90665">
        <ele>1471.44</ele>
        <time>2014-06-22T15:49:40Z</time>
      </trkpt>
      <trkpt lat="44.60491" lon="5.9066">
        <ele>1468.07</ele>
        <time>2014-06-22T15:49:56Z</time>
      </trkpt>
      <trkpt lat="44.60479" lon="5.90659">
        <ele>1466.15</ele>
        <time>2014-06-22T15:50:09Z</time>
      </trkpt>
      <trkpt lat="44.60474" lon="5.90656">
        <ele>1465.19</ele>
        <time>2014-06-22T15:50:23Z</time>
      </trkpt>
      <trkpt lat="44.60466" lon="5.90653">
        <ele>1463.26</ele>
        <time>2014-06-22T15:50:42Z</time>
      </trkpt>
      <trkpt lat="44.60455" lon="5.90645">
        <ele>1461.34</ele>
        <time>2014-06-22T15:50:57Z</time>
      </trkpt>
      <trkpt lat="44.60444" lon="5.90638">
        <ele>1459.42</ele>
        <time>2014-06-22T15:51:12Z</time>
      </trkpt>
      <trkpt lat="44.60434" lon="5.90634">
        <ele>1457.02</ele>
        <time>2014-06-22T15:51:27Z</time>
      </trkpt>
      <trkpt lat="44.60425" lon="5.90625">
        <ele>1454.61</ele>
        <time>2014-06-22T15:51:41Z</time>
      </trkpt>
      <trkpt lat="44.60417" lon="5.90618">
        <ele>1452.69</ele>
        <time>2014-06-22T15:51:55Z</time>
      </trkpt>
      <trkpt lat="44.60412" lon="5.90615">
        <ele>1450.77</ele>
        <time>2014-06-22T15:52:05Z</time>
      </trkpt>
      <trkpt lat="44.60408" lon="5.90615">
        <ele>1450.29</ele>
        <time>2014-06-22T15:52:08Z</time>
      </trkpt>
      <trkpt lat="44.60397" lon="5.90615">
        <ele>1447.88</ele>
        <time>2014-06-22T15:52:25Z</time>
      </trkpt>
      <trkpt lat="44.60385" lon="5.9061">
        <ele>1445</ele>
        <time>2014-06-22T15:52:40Z</time>
      </trkpt>
      <trkpt lat="44.60381" lon="5.90608">
        <ele>1444.52</ele>
        <time>2014-06-22T15:52:46Z</time>
      </trkpt>
      <trkpt lat="44.60366" lon="5.90599">
        <ele>1442.11</ele>
        <time>2014-06-22T15:53:03Z</time>
      </trkpt>
      <trkpt lat="44.60365" lon="5.90598">
        <ele>1441.63</ele>
        <time>2014-06-22T15:53:04Z</time>
      </trkpt>
      <trkpt lat="44.60356" lon="5.90591">
        <ele>1438.27</ele>
        <time>2014-06-22T15:53:20Z</time>
      </trkpt>
      <trkpt lat="44.60349" lon="5.90585">
        <ele>1435.87</ele>
        <time>2014-06-22T15:53:34Z</time>
      </trkpt>
      <trkpt lat="44.6034" lon="5.90575">
        <ele>1432.98</ele>
        <time>2014-06-22T15:53:50Z</time>
      </trkpt>
      <trkpt lat="44.60331" lon="5.90568">
        <ele>1430.58</ele>
        <time>2014-06-22T15:54:05Z</time>
      </trkpt>
      <trkpt lat="44.60321" lon="5.9056">
        <ele>1428.18</ele>
        <time>2014-06-22T15:54:21Z</time>
      </trkpt>
      <trkpt lat="44.60312" lon="5.90554">
        <ele>1425.29</ele>
        <time>2014-06-22T15:54:36Z</time>
      </trkpt>
      <trkpt lat="44.60302" lon="5.90544">
        <ele>1421.93</ele>
        <time>2014-06-22T15:54:53Z</time>
      </trkpt>
      <trkpt lat="44.60295" lon="5.90538">
        <ele>1420.97</ele>
        <time>2014-06-22T15:55:08Z</time>
      </trkpt>
      <trkpt lat="44.60288" lon="5.90526">
        <ele>1418.08</ele>
        <time>2014-06-22T15:55:23Z</time>
      </trkpt>
      <trkpt lat="44.60279" lon="5.90521">
        <ele>1415.2</ele>
        <time>2014-06-22T15:55:39Z</time>
      </trkpt>
      <trkpt lat="44.60268" lon="5.90519">
        <ele>1413.76</ele>
        <time>2014-06-22T15:55:54Z</time>
      </trkpt>
      <trkpt lat="44.60257" lon="5.90511">
        <ele>1411.83</ele>
        <time>2014-06-22T15:56:10Z</time>
      </trkpt>
      <trkpt lat="44.60246" lon="5.905">
        <ele>1409.43</ele>
        <time>2014-06-22T15:56:27Z</time>
      </trkpt>
      <trkpt lat="44.60245" lon="5.90498">
        <ele>1412.79</ele>
        <time>2014-06-22T15:56:29Z</time>
      </trkpt>
      <trkpt lat="44.60244" lon="5.90497">
        <ele>1407.99</ele>
        <time>2014-06-22T15:56:30Z</time>
      </trkpt>
      <trkpt lat="44.60238" lon="5.90488">
        <ele>1407.99</ele>
        <time>2014-06-22T15:56:45Z</time>
      </trkpt>
    </trkseg>
  </trk>
</gpx>